[[{"header":{"parameterUnit":"m.s-1","parameterCategory":1,"la1":30.6,"la2":28.766,"lo1":-90.7593,"lo2":-88.6598,"dy":0.0162,"dx":0.0183,"nx":116,"ny":114,"refTime":"2024-02-11T06:00:00:Z","depth":0,"parameterNumber":2,"parameterNumberName":"U-component_of_WINDS"},"data":[0.0,0.0,0.0,0.0,0.0,0.0,0.0,0.0,0.0,0.0,0.0,0.0,0.0,0.0,0.0,0.0,0.0,0.0,0.0,0.0,0.0,0.0,0.0,0.0,0.0,0.0,0.0,0.0,0.0,0.0,0.0,0.0,0.0,0.0,0.0,0.0,0.0,0.0,0.0,0.0,0.0,0.0,0.0,0.0,0.0,0.0,0.0,0.0,0.0,0.0,0.0,0.0,0.0,0.0,0.0,0.0,0.0,0.0,0.0,0.0,0.0,0.0,0.0,0.0,0.0,0.0,0.0,0.0,0.0,0.0,0.0,0.0,0.0,0.0,0.0,0.0,0.0,0.0,0.0,0.0,0.0,0.0,0.0,0.0,0.0,0.0,0.0,0.0,0.0,0.0,0.0,0.0,0.0,0.0,0.0,0.0,0.0,0.0,0.0,0.0,0.0,0.0,0.0,0.0,0.0,0.0,0.0,0.0,0.0,0.0,0.0,0.0,0.0,0.0,0.0,0.0,0.0,0.0,0.0,0.0,0.0,0.0,0.0,0.0,0.0,0.0,0.0,0.0,0.0,0.0,0.0,0.0,0.0,0.0,0.0,0.0,0.0,0.0,0.0,0.0,0.0,0.0,0.0,0.0,0.0,0.0,0.0,0.0,0.0,0.0,0.0,0.0,0.0,0.0,0.0,0.0,0.0,0.0,0.0,0.0,0.0,0.0,0.0,0.0,0.0,0.0,0.0,0.0,0.0,0.0,0.0,0.0,0.0,0.0,0.0,0.0,0.0,0.0,0.0,0.0,0.0,0.0,0.0,0.0,0.0,0.0,0.0,0.0,0.0,0.0,0.0,0.0,0.0,0.0,0.0,0.0,0.0,0.0,0.0,0.0,0.0,0.0,0.0,0.0,0.0,0.0,0.0,0.0,0.0,0.0,0.0,0.0,0.0,0.0,0.0,0.0,0.0,0.0,0.0,0.0,0.0,0.0,0.0,0.0,0.0,0.0,0.0,0.0,0.0,0.0,0.0,0.0,0.0,0.0,0.0,0.0,0.0,0.0,0.0,0.0,0.0,0.0,0.0,0.0,0.0,0.0,0.0,0.0,0.0,0.0,0.0,0.0,0.0,0.0,0.0,0.0,0.0,0.0,0.0,0.0,0.0,0.0,0.0,0.0,0.0,0.0,0.0,0.0,0.0,0.0,0.0,0.0,0.0,0.0,0.0,0.0,0.0,0.0,0.0,0.0,0.0,0.0,0.0,0.0,0.0,0.0,0.0,0.0,0.0,0.0,0.0,0.0,0.0,0.0,0.0,0.0,0.0,0.0,0.0,0.0,0.0,0.0,0.0,0.0,0.0,0.0,0.0,0.0,0.0,0.0,0.0,0.0,0.0,0.0,0.0,0.0,0.0,0.0,0.0,0.0,0.0,0.0,0.0,0.0,0.0,0.0,0.0,0.0,0.0,0.0,0.0,0.0,0.0,0.0,0.0,0.0,0.0,0.0,0.0,0.0,0.0,0.0,0.0,0.0,0.0,0.0,0.0,0.0,0.0,0.0,0.0,0.0,0.0,0.0,0.0,0.0,0.0,0.0,0.0,0.0,0.0,0.0,0.0,0.0,0.0,0.0,0.0,0.0,0.0,0.0,0.0,0.0,0.0,0.0,0.0,0.0,0.0,0.0,0.0,0.0,0.0,0.0,0.0,0.0,0.0,0.0,0.0,0.0,0.0,0.0,0.0,0.0,0.0,0.0,0.0,0.0,0.0,0.0,0.0,0.0,0.0,0.0,0.0,0.0,0.0,0.0,0.0,0.0,0.0,0.0,0.0,0.0,0.0,0.0,0.0,0.0,0.0,0.0,0.0,0.0,0.0,0.0,0.0,0.0,0.0,0.0,0.0,0.0,0.0,0.0,0.0,0.0,0.0,0.0,0.0,0.0,0.0,0.0,0.0,0.0,0.0,0.0,0.0,0.0,0.0,0.0,0.0,0.0,0.0,0.0,0.0,0.0,0.0,0.0,0.0,0.0,0.0,0.0,0.0,0.0,0.0,0.0,0.0,0.0,0.0,0.0,0.0,0.0,0.0,0.0,0.0,0.0,0.0,0.0,0.0,0.0,0.0,0.0,0.0,0.0,0.0,0.0,0.0,0.0,0.0,0.0,0.0,0.0,0.0,0.0,0.0,0.0,0.0,0.0,0.0,0.0,0.0,0.0,0.0,0.0,0.0,0.0,0.0,0.0,0.0,0.0,0.0,0.0,0.0,0.0,0.0,0.0,0.0,0.0,0.0,0.0,0.0,0.0,0.0,0.0,0.0,0.0,0.0,0.0,0.0,0.0,0.0,0.0,0.0,0.0,0.0,0.0,0.0,0.0,0.0,0.0,0.0,0.0,0.0,0.0,0.0,0.0,0.0,0.0,0.0,0.0,0.0,0.0,0.0,0.0,0.0,0.0,0.0,0.0,0.0,0.0,0.0,0.0,0.0,0.0,0.0,0.0,0.0,0.0,0.0,0.0,0.0,0.0,0.0,0.0,0.0,0.0,0.0,0.0,0.0,0.0,0.0,0.0,0.0,0.0,0.0,0.0,0.0,0.0,0.0,0.0,0.0,0.0,0.0,0.0,0.0,0.0,0.0,0.0,0.0,0.0,0.0,0.0,0.0,0.0,0.0,0.0,0.0,0.0,0.0,0.0,0.0,0.0,0.0,0.0,0.0,0.0,0.0,0.0,0.0,0.0,0.0,0.0,0.0,0.0,0.0,0.0,0.0,0.0,0.0,0.0,0.0,0.0,0.0,0.0,0.0,0.0,0.0,0.0,0.0,0.0,0.0,0.0,0.0,0.0,0.0,0.0,0.0,0.0,0.0,0.0,0.0,0.0,0.0,0.0,0.0,0.0,0.0,0.0,0.0,0.0,0.0,0.0,0.0,0.0,0.0,0.0,0.0,0.0,0.0,0.0,0.0,0.0,0.0,0.0,0.0,0.0,0.0,0.0,0.0,0.0,0.0,0.0,0.0,0.0,0.0,0.0,0.0,0.0,0.0,0.0,0.0,0.0,0.0,0.0,0.0,0.0,0.0,0.0,0.0,0.0,0.0,0.0,0.0,0.0,0.0,0.0,0.0,0.0,0.0,0.0,0.0,0.0,0.0,0.0,0.0,0.0,0.0,0.0,0.0,0.0,0.0,0.0,0.0,0.0,0.0,0.0,0.0,0.0,0.0,0.0,0.0,0.0,0.0,0.0,0.0,0.0,0.0,0.0,0.0,0.0,0.0,0.0,0.0,0.0,0.0,0.0,0.0,0.0,0.0,0.0,0.0,0.0,0.0,0.0,0.0,0.0,0.0,0.0,0.0,0.0,0.0,0.0,0.0,0.0,0.0,0.0,0.0,0.0,0.0,0.0,0.0,0.0,0.0,0.0,0.0,0.0,0.0,0.0,0.0,0.0,0.0,0.0,0.0,0.0,0.0,0.0,0.0,0.0,0.0,0.0,0.0,0.0,0.0,0.0,0.0,0.0,0.0,0.0,0.0,0.0,0.0,0.0,0.0,0.0,0.0,0.0,0.0,0.0,0.0,0.0,0.0,0.0,0.0,0.0,0.0,0.0,0.0,0.0,0.0,0.0,0.0,0.0,0.0,0.0,0.0,0.0,0.0,0.0,0.0,0.0,0.0,0.0,0.0,0.0,0.0,0.0,0.0,0.0,0.0,0.0,0.0,0.0,0.0,0.0,0.0,0.0,0.0,0.0,0.0,0.0,0.0,0.0,0.0,0.0,0.0,0.0,0.0,0.0,0.0,0.0,0.0,0.0,0.0,0.0,0.0,0.0,0.0,0.0,0.0,0.0,0.0,0.0,0.0,0.0,0.0,0.0,0.0,0.0,0.0,0.0,0.0,0.0,0.0,0.0,0.0,0.0,0.0,0.0,0.0,0.0,0.0,0.0,0.0,0.0,0.0,0.0,0.0,0.0,0.0,0.0,0.0,0.0,0.0,0.0,0.0,0.0,0.0,0.0,0.0,0.0,0.0,0.0,0.0,0.0,0.0,0.0,0.0,0.0,0.0,0.0,0.0,0.0,0.0,0.0,0.0,0.0,0.0,0.0,0.0,0.0,0.0,0.0,0.0,0.0,0.0,0.0,0.0,0.0,0.0,0.0,0.0,0.0,0.0,0.0,0.0,0.0,0.0,0.0,0.0,0.0,0.0,0.0,0.0,0.0,0.0,0.0,0.0,0.0,0.0,0.0,0.0,0.0,0.0,0.0,0.0,0.0,0.0,0.0,0.0,0.0,0.0,0.0,0.0,0.0,0.0,0.0,0.0,0.0,0.0,0.0,0.0,0.0,0.0,0.0,0.0,0.0,0.0,0.0,0.0,0.0,0.0,0.0,0.0,0.0,0.0,0.0,0.0,0.0,0.0,0.0,0.0,0.0,0.0,0.0,0.0,0.0,0.0,0.0,0.0,0.0,0.0,0.0,0.0,0.0,0.0,0.0,0.0,0.0,0.0,0.0,0.0,0.0,0.0,0.0,0.0,0.0,0.0,0.0,0.0,0.0,0.0,0.0,0.0,0.0,0.0,0.0,0.0,0.0,0.0,0.0,0.0,0.0,0.0,0.0,0.0,0.0,0.0,0.0,0.0,0.0,0.0,0.0,0.0,0.0,0.0,0.0,0.0,0.0,0.0,0.0,0.0,0.0,0.0,0.0,0.0,0.0,0.0,0.0,0.0,0.0,0.0,0.0,0.0,0.0,0.0,0.0,0.0,0.0,0.0,0.0,0.0,0.0,0.0,0.0,0.0,0.0,0.0,0.0,0.0,0.0,0.0,0.0,0.0,0.0,0.0,0.0,0.0,0.0,0.0,0.0,0.0,0.0,0.0,0.0,0.0,0.0,0.0,0.0,0.0,0.0,0.0,0.0,0.0,0.0,0.0,0.0,0.0,0.0,0.0,0.0,0.0,0.0,0.0,0.0,0.0,0.0,0.0,0.0,0.0,0.0,0.0,0.0,0.0,0.0,0.0,0.0,0.0,0.0,0.0,0.0,0.0,0.0,0.0,0.0,0.0,0.0,0.0,0.0,0.0,0.0,0.0,0.0,0.0,0.0,0.0,0.0,0.0,0.0,0.0,0.0,0.0,0.0,0.0,0.0,0.0,0.0,0.0,0.0,0.0,0.0,0.0,0.0,0.0,0.0,0.0,0.0,0.0,0.0,0.0,0.0,0.0,0.0,0.0,0.0,0.0,0.0,0.0,0.0,0.0,0.0,0.0,0.0,0.0,0.0,0.0,0.0,0.0,0.0,0.0,0.0,0.0,0.0,0.0,0.0,0.0,0.0,0.0,0.0,0.0,0.0,0.0,0.0,0.0,0.0,0.0,0.0,0.0,0.0,0.0,0.0,0.0,0.0,0.0,0.0,0.0,0.0,0.0,0.0,0.0,0.0,0.0,0.0,0.0,0.0,0.0,0.0,0.0,0.0,0.0,0.0,0.0,0.0,0.0,0.0,0.0,0.0,0.0,0.0,0.0,0.0,0.0,0.0,0.0,0.0,0.0,0.0,0.0,0.0,0.0,0.0,0.0,0.0,0.0,0.0,0.0,0.0,0.0,0.0,0.0,0.0,0.0,0.0,0.0,0.0,0.0,0.0,0.0,0.0,0.0,0.0,0.0,0.0,0.0,0.0,0.0,0.0,0.0,0.0,0.0,0.0,0.0,0.0,0.0,0.0,0.0,0.0,0.0,0.0,0.0,0.0,0.0,0.0,0.0,0.0,0.0,0.0,0.0,0.0,0.0,0.0,0.0,0.0,0.0,0.0,0.0,0.0,0.0,0.0,0.0,0.0,0.0,0.0,0.0,0.0,0.0,0.0,0.0,0.0,0.0,0.0,0.0,0.0,0.0,0.0,0.0,0.0,0.0,0.0,0.0,0.0,0.0,0.0,0.0,0.0,0.0,0.0,0.0,0.0,0.0,0.0,0.0,0.0,0.0,0.0,0.0,0.0,0.0,0.0,0.0,0.0,0.0,0.0,0.0,0.0,0.0,0.0,0.0,0.0,0.0,0.0,0.0,0.0,0.0,0.0,0.0,0.0,0.0,0.0,0.0,0.0,0.0,0.0,0.0,0.0,-3.5136,-3.4448,0.0,0.0,0.0,0.0,0.0,0.0,0.0,0.0,0.0,0.0,0.0,0.0,0.0,0.0,0.0,0.0,0.0,0.0,0.0,0.0,0.0,0.0,0.0,0.0,0.0,0.0,0.0,0.0,0.0,0.0,0.0,0.0,0.0,0.0,0.0986,0.0183,-0.091,-0.2204,-0.27,-0.3991,-0.579,-0.6993,-0.853,-1.0207,0.0,0.0,0.0,0.0,0.0,0.0,0.0,0.0,0.0,0.0,0.0,0.0,0.0,0.0,0.0,0.0,0.0,0.0,0.0,0.0,0.0,0.0,0.0,0.0,0.0,0.0,0.0,0.0,0.0,0.0,0.0,0.0,0.0,0.0,0.0,0.0,0.0,0.0,0.0,0.0,0.0,0.0,0.0,0.0,0.0,0.0,0.0,0.0,0.0,0.0,0.0,0.0,0.0,0.0,0.0,0.0,0.0,0.0,0.0,0.0,0.0,0.0,0.0,0.0,0.0,0.0,0.0,0.0,0.0,0.0,-3.6065,-3.5147,0.0,0.0,0.0,0.0,0.0,0.0,0.0,0.0,0.0,0.0,0.0,0.0,0.0,0.0,0.0,0.0,0.0,0.0,0.0,0.0,0.0,0.0,0.0,0.4332,0.4104,0.4125,0.3752,0.3341,0.0,0.0,0.0,0.0,0.0,0.1813,0.1335,0.0381,-0.0946,-0.2795,-0.3141,-0.4426,-0.6643,-0.7341,-0.8485,-0.9912,-1.1072,0.0,0.0,0.0,0.0,0.0,0.0,0.0,0.0,0.0,0.0,0.0,0.0,0.0,0.0,0.0,0.0,0.0,0.0,0.0,0.0,0.0,0.0,0.0,0.0,0.0,0.0,0.0,0.0,0.0,0.0,0.0,0.0,0.0,0.0,0.0,0.0,0.0,0.0,0.0,0.0,0.0,0.0,0.0,0.0,0.0,0.0,0.0,0.0,0.0,0.0,0.0,0.0,0.0,0.0,0.0,0.0,0.0,0.0,0.0,0.0,0.0,0.0,0.0,-3.9093,-3.9434,-3.8626,-3.9233,-3.9349,-3.8882,-3.7616,-3.6562,-3.5662,-3.5368,0.0,0.0,0.0,0.0,0.0,0.0,0.0,0.0,0.0,0.0,0.0,0.0,0.0,0.0,0.0,0.0,0.0,0.0,0.0,0.0,0.0,0.4537,0.4004,0.3341,0.3537,0.3474,0.2909,0.0,0.2904,0.2404,0.2428,0.1908,0.0858,0.0191,-0.0571,-0.1425,-0.3344,-0.5035,-0.6551,-0.7571,-0.8411,-0.9291,-1.0139,-1.1284,-1.2416,0.0,0.0,0.0,0.0,0.0,0.0,0.0,0.0,0.0,0.0,0.0,0.0,0.0,0.0,0.0,0.0,0.0,0.0,0.0,0.0,0.0,0.0,0.0,0.0,0.0,0.0,0.0,0.0,0.0,0.0,0.0,0.0,0.0,0.0,0.0,0.0,0.0,0.0,0.0,0.0,0.0,-2.446,-2.5629,0.0,0.0,0.0,0.0,0.0,0.0,0.0,0.0,0.0,0.0,0.0,0.0,0.0,-3.6529,-3.6868,-3.7916,-3.8892,-3.975,-4.0196,-4.0705,-4.1277,-4.1566,-4.1693,-4.1565,-4.0828,0.0,-3.6938,-3.7339,0.0,0.0,0.0,0.0,0.0,0.0,0.0,0.0,0.0,0.0,0.0,0.0,0.0,0.0,0.0,0.0,0.0,0.0,0.0,0.0,0.0,0.4275,0.3878,0.3647,0.3662,0.3392,0.2919,0.2838,0.2722,0.2256,0.2122,0.1495,0.0296,-0.0398,-0.1415,-0.2785,-0.4188,-0.5563,-0.6697,-0.7276,-0.8066,-0.9166,-0.9587,-1.0395,-1.1572,-1.2213,0.0,0.0,0.0,0.0,0.0,0.0,0.0,0.0,0.0,0.0,0.0,0.0,0.0,0.0,0.0,0.0,0.0,0.0,0.0,0.0,0.0,0.0,0.0,0.0,0.0,0.0,0.0,0.0,0.0,0.0,0.0,0.0,0.0,0.0,0.0,0.0,0.0,0.0,0.0,-2.407,-2.518,-2.5751,-2.6464,-2.7356,0.0,0.0,0.0,0.0,0.0,0.0,0.0,0.0,0.0,-3.5671,-3.7264,-3.8502,-3.9216,-4.0033,-4.1102,-4.2435,-4.2611,-4.3126,-4.3997,-4.3822,-4.3699,-4.3635,-4.2716,-4.1437,-3.9983,-3.9162,-3.8318,-3.7632,0.0,0.0,0.0,0.0,-4.3443,-4.5386,0.0,0.0,0.0,0.0,0.0,0.0,0.0,0.0,0.0,0.0,0.0,0.0,0.4296,0.383,0.3659,0.3782,0.3474,0.3083,0.2937,0.2631,0.2395,0.2226,0.2101,0.1454,-0.0,-0.1042,-0.2348,-0.4073,-0.475,-0.5626,-0.6734,-0.6909,-0.7629,-0.8794,-0.8922,-0.9603,-1.0854,-1.1147,-1.2247,-1.3661,0.0,0.0,0.0,0.0,0.0,0.0,0.0,0.0,0.0,0.0,0.0,0.0,0.0,0.0,0.0,0.0,0.0,0.0,0.0,0.0,0.0,0.0,0.0,0.0,0.0,0.0,0.0,0.0,0.0,0.0,0.0,0.0,0.0,0.0,0.0,0.0,0.0,-2.4682,-2.5766,-2.588,-2.6678,-2.7459,0.0,0.0,0.0,0.0,0.0,0.0,-3.4794,-3.517,-3.6309,-3.862,-3.9817,-4.0932,-4.1903,-4.2355,-4.3333,-4.4732,-4.4767,-4.5238,-4.6045,-4.576,-4.5556,-4.5405,-4.4405,-4.3746,-4.317,-4.1054,-3.9785,-3.9306,-4.072,-4.1796,-4.2765,-4.4849,-4.707,-4.9143,0.0,0.0,0.0,0.0,0.0,0.0,0.0,0.0,0.0,0.0,0.0,0.4378,0.3921,0.3507,0.3318,0.3161,0.259,0.2408,0.2748,0.2485,0.2353,0.2347,0.2817,0.2128,-0.0,-0.173,-0.3081,-0.4145,-0.4435,-0.5238,-0.6363,-0.6454,-0.704,-0.8143,-0.8132,-0.9174,-1.085,-1.088,-1.1363,-1.2183,-1.2521,0.0,0.0,0.0,0.0,0.0,0.0,0.0,0.0,0.0,0.0,0.0,0.0,0.0,0.0,0.0,0.0,0.0,0.0,0.0,0.0,0.0,0.0,0.0,0.0,0.0,0.0,0.0,0.0,0.0,0.0,0.0,0.0,0.0,0.0,0.0,0.0,0.0,0.0,-2.6191,-2.6757,0.0,0.0,0.0,0.0,-2.9612,-3.1161,-3.3538,-3.6748,-3.7869,-3.9268,-4.1243,-4.3099,-4.4349,-4.5061,-4.4935,-4.5349,-4.6449,-4.6005,-4.6299,-4.7107,-4.7307,-4.7158,-4.6645,-4.6279,-4.6035,-4.5636,-4.308,-4.1939,-4.193,-4.416,-4.5738,-4.7125,-4.9846,-5.1921,-5.3613,0.0,0.0,0.0,0.0,0.0,0.0,0.0,0.0,0.5265,0.4501,0.4461,0.3981,0.2488,0.2787,0.2963,0.2523,0.2745,0.28,0.2891,0.2848,0.2694,0.2435,0.1665,0.0109,-0.1984,-0.2688,-0.3452,-0.4297,-0.4969,-0.5548,-0.616,-0.645,-0.7117,-0.8171,-0.8171,-0.8693,-0.9822,-1.0023,-1.0737,-1.1647,-1.1802,-1.263,0.0,0.0,0.0,0.0,0.0,0.0,0.0,0.0,0.0,0.0,0.0,0.0,0.0,0.0,0.0,0.0,0.0,0.0,0.0,0.0,0.0,0.0,0.0,0.0,0.0,0.0,0.0,0.0,0.0,0.0,0.0,0.0,0.0,0.0,0.0,0.0,0.0,-2.6389,-2.6347,0.0,-2.7117,-2.7348,-2.8451,-3.071,-3.2435,-3.467,-3.7677,-3.9453,-4.1369,-4.36,-4.4364,-4.5574,-4.7371,-4.6264,-4.6712,-4.8821,-4.737,-4.7232,-4.8122,-4.7517,-4.7173,-4.6961,-4.6173,-4.5982,-4.6127,-4.5061,-4.4599,-4.4872,-4.7275,-4.9138,-5.0675,-5.3709,-5.5984,-5.7689,0.0,0.0,0.0,0.0,0.0,0.0,0.0,0.0,0.51,0.4541,0.4095,0.3411,0.2239,0.2195,0.237,0.2528,0.2742,0.2779,0.2614,0.2564,0.2524,0.2377,0.0573,-0.1244,-0.3105,-0.3389,-0.3837,-0.4595,-0.5168,-0.5743,-0.6182,-0.6472,-0.7006,-0.7781,-0.7909,-0.8312,-0.8969,-0.9271,-0.9905,-1.0815,-1.0923,-1.1585,-1.2525,0.0,0.0,0.0,0.0,0.0,0.0,0.0,0.0,0.0,0.0,0.0,0.0,0.0,0.0,0.0,0.0,0.0,0.0,0.0,0.0,0.0,0.0,0.0,0.0,0.0,0.0,0.0,0.0,0.0,0.0,0.0,0.0,0.0,0.0,-2.6229,-2.6889,-2.6753,-2.6648,-2.6794,-2.7247,-2.8033,-2.9388,-3.1429,-3.3717,-3.6028,-3.867,-4.1114,-4.3503,-4.5725,-4.6078,-4.7106,-4.9038,-4.791,-4.8118,-4.948,-4.8333,-4.7918,-4.8153,-4.7517,-4.7173,-4.7034,-4.6571,-4.6604,-4.7144,-4.7231,-4.7578,-4.8368,-5.0426,-5.2316,-5.4093,-5.6916,-5.9054,-6.072,0.0,0.0,0.0,0.0,0.0,0.0,0.0,0.5705,0.5038,0.4687,0.3499,0.279,0.3047,0.1888,0.1686,0.3022,0.2433,0.2052,0.2022,0.1964,0.193,0.193,-0.0119,-0.19,-0.3259,-0.3434,-0.3981,-0.5045,-0.5124,-0.5547,-0.619,-0.6284,-0.646,-0.6859,-0.7121,-0.7832,-0.8584,-0.8604,-0.8964,-0.9634,-0.9695,-1.0216,-1.0971,0.0,0.0,0.0,0.0,0.0,0.0,0.0,0.0,0.0,0.0,0.0,0.0,0.0,0.0,0.0,0.0,0.0,0.0,0.0,0.0,0.0,0.0,0.0,0.0,0.0,0.0,0.0,0.0,0.0,0.0,0.0,0.0,0.0,-2.6222,-2.7195,-2.7832,-2.7462,-2.7702,-2.8084,-2.8442,-2.9526,-3.0584,-3.1651,-3.4984,-3.7758,-3.9881,-4.3105,-4.57,-4.7582,-4.8201,-4.9012,-5.0059,-4.9998,-4.956,-4.8666,-4.8883,-4.8302,-4.72,-4.7432,-4.736,-4.7139,-4.7501,-4.8139,-4.886,-4.9391,-5.06,-5.2364,-5.3618,-5.5313,-5.7332,-5.9412,-6.1263,-6.2705,0.0,0.0,0.0,0.0,0.0,0.0,0.6552,0.5604,0.4629,0.3826,0.3839,0.2913,0.0597,0.1605,0.1907,0.052,0.1438,0.1823,0.1412,0.1235,0.0961,0.0593,-0.0955,-0.2307,-0.324,-0.3415,-0.3978,-0.4819,-0.5412,-0.5712,-0.5587,-0.6203,-0.6517,-0.6656,-0.7128,-0.7726,-0.8433,-0.8143,-0.8492,-0.9288,-0.9342,-0.9822,-1.0405,0.0,0.0,0.0,0.0,0.0,0.0,0.0,0.0,0.0,0.0,0.0,0.0,0.0,0.0,0.0,0.0,0.0,0.0,0.0,0.0,0.0,0.0,0.0,0.0,0.0,0.0,0.0,0.0,0.0,0.0,0.0,-2.6302,-2.7736,-2.806,-2.9189,-2.9857,-2.962,-2.9547,-2.9526,-2.9578,-3.1653,-3.2915,-3.2761,-3.6627,-3.9497,-4.0728,-4.4283,-4.6824,-4.7984,-4.8711,-4.9703,-5.1121,-5.0056,-4.9873,-5.059,-4.9677,-4.8701,-4.7846,-4.8072,-4.77,-4.6974,-4.746,-4.8067,-4.8656,-4.9102,-5.053,-5.2681,-5.5437,-5.7506,-5.9208,-6.2715,-6.482,-6.5804,0.0,0.0,0.0,0.0,0.0,0.0,0.6236,0.5288,0.4419,0.3826,0.3519,0.2594,0.0728,0.0753,0.0903,0.0526,0.145,0.1825,0.1396,0.0989,0.0484,-0.0,-0.1223,-0.2261,-0.3213,-0.3518,-0.4086,-0.5053,-0.5555,-0.5712,-0.5647,-0.6172,-0.6348,-0.6457,-0.6819,-0.7418,-0.797,-0.7722,-0.8048,-0.851,-0.8615,-0.904,-0.9718,-0.9287,-0.9399,-0.96,-0.9502,-0.9658,-0.9934,-1.0526,0.0,0.0,0.0,0.0,0.0,0.0,0.0,0.0,0.0,0.0,0.0,0.0,0.0,0.0,0.0,0.0,0.0,0.0,0.0,0.0,0.0,0.0,0.0,0.0,-2.7039,-2.8701,-2.9785,-3.0238,-3.0649,-3.1389,-3.1089,-3.0965,-3.1133,-3.3115,-3.4155,-3.3503,-3.7661,-4.0374,-4.0992,-4.4772,-4.7453,-4.8404,-4.925,-5.0335,-5.1787,-5.1086,-5.0697,-5.0745,-5.0266,-4.93,-4.7997,-4.8371,-4.8361,-4.7907,-4.8526,-4.9061,-4.9614,-5.0023,-5.1356,0.0,0.0,0.0,0.0,0.0,-6.4799,-6.3947,0.0,0.0,0.0,0.0,0.0,0.0,0.5486,0.4709,0.4166,0.4269,0.2934,0.1994,0.2205,0.0125,-0.051,0.1578,0.1575,0.1544,0.1853,0.0861,0.0245,-0.0121,-0.1136,-0.221,-0.3171,-0.3617,-0.4316,-0.5393,-0.5536,-0.5674,-0.5811,-0.5964,-0.5997,-0.6069,-0.643,-0.689,-0.7165,-0.7341,-0.757,-0.757,-0.7561,-0.8169,-0.9003,-0.8913,-0.8723,-0.8658,-0.8308,-0.8628,-0.9208,-0.9158,0.0,0.0,0.0,0.0,0.0,0.0,0.0,0.0,0.0,0.0,0.0,0.0,0.0,0.0,0.0,0.0,0.0,0.0,0.0,0.0,0.0,0.0,0.0,0.0,-2.8062,-2.9935,-3.1343,-3.0734,-3.0823,-3.2831,-3.2597,-3.2419,-3.287,-3.4119,-3.4727,-3.4495,-3.8265,-4.079,-4.1271,-4.5004,0.0,0.0,0.0,-5.0788,-5.1972,-5.2273,-5.1642,-5.0102,-5.0636,-4.9915,-4.8199,-4.8795,-4.9167,-4.9426,-5.0052,-5.0627,-5.1121,-5.1498,-5.2276,-5.348,-5.4955,-5.7717,-6.1115,-6.3928,-6.272,-6.0017,0.0,0.0,0.0,0.0,0.0,0.0,0.4804,0.3901,0.3458,0.3681,0.3215,0.2363,0.1088,0.209,0.1893,-0.0263,-0.0894,-0.0248,0.17,0.0239,-0.0604,-0.025,-0.1915,-0.3134,-0.3483,-0.4077,-0.4515,-0.5059,-0.5144,-0.5172,-0.5147,-0.5651,-0.5686,-0.5392,-0.575,-0.6213,-0.6494,-0.6267,-0.6375,-0.6935,-0.6581,-0.694,-0.7732,-0.7802,-0.7717,-0.7551,-0.7511,-0.7481,-0.7807,-0.8569,-0.9168,-0.9884,-1.1638,-1.2744,0.0,0.0,0.0,0.0,0.0,0.0,0.0,0.0,0.0,0.0,0.0,0.0,0.0,0.0,0.0,0.0,0.0,0.0,0.0,-2.6408,-2.8249,-3.0303,-3.2352,-3.2377,-3.2436,-3.3314,-3.4228,-3.4604,-3.4037,-3.5282,-3.6318,-3.6994,-3.9348,-4.1452,-4.316,-4.5538,-4.7788,-4.9702,-5.0266,-5.0896,-5.1659,-5.1188,-5.0943,-5.0699,0.0,0.0,-4.9683,-5.0123,-5.0227,-5.0085,-5.0593,-5.1088,-5.1376,-5.1138,-5.133,-5.2101,-5.5764,-5.9564,-6.2925,-6.2479,-6.2493,-6.2475,0.0,0.0,0.0,0.0,0.0,0.0,0.3775,0.3211,0.2768,0.2658,0.2394,0.1873,0.0833,0.0846,0.0246,-0.126,-0.1473,-0.0962,-0.0119,-0.0846,-0.1355,-0.1135,-0.2354,-0.3074,-0.3362,-0.3735,-0.4316,-0.4944,-0.5078,-0.5112,-0.5048,-0.5292,-0.5323,-0.5152,-0.5361,-0.568,-0.6112,-0.5743,-0.5855,-0.6279,-0.5955,-0.6125,-0.6525,-0.7115,-0.7346,-0.725,-0.7199,-0.7144,-0.721,-0.7821,-0.8432,-0.9394,-1.0963,-1.2259,-1.3357,0.0,0.0,0.0,0.0,0.0,0.0,0.0,0.0,0.0,0.0,0.0,0.0,0.0,0.0,-2.1914,-2.3064,0.0,-2.5755,-2.7132,-2.8437,-3.0025,-3.1846,-3.2964,-3.3788,-3.4513,-3.4832,-3.4965,-3.5357,-3.6224,-3.7079,-3.7612,-4.0253,-4.2279,-4.3341,-4.5938,-4.7959,-4.9134,-5.0026,-5.0616,-5.1128,-5.1162,-5.1077,-5.0862,-5.0993,-5.0916,-5.0733,-5.1132,-5.1437,-5.1593,-5.2135,-5.253,-5.2755,-5.2853,-5.2646,-5.2516,-5.4548,-5.6898,-5.932,-6.0346,-5.9979,-5.8893,0.0,0.0,0.0,0.0,0.0,0.0,0.0,0.2617,0.2288,0.1749,0.1344,0.0917,0.0466,-0.106,-0.1899,-0.1785,-0.1415,-0.1529,-0.213,-0.1962,-0.2008,-0.2407,-0.2658,-0.2991,-0.3377,-0.3639,-0.4092,-0.4842,-0.4875,-0.4904,-0.4803,-0.491,-0.493,-0.5024,-0.4933,-0.5101,-0.5531,-0.5473,-0.5447,-0.5447,-0.5447,-0.556,-0.5651,-0.6493,-0.6894,-0.6987,-0.6893,-0.6944,-0.6996,-0.7407,-0.8151,-0.9117,-1.0585,-1.1913,-1.3101,-1.4124,-1.5065,0.0,0.0,0.0,0.0,0.0,0.0,0.0,0.0,-1.917,-1.9729,-1.9573,-2.0405,-2.1706,-2.3644,-2.4401,-2.5541,-2.7642,-2.8596,-2.9618,-3.0943,-3.2934,-3.4602,-3.5304,-3.4886,-3.5073,-3.6256,-3.6928,-3.7664,-3.8291,-4.1005,-4.2868,-4.3366,-4.5902,-4.7672,-4.8437,-4.9312,-4.9952,-5.0451,-5.109,-5.1304,-5.1023,-5.1485,-5.1706,-5.1745,-5.2013,-5.2483,-5.2972,-5.345,-5.3681,-5.3775,-5.4161,-5.3739,-5.2755,-5.2943,-5.3387,-5.4315,-5.7271,-5.6572,-5.4295,0.0,0.0,0.0,0.0,0.0,0.0,0.0,0.0,0.1829,0.1746,0.0877,-0.0221,-0.1351,-0.1674,-0.1783,-0.1808,-0.2061,-0.2336,-0.2885,-0.278,-0.2962,-0.3342,-0.3539,-0.3615,-0.3837,-0.4177,-0.4512,-0.4695,-0.4338,-0.4218,-0.4206,-0.3787,-0.3935,-0.4216,-0.3789,-0.3937,-0.4226,-0.4218,-0.4216,-0.4361,-0.4654,-0.4942,-0.5225,-0.537,-0.572,-0.6291,-0.6203,-0.6578,-0.722,-0.7954,-0.8519,-0.9133,-1.0672,-1.1294,-1.1753,-1.3205,-1.3972,-1.444,-1.5441,-1.6706,-1.788,-1.8226,-1.8764,-1.9112,0.0,-1.8758,-1.8559,-1.7889,-1.9048,-2.0693,-2.256,-2.4206,-2.5683,-2.7495,-2.8592,-2.9834,-3.1211,-3.2711,-3.3777,-3.4047,-3.4935,-3.5785,-3.6344,-3.7331,-3.8631,-4.0383,-4.1157,-4.2545,-4.4936,-4.4872,-4.6026,-4.8711,-4.8115,-4.8505,-5.0027,-5.0277,-5.0802,-5.1502,-5.1664,-5.2187,-5.2902,-5.2853,-5.2903,-5.3179,-5.3382,-5.3211,-5.2731,-5.2796,-5.2004,-5.0762,-5.2206,-5.1983,-5.1084,-5.2472,-5.3028,-5.3148,0.0,0.0,0.0,0.0,0.0,0.0,0.0,0.0,0.0,0.1062,0.0432,-0.0437,-0.1636,-0.1408,-0.1412,-0.1988,-0.2246,-0.2521,-0.2815,-0.3037,-0.3249,-0.3184,-0.3571,-0.3801,-0.3847,-0.4068,-0.4406,-0.4572,-0.4199,-0.408,-0.408,-0.3673,-0.3527,-0.3791,-0.3529,-0.3524,-0.3791,-0.3791,-0.3807,-0.3833,-0.4275,-0.4422,-0.457,-0.5011,-0.5364,-0.5658,-0.6136,-0.6594,0.0,-0.807,-0.8621,-0.9068,-1.0792,-1.1324,-1.1696,-1.3116,-1.3769,-1.4417,-1.5965,-1.6981,-1.779,-1.8303,-1.8768,-1.9029,-1.8459,-1.812,-1.778,-1.7461,-1.8263,-1.9693,-2.2216,-2.4039,-2.5654,-2.7349,-2.83,-2.9352,-3.1035,-3.1953,-3.2695,-3.335,-3.4425,-3.5391,-3.6494,-3.8011,-3.9382,-4.0581,-4.2057,-4.3337,-4.438,-4.5282,-4.6389,-4.7673,-4.8437,-4.901,-4.9566,-5.0579,-5.123,-5.1581,-5.2133,-5.2714,-5.3583,-5.3155,-5.3023,-5.3109,-5.4018,-5.3784,-5.2775,-5.3382,-5.2673,-5.1386,-5.217,-5.1473,-5.024,-5.1523,-5.1476,-5.0759,0.0,0.0,0.0,0.0,0.0,0.0,0.0,0.0,0.0,0.0,-0.0,-0.0643,-0.158,-0.1367,-0.1485,-0.2276,-0.2525,-0.2802,-0.289,-0.3384,-0.3618,-0.33,-0.3701,-0.3944,-0.4006,-0.4085,-0.4282,-0.4453,-0.4061,-0.3935,-0.3789,-0.3386,-0.3237,-0.3356,-0.324,-0.3244,-0.3372,-0.3372,-0.3397,-0.3437,-0.4034,-0.4171,-0.4157,-0.4881,-0.5222,-0.5366,-0.6287,-0.6719,-0.6831,-0.8018,-0.8642,-0.9142,-1.0517,-1.1155,-1.1638,-1.2621,-1.3481,-1.4528,-1.6414,-1.7159,-1.7629,-1.8365,-1.8905,-1.9206,-1.8639,-1.79,-1.7314,-1.7352,-1.8082,-1.9607,-2.1783,-2.3768,-2.55,-2.7184,-2.8179,-2.9205,-3.0851,-3.125,-3.1787,-3.2892,-3.3593,-3.4594,-3.6133,-3.8168,-3.9643,-4.05,-4.2327,-4.3617,-4.3988,-4.5393,-4.6456,-4.7221,-4.842,-4.9313,-4.9641,-5.1016,-5.1777,-5.2109,-5.2621,-5.3323,-5.4076,-5.3691,-5.3434,-5.3502,-5.4428,-5.4056,-5.2924,-5.374,-5.3174,-5.1934,-5.2404,-5.1725,-5.0566,-5.1696,-5.0794,-4.9101,0.0,0.0,0.0,0.0,0.0,0.0,0.0,0.0,0.0,0.0,0.0,0.0,0.0,-0.1923,-0.2158,-0.2339,-0.2986,-0.3403,-0.3281,-0.3886,-0.4119,-0.4112,-0.4131,-0.4243,-0.4474,-0.4482,-0.4401,-0.4078,-0.3644,-0.3354,-0.2917,-0.248,-0.248,-0.2917,-0.248,-0.2644,-0.2972,-0.2972,-0.2994,-0.3028,-0.3935,-0.4204,-0.4154,-0.4543,-0.4982,-0.5502,-0.6183,-0.6935,-0.7484,-0.8441,-0.8955,-0.9348,-1.0086,-1.0583,-1.1161,-1.1516,-1.2678,-1.4239,-1.6116,-1.7114,-1.775,-1.8576,-1.9031,-1.9324,-1.9312,-1.825,-1.7256,-1.7022,-1.8716,-2.0506,-2.1107,-2.3021,-2.5218,-2.6964,-2.8295,-2.9671,-3.103,-3.119,-3.1647,-3.2892,-3.2639,-3.3175,-3.4939,-3.7115,-3.9115,-4.0682,-4.1668,-4.2798,-4.4261,-4.4332,-4.543,-4.7657,-4.773,-4.8803,-5.0948,-5.1434,-5.2282,-5.3331,-5.3311,-5.3739,-5.4593,-5.4491,-5.4535,-5.4755,-5.4344,-5.3799,-5.3107,-5.3327,-5.2682,-5.166,-5.291,-5.2666,-5.1725,-5.235,-5.0845,-4.8647,0.0,0.0,0.0,0.0,0.0,0.0,0.0,0.0,0.0,0.0,0.0,0.0,0.0,0.0,0.0,0.0,-0.2909,-0.3301,-0.3527,-0.3722,-0.3942,-0.3943,-0.4063,-0.4202,-0.4362,-0.4131,-0.4045,-0.3978,-0.341,-0.2997,-0.288,-0.2468,-0.2333,-0.248,-0.2354,-0.2517,-0.2526,-0.2504,-0.2526,-0.2725,-0.3452,-0.3731,-0.386,-0.4689,-0.5121,-0.5474,0.0,-0.6779,-0.7311,-0.8545,-0.9105,-0.9413,-1.0502,-1.1099,-1.1643,-1.2949,-1.4043,-1.5283,-1.674,-1.7655,-1.8483,-1.9424,-2.0068,-2.0528,-2.0409,-1.916,-1.822,-1.8818,-1.8569,-1.8548,-2.0182,-2.2774,-2.5405,-2.741,-2.8535,-2.9878,-3.1579,-3.1702,-3.1912,-3.2664,-3.2878,-3.3202,-3.3766,-3.6302,-3.8227,-3.9139,-4.0488,-4.1697,-4.2604,-4.4044,-4.5565,-4.7077,-4.8643,-4.9872,-5.0842,-5.2182,-5.3027,-5.3426,-5.3981,-5.4615,-5.5134,-5.5636,-5.5553,-5.5208,-5.5017,-5.4593,-5.3909,-5.3651,-5.3981,-5.4606,-5.4727,-5.4737,-5.4695,-5.3943,-5.2656,-5.115,0.0,0.0,0.0,0.0,0.0,0.0,0.0,0.0,0.0,0.0,0.0,0.0,0.0,0.0,0.0,0.0,0.0,-0.3291,-0.35,-0.3673,-0.3752,-0.3856,-0.397,-0.4087,-0.4207,-0.3983,-0.3905,-0.3842,-0.3156,-0.2909,-0.2822,-0.2419,-0.2292,-0.2303,-0.2322,-0.2337,-0.2346,-0.2326,-0.2346,-0.2388,-0.3242,-0.351,-0.349,-0.4709,-0.5269,0.0,-0.6302,-0.6777,-0.7413,-0.863,-0.9176,-0.9571,-1.0729,-1.1502,-1.2302,-1.4152,-1.5052,-1.5693,-1.7292,-1.8238,-1.9071,-2.0241,-2.1018,-2.1529,-2.1567,-2.0241,-1.9173,-2.0178,-1.868,-1.8002,-2.0244,-2.252,-2.4884,-2.7395,-2.8517,-2.9827,-3.2035,-3.2404,-3.3005,-3.4445,-3.4471,-3.4735,-3.5525,-3.7249,-3.8262,-3.8217,-3.9647,-4.1076,-4.2192,-4.4176,-4.6043,-4.7864,-4.9582,-5.093,-5.1693,-5.2865,-5.3719,-5.4242,-5.4973,-5.55,-5.588,-5.6201,-5.6168,-5.5748,-5.5716,-5.5457,-5.5053,-5.4737,-5.5402,-5.6593,-5.6415,-5.6743,-5.7089,-5.5988,-5.5066,-5.4185,0.0,0.0,0.0,0.0,0.0,0.0,0.0,0.0,0.0,0.0,0.0,0.0,0.0,0.0,0.0,0.0,0.0,0.0,-0.3196,-0.3385,-0.3657,-0.3834,-0.3847,-0.3905,-0.4019,-0.4027,-0.3832,-0.3546,-0.3286,-0.2933,-0.2601,-0.2329,-0.221,-0.2238,-0.2238,-0.2255,-0.2283,-0.2281,-0.2296,-0.2319,-0.3147,-0.339,-0.348,-0.447,-0.5139,-0.5635,-0.6085,-0.6812,-0.7779,-0.8605,-0.9405,-1.0036,-1.0924,-1.1935,-1.3257,-1.4929,-1.5434,-1.5849,-1.8036,-1.8788,-1.932,-2.1227,-2.2031,-2.2445,-2.2804,-2.1476,-2.0235,-2.0948,-1.9607,-1.9228,-2.1846,-2.2751,-2.4138,-2.7437,-2.8424,-2.9711,-3.2427,-3.3486,-3.5024,-3.7919,-3.7254,-3.7616,-3.9931,-3.9879,-3.921,-3.804,-3.9231,-4.0954,-4.2951,-4.4705,-4.6861,-4.9931,-5.0508,-5.1635,-5.3377,-5.3465,-5.4214,-5.5773,-5.6027,-5.6395,-5.6726,-5.6311,-5.6228,-5.6543,-5.626,-5.6344,-5.6593,-5.6592,-5.7,-5.7573,-5.8196,-5.8697,-5.9081,-5.8323,-5.8012,-5.7428,0.0,0.0,0.0,0.0,0.0,0.0,0.0,0.0,0.0,0.0,0.0,0.0,0.0,0.0,0.0,0.0,0.0,0.0,-0.3363,-0.3029,-0.295,-0.3253,-0.3446,-0.3526,-0.3837,-0.3679,-0.3362,-0.3137,-0.2761,-0.2407,-0.2194,-0.2089,-0.2114,-0.2144,-0.2144,-0.2161,-0.2187,-0.2409,-0.254,-0.2569,-0.3199,-0.3437,-0.3551,-0.4263,-0.482,-0.5218,-0.5782,-0.671,-0.7766,-0.8762,-0.998,-1.1261,-1.2063,-1.2926,-1.3888,-1.5161,-1.6132,-1.7008,-1.8547,-1.9615,-2.0634,-2.1467,-2.2251,-2.2727,-2.2445,-2.2227,-2.1869,-2.0956,-2.2393,-2.4878,-2.8535,-2.8416,-2.9005,-3.2703,-3.3309,-3.3826,-3.5135,-3.6162,-3.6814,-3.6859,-3.7868,-3.891,-4.013,-3.954,-3.9396,-4.0049,-4.0871,-4.2128,-4.4222,-4.5574,-4.7504,-5.0022,-5.1125,-5.2124,-5.3113,-5.3813,-5.4422,-5.5069,-5.5153,-5.5493,-5.6059,-5.5975,-5.6178,-5.6777,-5.6831,-5.7255,-5.7789,-5.869,-5.9655,-6.0536,-6.0836,-6.1204,-6.1461,-6.0116,-5.946,-5.8939,0.0,0.0,0.0,0.0,0.0,0.0,0.0,0.0,0.0,0.0,0.0,0.0,0.0,0.0,0.0,0.0,0.0,0.0,0.0,-0.2962,-0.2762,-0.2918,-0.2973,-0.3029,-0.3307,-0.3137,-0.2951,-0.2872,-0.2633,-0.2421,-0.2228,-0.2122,-0.2022,-0.205,-0.205,-0.206,-0.2075,-0.2294,-0.2415,0.0,0.0,-0.3506,-0.375,-0.4309,-0.4872,-0.5298,-0.6107,-0.7247,-0.8613,-0.9582,-1.0779,-1.2081,-1.3146,-1.3943,-1.4727,-1.6134,-1.6897,-1.7524,-1.9233,-2.0221,-2.1157,-2.2108,-2.3107,-2.3757,-2.2911,-2.3388,-2.3825,-2.388,-2.7377,-3.0595,-3.1334,-3.1455,-3.1939,-3.3777,-3.4489,-3.5419,-3.6814,-3.7388,-3.7843,-3.865,-3.9237,-4.0107,-4.1286,-4.1466,-4.1851,-4.2917,-4.2553,-4.3101,-4.4935,-4.6305,-4.7913,-4.9839,-5.118,-5.239,-5.3465,-5.4528,-5.5144,-5.5429,-5.5429,-5.5622,-5.6007,-5.5751,-5.6135,-5.6893,-5.7441,-5.8442,-5.9741,-6.0771,-6.1904,-6.2921,-6.2889,-6.3186,-6.3474,-6.1963,-6.1366,-6.1163,0.0,0.0,0.0,0.0,0.0,0.0,0.0,0.0,0.0,0.0,0.0,0.0,0.0,0.0,0.0,0.0,0.0,0.0,0.0,0.0,-0.2706,-0.2537,-0.2545,-0.2568,-0.2607,-0.2613,-0.2658,-0.2739,-0.2513,-0.2438,-0.2512,-0.2036,-0.1933,-0.2081,-0.1959,-0.1956,-0.1952,-0.2312,-0.2426,-0.254,-0.3103,-0.3561,-0.3914,0.0,-0.5118,-0.5796,-0.6754,-0.8015,-0.9625,-1.0707,-1.1673,-1.2542,-1.3702,-1.4639,-1.5413,-1.7077,-1.7457,-1.7888,-1.9905,-2.0797,-2.1454,-2.2821,-2.4199,-2.5039,-2.4482,-2.5391,-2.6787,-2.8641,-3.27,-3.5072,-3.2476,-3.2955,-3.3648,-3.3502,-3.4487,-3.6039,-3.8262,-3.809,-3.8818,-4.1389,-4.1029,-4.1157,-4.2955,-4.4117,-4.5042,-4.5847,-4.4598,-4.4463,-4.5857,-4.7275,-4.8646,-4.9974,-5.1322,-5.2729,-5.4103,-5.5197,-5.5922,-5.6176,-5.6369,-5.6316,-5.6252,-5.6103,-5.6367,-5.714,-5.8204,-5.9762,-6.1719,-6.2733,-6.3713,-6.4627,-6.4527,-6.4742,-6.5084,-6.3708,-6.3407,-6.3417,0.0,0.0,0.0,0.0,0.0,0.0,0.0,0.0,0.0,0.0,-0.2286,-0.2988,0.0,0.0,0.0,0.0,0.0,0.0,0.0,0.0,0.0,-0.2445,-0.2273,-0.2296,-0.2513,-0.2549,-0.2486,-0.2317,-0.2317,-0.2119,-0.1932,-0.1844,-0.1858,-0.1864,-0.1864,-0.1966,-0.2167,-0.2474,-0.277,-0.328,-0.3597,-0.4029,-0.4466,-0.4958,0.0,0.0,-0.7762,-0.8845,-0.9647,-1.107,-1.1862,-1.2373,-1.3577,-1.4381,-1.5248,-1.6588,-1.7569,-1.8708,-2.0331,-2.148,-2.2387,-2.3882,-2.46,-2.5564,-2.7458,-3.0564,-3.3189,-3.3592,-3.3286,-3.3591,-3.5688,-3.4568,-3.4544,-3.7884,-3.848,-3.9251,-4.1492,-4.1712,-4.1529,-4.1428,-4.1828,-4.2551,-4.3677,-4.4596,-4.5723,-4.7114,-4.7825,-4.8496,-4.9352,-4.9464,-5.0299,-5.206,-5.3159,-5.3805,-5.4103,-5.5197,-5.5805,-5.5922,-5.7021,-5.7157,-5.6439,-5.7828,-5.8261,-5.8172,-5.9869,-6.1283,-6.2465,-6.4454,-6.5101,-6.4937,-6.5847,-6.5823,-6.5107,-6.471,-6.447,-6.4377,0.0,0.0,0.0,0.0,0.0,0.0,0.0,0.1954,0.1394,0.0105,-0.1252,-0.2266,-0.273,-0.3128,-0.3433,0.0,0.0,0.0,0.0,0.0,0.0,0.0,-0.2594,-0.251,-0.2345,-0.2345,-0.2267,-0.1995,0.0,-0.1892,-0.1795,-0.181,-0.1931,-0.2271,-0.2158,-0.2374,-0.2912,-0.3083,-0.3371,-0.3877,-0.4163,-0.4706,-0.5384,-0.5495,0.0,0.0,-0.8655,-0.9523,-1.0185,-1.123,-1.202,-1.2723,-1.3851,-1.4696,-1.5533,-1.6744,-1.7926,-1.9252,-2.0576,-2.134,-2.2298,-2.394,-2.4996,-2.6031,-2.7529,-3.1401,-3.462,-3.4793,-3.4433,-3.4413,-3.5898,-3.5604,-3.5855,-3.822,-3.9228,-4.0235,-4.1476,-4.2192,-4.2361,-4.1923,-4.2475,-4.2997,-4.3623,-4.5074,-4.631,-4.7335,-4.8624,-4.9611,-4.9999,-5.0541,-5.1756,-5.3908,-5.4466,-5.5162,-5.6326,-5.6646,-5.7085,-5.7644,-5.8083,-5.8032,-5.7624,-5.8414,-5.9004,-5.937,-6.0907,-6.23,-6.3425,-6.521,-6.5783,-6.553,-6.5827,-6.5861,-6.5579,-6.5125,-6.5009,-6.4972,0.0,0.0,0.0,0.0,0.0,0.0,0.0,0.2258,0.1704,0.1065,-0.0106,-0.1147,-0.2159,-0.2764,-0.3168,0.0,0.0,0.0,0.0,0.0,0.0,0.0,0.0,0.0,-0.2066,0.0,0.0,-0.1785,-0.1785,0.0,0.0,0.0,0.0,0.0,-0.258,-0.2905,-0.3658,-0.3622,-0.4022,0.0,0.0,-0.5435,-0.6348,0.0,0.0,0.0,0.0,-1.0116,-1.083,-1.1458,-1.2205,-1.3166,-1.4013,-1.4942,-1.5849,-1.6979,-1.8237,-1.9468,-2.0588,-2.1408,-2.2442,-2.4139,-2.5612,-2.6902,-2.7873,-3.1152,-3.3908,-3.4137,-3.4335,-3.4506,-3.47,-3.5046,-3.5754,-3.7045,-3.8342,-3.9625,-4.0707,-4.1585,-4.2188,-4.2706,-4.2886,-4.3228,-4.3807,-4.5128,-4.6441,-4.7559,-4.9334,-5.0442,-5.087,-5.2152,-5.3814,-5.5778,-5.5986,-5.6878,-5.8406,-5.83,-5.8652,-5.9287,-5.915,-5.9061,-5.8995,-5.9405,-6.0032,-6.0725,-6.2042,-6.3326,-6.4421,-6.5513,-6.6095,-6.6029,-6.5715,-6.5765,-6.5942,-6.512,-6.4839,-6.4949,0.0,0.0,0.0,0.0,0.0,0.0,0.0,0.2666,0.2451,0.1385,0.0539,-0.0109,-0.0434,-0.1926,-0.2863,0.0,0.0,0.0,0.0,0.0,0.0,0.0,0.0,0.0,0.0,0.0,0.0,-0.1753,-0.1753,0.0,0.0,0.0,0.0,0.0,0.0,-0.3088,-0.3749,-0.3802,0.0,0.0,0.0,0.0,0.0,0.0,0.0,0.0,0.0,-1.0442,-1.1152,-1.2006,-1.2786,-1.3451,-1.3854,-1.4691,-1.5905,-1.6805,-1.7927,-1.9256,-2.0577,-2.2222,-2.3828,-2.4809,-2.6589,-2.8685,-3.0702,-3.1558,-3.2018,-3.1949,-3.1303,-3.1136,-3.2448,-3.1763,-3.2195,-3.5797,-3.5813,-3.6651,-4.0641,-4.0971,-4.1337,-4.3271,-4.3244,-4.3386,-4.444,-4.4697,-4.5816,-4.8252,-5.1054,-5.3219,-5.4236,-5.5871,-5.7168,-5.8018,-5.8627,-5.887,-5.8669,-5.915,-5.9408,-5.9316,-6.0294,-6.0546,-6.0139,-6.195,-6.2588,-6.2324,-6.3627,-6.4538,-6.5326,-6.5625,-6.5888,-6.6095,-6.6287,-6.6148,-6.5713,-6.4509,-6.3979,-6.3645,0.0,0.0,0.0,0.0,0.0,0.0,0.3142,0.2923,0.2609,0.2306,0.1327,0.0669,0.0675,-0.0448,-0.1323,-0.1923,0.0,0.0,0.0,0.0,0.0,0.0,0.0,0.0,0.0,0.0,-0.1914,-0.1749,-0.1749,0.0,0.0,0.0,0.0,0.0,0.0,-0.3688,-0.4647,-0.4632,0.0,0.0,0.0,0.0,0.0,0.0,0.0,0.0,0.0,0.0,-1.1682,-1.2202,-1.2923,-1.3638,-1.4172,-1.5074,-1.6002,-1.6425,-1.7817,-1.9377,-2.0497,-2.1795,-2.3157,-2.4978,-2.6298,-2.8389,-3.2975,-3.3639,-3.194,-2.7212,-2.619,-2.6546,-2.7479,-2.9032,-3.0867,-3.3266,-3.343,-3.4063,-3.6331,-3.7418,-3.9059,-4.1856,-4.2695,-4.3148,-4.3743,-4.4226,-4.5813,-4.9121,-5.1563,-5.3804,-5.5441,-5.6622,-5.7684,-5.8843,-5.9791,-6.0614,-6.1376,-6.1532,-6.2003,-6.2643,-6.2783,-6.2808,-6.2857,-6.3412,-6.3611,-6.3581,-6.3929,-6.4333,-6.4761,-6.5033,-6.5123,-6.5303,-6.5392,-6.5038,-6.4374,-6.3809,-6.3056,-6.2178,0.0,0.0,0.0,0.0,0.0,0.3605,0.3496,0.3171,0.2863,0.28,0.2142,0.17,0.1597,0.1262,0.0565,-0.0539,-0.151,0.0,0.0,0.0,0.0,0.0,0.0,0.0,0.0,0.0,-0.1905,-0.1737,-0.1737,-0.1942,0.0,0.0,-0.2821,-0.3577,0.0,0.0,0.0,0.0,0.0,0.0,0.0,0.0,0.0,0.0,0.0,0.0,0.0,0.0,0.0,0.0,0.0,-1.4046,-1.4674,-1.5557,-1.6308,-1.6283,-1.7741,-1.9436,-2.0563,-2.1644,-2.2808,-2.4433,-2.55,-2.7594,-3.2744,-3.2855,-2.9874,-2.3033,-2.2206,-2.2911,-2.399,-2.637,-2.8525,-3.0036,-3.0691,-3.1498,-3.2827,-3.4498,-3.6932,-4.0137,-4.1766,-4.3022,-4.3964,-4.5343,-4.7108,-4.9533,-5.172,-5.3835,-5.5627,-5.6433,-5.7588,-5.9475,-6.0767,-6.1814,-6.2619,-6.3015,-6.3609,-6.4286,-6.4098,-6.4089,-6.4295,-6.4127,-6.408,-6.3991,-6.3999,-6.4153,-6.424,-6.4426,-6.4479,-6.4342,-6.4054,-6.3498,-6.2631,-6.197,-6.1122,-6.0156,0.0,0.0,0.0,0.0,0.0,0.0,0.3496,0.3501,0.3303,0.2688,0.3191,0.3203,0.2249,0.2963,0.3065,0.1864,-0.0111,0.0,0.0,0.0,0.0,0.0,0.0,0.0,0.0,0.0,-0.1704,-0.1704,-0.1704,-0.2025,-0.2558,-0.2558,-0.2983,-0.3834,0.0,0.0,0.0,0.0,0.0,0.0,0.0,0.0,0.0,0.0,0.0,0.0,0.0,0.0,0.0,0.0,0.0,0.0,0.0,-1.6206,-1.6876,-1.6489,-1.7918,-1.9733,-2.041,-2.2007,-2.3457,-2.3064,-2.4364,-2.6468,-2.9241,-2.7798,-2.4562,-2.0329,-1.9836,-2.0922,-2.3112,-2.3871,-2.4633,-2.6371,-2.7746,-2.9288,-3.1374,-3.2962,-3.5189,-3.8291,-4.054,-4.3061,-4.6072,-4.862,-4.9919,-4.9427,-5.1593,-5.3465,-5.4606,-5.5564,-5.7338,-5.9881,-6.1785,-6.236,-6.1403,-6.2793,-6.3356,-6.3052,-6.3464,-6.3672,-6.3641,-6.4192,-6.4121,-6.3426,-6.4023,-6.4127,-6.3959,-6.3959,-6.3817,-6.3523,-6.2566,-6.167,-6.0591,-5.8759,-5.7714,-5.7263,0.0,0.0,0.0,0.0,0.0,0.0,0.0,0.3117,0.2901,0.258,0.2819,0.2923,0.2764,0.28,0.279,0.2371,0.1435,0.0,0.0,0.0,0.0,0.0,0.0,0.0,0.0,0.0,-0.1655,-0.1675,-0.1883,-0.2183,-0.2466,-0.2704,-0.3346,-0.4386,-0.4336,-0.4961,0.0,0.0,0.0,0.0,0.0,0.0,-0.8784,0.0,0.0,0.0,0.0,0.0,0.0,0.0,0.0,0.0,0.0,0.0,0.0,-1.8181,-1.9344,-2.0583,-2.0783,-2.1737,-2.2815,-2.3049,-2.3637,-2.3839,-2.2557,-2.2113,-2.1285,-1.8711,-1.9002,-2.0106,-2.1601,-2.248,-2.3336,-2.4984,-2.6004,-2.6902,-2.8088,-3.0222,-3.2575,-3.4994,-4.0802,-4.5019,-4.6155,-4.8296,-4.9668,-4.969,-5.1453,-5.304,-5.4205,-5.5131,-5.6186,-5.759,-5.9533,-6.0729,-6.1078,-6.216,-6.3111,-6.4121,-6.4159,-6.4395,-6.5014,-6.4319,-6.3994,-6.3783,-6.3241,-6.3096,-6.3164,-6.2875,-6.2421,-6.1773,-6.1096,-5.9916,-5.8524,-5.7751,-5.6825,-5.578,0.0,0.0,0.0,0.0,0.0,0.0,0.0,0.2901,0.2779,0.2668,0.2764,0.2843,0.2902,0.2835,0.2721,0.275,0.2382,0.0,0.0,0.0,0.0,0.0,0.0,0.0,-0.1028,-0.122,-0.1525,-0.1645,-0.185,-0.2048,-0.2447,-0.2684,-0.3434,-0.4598,-0.4621,-0.5248,0.0,0.0,0.0,0.0,0.0,0.0,-0.8816,0.0,0.0,0.0,0.0,0.0,0.0,0.0,0.0,0.0,0.0,0.0,0.0,0.0,-2.0499,-2.114,-2.0985,-2.1231,-2.1603,-2.1862,-2.2735,-2.2793,-2.0162,-2.0107,-2.0168,-1.8554,-1.8971,-1.9852,-2.0647,-2.1493,-2.25,-2.3679,-2.4632,-2.5558,-2.65,-2.858,-3.1317,-3.4676,-4.1101,-4.5213,-4.5255,-4.7742,-4.9831,-5.0663,-5.1668,-5.2671,-5.3495,-5.4168,-5.4785,-5.5221,-5.7494,-5.8993,-5.9527,-6.0951,-6.2115,-6.3202,-6.3516,-6.3996,-6.4505,-6.364,-6.3251,-6.3369,-6.266,-6.2279,0.0,-6.1567,-6.0899,-6.0096,-5.8956,-5.7693,-5.6347,-5.5857,-5.494,-5.3868,0.0,0.0,0.0,0.0,0.0,0.0,0.0,0.2985,0.2843,0.2621,0.3012,0.3171,0.2905,0.2947,0.2957,0.2905,0.0,0.0,0.0,0.0,0.0,0.0,0.0,0.0,-0.0,-0.0707,-0.1213,-0.162,-0.162,-0.1941,-0.2494,-0.2494,-0.3352,-0.4676,-0.481,-0.5548,0.0,0.0,0.0,0.0,-0.8327,-0.8573,0.0,0.0,0.0,0.0,0.0,0.0,0.0,0.0,0.0,0.0,0.0,0.0,0.0,0.0,0.0,0.0,0.0,-2.0496,-2.0016,-2.0031,-2.1742,-2.293,-2.132,-2.1062,0.0,-1.9731,-1.9769,-2.0141,-2.0395,-2.1171,-2.1973,-2.2478,-2.3821,-2.5071,-2.6385,-2.8296,-3.1548,-3.6733,-4.1503,-4.4206,-4.4015,-4.7501,-5.0396,-5.1906,-5.2094,-5.2366,-5.2698,-5.2997,-5.3086,-5.3086,-5.5689,-5.7152,-5.7022,-5.9207,-6.0377,-6.0567,-6.1902,-6.2347,-6.2333,-6.222,-6.2164,-6.2164,-6.21,-6.1769,-6.1148,-6.0261,-5.9318,-5.8233,-5.6451,-5.5117,-5.413,-5.3241,-5.2487,-5.1818,0.0,0.0,0.0,0.0,0.0,0.0,0.0,0.0,0.0,0.0,0.2957,0.3008,0.3157,0.2789,0.2592,0.0,0.0,0.0,0.0,0.0,0.0,0.0,0.0,0.0,-0.0,-0.0202,-0.0712,-0.1651,-0.165,-0.1976,-0.2541,-0.2753,-0.3501,-0.468,-0.4767,-0.5505,0.0,0.0,0.0,0.0,-0.7898,-0.8075,0.0,0.0,0.0,0.0,-1.1236,-1.2119,0.0,0.0,0.0,0.0,0.0,0.0,0.0,0.0,-2.1346,-2.1603,-2.156,0.0,-1.9933,-2.019,-2.0523,-2.0942,0.0,-2.2337,-2.2316,-2.1274,-2.0559,-2.0662,-2.2356,-2.2113,-2.1707,-2.2182,-2.3083,-2.4146,-2.5597,-3.0487,-3.5512,-3.9697,-4.3349,-4.5851,-4.691,-4.8625,-5.0383,-5.187,-5.2154,-5.2366,-5.2698,-5.3144,-5.3144,-5.2819,-5.3495,-5.4421,-5.5566,-5.6493,-5.7562,-5.8644,-5.8711,-5.9318,-6.0394,-6.0036,-6.0114,-6.0566,-6.0517,-6.0034,-5.9377,-5.8763,-5.7525,-5.5842,-5.4909,-5.3711,-5.249,-5.2246,-5.1449,-5.0537,0.0,0.0,0.0,0.0,0.0,0.0,0.0,0.0,0.0,0.0,0.0,0.2857,0.303,0.2547,0.0,0.0,0.0,0.0,0.0,0.0,0.0,0.0,0.0,0.1314,0.0707,0.0202,-0.0304,-0.0923,-0.1447,-0.1892,-0.2265,-0.2588,-0.3371,-0.4405,-0.477,-0.5337,0.0,0.0,0.0,-0.6912,-0.757,0.0,0.0,0.0,0.0,0.0,-1.1345,-1.2228,0.0,-1.3794,-1.5024,-1.6592,0.0,0.0,0.0,0.0,-2.1186,-2.1615,-2.1676,-2.1892,-2.239,-2.3786,-2.3206,-2.2496,-2.356,-2.4067,-2.4128,-2.3406,-2.3662,-2.399,-2.4321,-2.3651,-2.3099,-2.3296,-2.312,-2.4181,-2.7683,-3.3115,-3.7762,-4.0849,-4.4044,-4.6445,-4.7983,-4.933,-5.0544,-5.1536,-5.1666,-5.1759,-5.1909,-5.2147,-5.2082,-5.1509,-5.1509,-5.2305,-5.4175,-5.4538,-5.5189,-5.6053,-5.6582,-5.7047,-5.7592,-5.7567,-5.7883,-5.8445,-5.8304,-5.7915,-5.7251,-5.6678,-5.5586,-5.4052,-5.3224,-5.2367,-5.1356,-5.1263,-5.0603,-4.9698,0.0,0.0,0.0,0.0,0.0,0.0,0.0,0.0,0.0,0.0,0.0,0.0,0.0,0.0,0.0,0.0,0.0,0.0,0.0,0.0,0.0,0.0,0.1624,0.1622,0.1516,0.0606,0.0101,-0.0,-0.1137,-0.1806,-0.1867,-0.2311,-0.3022,-0.4014,-0.4793,-0.5186,-0.5335,-0.5624,-0.597,-0.6384,-0.7248,0.0,0.0,0.0,0.0,0.0,0.0,0.0,0.0,-1.3857,-1.5305,-1.7015,-1.7617,0.0,0.0,0.0,0.0,0.0,-2.1976,-2.3367,-2.547,-2.8115,-2.7055,-2.5461,-2.6109,-2.6314,-2.6201,-2.6136,-2.7403,-2.8058,-2.6398,-2.5788,-2.54,-2.4944,-2.4175,-2.5703,-3.1418,-3.5199,-3.8517,-4.1363,-4.4257,-4.6462,-4.7828,-4.9455,-5.0704,-5.1143,-5.1301,-5.1273,-5.1182,-5.1152,-5.0908,-5.0208,-5.0208,-5.0968,-5.2518,-5.2873,-5.3151,-5.3387,-5.4535,-5.4919,-5.4662,-5.5234,-5.575,-5.6061,-5.6163,-5.5738,-5.508,-5.46,-5.3615,-5.245,-5.169,-5.1011,-5.0537,-5.0316,-4.9737,-4.9094,0.0,0.0,0.0,0.0,0.0,0.0,0.0,0.0,0.0,0.0,0.0,0.0,0.0,0.0,0.0,0.0,0.0,0.0,0.0,0.0,0.0,0.1658,0.1655,0.1437,0.091,0.0808,0.0407,-0.0,-0.1264,-0.1839,-0.19,-0.1928,-0.2631,-0.3676,-0.4341,-0.4812,-0.5202,-0.5327,-0.5607,-0.6071,-0.6609,0.0,0.0,0.0,0.0,0.0,0.0,0.0,0.0,-1.3466,-1.4653,-1.6082,-1.6199,0.0,0.0,0.0,0.0,0.0,-2.3323,-2.474,-2.6447,-2.8322,-2.7811,-2.7333,-2.9425,-2.9064,-2.8655,-2.9641,-2.9635,-2.9399,-2.9299,-2.8416,-2.7369,-2.6429,-2.7538,-3.0466,-3.6105,-3.5568,-3.6843,-4.2929,-4.5203,-4.6587,-4.7162,-4.9359,-5.0773,-5.116,-5.1446,-5.1727,-5.185,-5.2002,-5.1758,-5.1086,-5.1056,-5.0756,-5.0155,-5.0515,-5.0896,-5.1268,-5.1552,-5.2209,-5.3016,-5.3395,-5.4028,-5.4902,-5.5118,-5.4449,-5.3347,-5.3259,-5.2111,-5.0464,-5.025,-4.996,-4.9502,-4.9178,-4.861,-4.7874,0.0,0.0,0.0,0.0,0.0,0.0,0.0,0.0,0.0,0.0,0.0,0.0,0.0,0.0,0.0,0.0,0.0,0.0,0.0,0.0,0.1838,0.2004,0.179,0.1567,0.1334,0.1025,0.0624,-0.0,-0.0544,-0.1227,-0.1844,-0.1858,-0.2435,-0.3446,-0.364,-0.4136,-0.4702,-0.4746,-0.5263,-0.6051,0.0,0.0,0.0,0.0,0.0,0.0,0.0,0.0,0.0,0.0,-1.4308,-1.5848,-1.5681,0.0,0.0,0.0,0.0,0.0,-2.4258,-2.4865,-2.582,-2.9095,-2.9748,-2.9854,-3.1197,-3.1148,-3.1016,-3.1734,-3.1709,-3.1688,-3.1797,-3.2105,-3.1932,-3.1125,-3.3309,-3.6297,-4.0149,-4.0149,-4.0512,-4.2834,-4.5037,-4.6823,-4.7941,-4.9397,-5.0397,-5.0882,-5.1259,-5.1359,-5.1273,-5.1425,-5.1119,-5.0083,-5.0053,-4.9543,-4.8558,-4.9284,-4.9727,-4.9846,-5.0106,-5.0645,-5.1441,-5.1917,-5.2358,-5.2879,-5.329,-5.273,-5.1477,-5.1889,-5.1091,-4.9571,-4.9473,-4.9178,-4.8838,-4.8443,-4.78,-4.7127,0.0,0.0,0.0,0.0,0.0,0.0,0.0,0.0,0.0,0.0,0.0,0.0,0.0,0.0,0.0,0.0,0.0,0.0,0.0,0.1975,0.1853,0.2027,0.1818,0.1699,0.1663,0.1361,0.0853,0.0438,0.0112,-0.0574,-0.1659,-0.1778,-0.2232,-0.3003,-0.2954,-0.3463,-0.4182,-0.4329,-0.4985,-0.5937,0.0,0.0,0.0,0.0,0.0,0.0,0.0,0.0,0.0,0.0,0.0,0.0,0.0,0.0,0.0,-1.888,-1.9894,-2.1508,-2.392,-2.4811,-2.5877,-2.8927,-3.0701,-3.176,-3.1952,-3.2427,-3.2809,-3.305,-3.3402,-3.3626,-3.3738,-3.5331,-3.6657,-3.6395,-3.9188,-4.1789,-4.3506,-4.4756,-4.4997,-4.3783,-4.5277,-4.7161,-4.8966,-4.9478,-5.0106,-5.109,-5.1225,-5.1176,-5.1031,-5.1213,-5.0784,-4.9499,-4.9438,-4.8956,-4.7794,-4.8711,-4.9102,-4.901,-4.9543,-5.0096,-5.0512,-5.0861,-5.1192,-5.1404,-5.1815,-5.1276,-5.0234,-5.0787,-5.015,-4.9038,-4.8808,-4.8505,-4.8154,-4.7455,-4.681,-4.6155,0.0,0.0,0.0,0.0,0.0,0.0,0.0,0.0,0.0,0.0,0.0,0.0,0.0,0.0,0.0,0.0,0.0,0.0,0.0,0.1998,0.1765,0.1707,0.1731,0.172,0.1663,0.1715,0.1745,0.175,0.0565,-0.035,-0.1084,-0.1687,-0.2031,-0.2351,-0.2661,-0.3072,-0.3689,-0.4079,-0.4746,-0.5468,-0.5941,0.0,0.0,0.0,0.0,0.0,0.0,0.0,0.0,0.0,0.0,0.0,0.0,0.0,-1.6381,-1.726,-1.8148,-1.9427,-2.1404,-2.4965,-2.7864,-2.6447,-2.9126,-3.2134,-3.1847,-3.2427,-3.3194,-3.3838,-3.4143,-3.4496,-3.471,-3.7519,-4.0057,-4.1007,-4.379,-4.5927,-4.6082,-4.7092,-4.7873,-4.7864,-4.7055,-4.7322,-4.9578,-4.9753,-5.0406,-5.2263,-5.1897,-5.1727,-5.2154,-5.2426,-5.2021,-5.0925,-5.0832,-5.0097,-4.8552,-4.8865,-4.8863,-4.8521,-4.9597,-5.0266,-5.072,-5.0512,-5.0769,-5.1376,-5.1128,-5.0629,-5.0048,-5.0048,-4.9328,-4.8249,-4.8249,-4.7906,-4.7296,-4.6251,-4.5422,-4.4673,0.0,0.0,0.0,0.0,0.0,0.0,0.0,0.0,0.0,0.0,0.0,0.0,0.0,0.0,0.0,0.0,0.0,0.0,0.0,0.2103,0.1977,0.1734,0.1744,0.174,0.1718,0.1757,0.1806,0.1862,0.0595,-0.012,-0.0362,-0.1434,-0.2005,-0.2089,-0.2397,-0.2934,-0.3586,-0.4228,-0.5008,-0.5926,-0.6116,-0.7006,0.0,0.0,0.0,0.0,0.0,0.0,0.0,0.0,-1.1765,-1.2771,-1.292,-1.4219,-1.5783,-1.6588,-1.7669,-1.9047,-2.1525,-2.2909,-2.3972,-2.5117,-2.6051,-2.7303,-3.0218,-3.1799,-3.2819,-3.3551,-3.4019,-3.4752,-3.6289,-3.8541,-4.056,-4.1683,-4.3625,-4.5241,-4.5579,-4.6718,-4.7906,-4.8712,-4.8543,-4.8868,-5.0445,-5.064,-5.122,-5.2575,-5.2342,-5.2486,-5.3131,-5.3034,-5.2653,-5.1864,-5.1716,-5.0894,-4.9281,-4.953,-4.9372,-4.8892,-4.9345,-4.9687,-5.0195,-4.9653,-4.9805,-5.0244,-5.0354,-5.0106,-4.9666,-4.9885,-4.9497,-4.8752,-4.8324,-4.8219,-4.8077,-4.7486,-4.6084,-4.463,0.0,0.0,0.0,0.0,0.0,0.0,0.0,0.0,0.0,0.0,0.0,0.0,0.0,0.0,0.0,0.0,0.0,0.0,0.2356,0.222,0.2085,0.1735,0.1854,0.1858,0.1749,0.1779,0.1835,0.1917,0.1101,0.0367,-0.0,-0.095,-0.1406,-0.1621,-0.204,-0.2588,-0.3275,-0.4021,-0.4793,-0.5592,-0.6015,-0.6906,0.0,0.0,0.0,0.0,0.0,0.0,0.0,0.0,-1.0984,-1.1942,-1.2319,-1.3511,-1.4841,-1.5589,-1.6457,-1.7674,-1.9858,-2.0232,-2.0442,-2.2534,-2.2892,-2.3763,-2.7362,-2.971,-3.1436,-3.2221,-3.345,-3.4881,-3.7146,-3.9117,-4.0621,-4.1742,-4.3263,-4.4467,-4.5158,-4.613,-4.7431,-4.901,-4.9603,-5.027,-5.1371,-5.1575,-5.2107,-5.3109,-5.3164,-5.3373,-5.3836,-5.3734,-5.3315,-5.2496,-5.2293,-5.1382,-4.985,-4.9839,-4.9643,-4.9164,-4.9081,-4.931,-4.9823,-4.9211,-4.9264,-4.9719,-4.9638,-4.9663,-4.9928,-4.9772,-4.9364,-4.8736,-4.8624,-4.8503,-4.8391,-4.747,-4.6085,-4.4774,0.0,0.0,0.0,0.0,0.0,0.0,0.0,0.0,0.0,0.0,0.0,0.0,0.0,0.0,0.0,0.0,0.0,0.0,0.2694,0.2356,0.2099,0.1707,0.2059,0.2077,0.1858,0.1779,0.1824,0.1885,0.1947,0.1348,-0.0,-0.0,-0.0353,-0.1058,-0.1594,-0.2038,-0.241,-0.344,-0.3975,-0.4142,-0.5499,-0.6289,-0.6826,0.0,0.0,0.0,0.0,0.0,0.0,0.0,-1.036,-1.1429,-1.1816,-1.2467,-1.3244,-1.4016,-1.4497,-1.49,-1.5706,-1.7035,-1.8199,-1.8232,-2.0168,-2.2288,-2.3059,-2.6032,-2.892,-2.993,-3.2539,-3.5228,-3.7339,-3.9217,-4.0625,-4.1678,-4.2962,-4.4182,-4.484,-4.5748,-4.7044,-4.916,-5.0276,-5.1237,-5.2141,-5.2454,-5.3114,-5.4062,-5.4213,-5.4205,-5.414,-5.4527,-5.4135,-5.2753,-5.2496,-5.1639,-4.9987,-4.9722,-4.9434,-4.9194,-4.8893,-4.9115,-4.9722,-4.9239,-4.9408,-4.9983,-4.905,-4.9462,-5.0658,-4.9631,-4.8779,-4.8299,-4.8912,-4.869,-4.791,-4.591,-4.5105,-4.4914,0.0,0.0,0.0,0.0,0.0,0.0,0.0,0.0,0.0,0.0,0.0,0.0,0.0,0.0,0.0,0.0,0.0,0.0,0.2694,0.2775,0.2524,0.1845,0.2048,0.204,0.1718,0.1748,0.1578,0.1296,0.0842,0.0359,-0.0,-0.0,-0.0116,-0.0342,-0.0912,-0.1593,-0.2487,-0.3395,-0.4286,-0.5043,-0.5639,-0.6532,-0.7382,0.0,0.0,0.0,0.0,0.0,0.0,0.0,0.0,0.0,-1.1816,-1.2175,-1.2597,-1.3641,-1.3979,-1.4117,-1.5119,-1.597,-1.6357,-1.5659,-1.7303,-1.9063,-1.8887,-2.2236,-2.6213,-2.9294,-3.1622,-3.3956,-3.6841,-3.8744,-4.0342,-4.1045,-4.2713,-4.3938,-4.4229,-4.5573,-4.6824,-4.8042,-4.9205,-5.043,-5.1787,-5.2373,-5.321,-5.4446,-5.3999,-5.4013,-5.4699,-5.413,-5.3678,-5.3475,-5.3184,-5.2486,-5.1184,-5.0575,-5.0244,-5.0228,-4.9484,-4.8993,-4.8865,-4.8182,-4.8239,-4.9023,-4.8498,-4.9347,-5.0857,-5.0937,-5.0617,-5.002,-5.0127,-4.9861,-4.9291,-4.8786,-4.8133,-4.7623,0.0,0.0,0.0,0.0,0.0,0.0,0.0,0.0,0.0,0.0,0.3589,0.3589,0.0,0.0,0.0,0.0,0.0,0.0,0.0,0.2861,0.2611,0.1824,0.2015,0.2004,0.1688,0.1729,0.155,0.0907,0.0348,-0.0,-0.0,-0.0,-0.0,-0.0,-0.0344,-0.1267,-0.2659,-0.3246,-0.3923,-0.48,-0.5541,-0.6198,-0.7006,0.0,0.0,0.0,0.0,0.0,0.0,0.0,0.0,0.0,-1.2144,-1.2407,-1.2822,-1.4063,-1.4294,-1.414,-1.4446,-1.5074,-1.5576,-1.5035,-1.5782,-1.6794,-1.7214,-2.0244,-2.4361,-2.882,-3.0753,-3.2738,-3.6265,-3.8377,-3.9897,-4.0727,-4.2126,-4.328,-4.4173,-4.529,-4.6559,-4.7755,-4.8983,-5.0348,-5.1677,-5.2437,-5.3366,-5.4641,-5.4162,-5.4218,-5.4792,-5.4137,-5.3689,-5.3584,-5.3321,-5.2537,-5.1417,-5.0577,-5.0169,-5.0124,-4.9149,-4.8736,-4.8733,-4.836,-4.86,-4.9258,-4.927,-4.9706,-5.0338,-5.1005,-5.1005,-5.0559,-5.0877,-5.0831,-5.0426,-5.0117,-4.9499,-4.9165,0.0,0.0,0.655,0.6102,0.0,0.0,0.0,0.0,0.0,0.0,0.3589,0.3589,0.0,0.0,0.0,0.0,0.0,0.3006,0.2629,0.2623,0.2367,0.1769,0.1968,0.1967,0.1658,0.171,0.1509,0.0849,0.044,0.0112,-0.0,-0.0,-0.0,-0.0,-0.0,-0.1055,-0.2768,-0.2962,-0.3408,-0.3872,-0.5061,-0.571,-0.607,-0.7002,0.0,0.0,0.0,0.0,0.0,0.0,0.0,0.0,-1.2699,-1.3157,-1.3746,-1.4998,-1.5169,-1.4867,-1.3882,-1.4429,-1.5407,-1.5891,-1.5411,-1.5366,-1.7272,-1.971,-2.2939,-2.7826,-2.9646,-3.1384,-3.5375,-3.7625,-3.9199,-4.0298,-4.1395,-4.2726,-4.451,-4.5309,-4.624,-4.7964,-4.9328,-5.046,-5.1677,-5.2544,-5.35,-5.4539,-5.4461,-5.4389,-5.4573,-5.4114,-5.3706,-5.3321,-5.2877,-5.2031,-5.091,-4.9902,-4.9406,-4.9136,-4.8421,-4.8375,-4.9061,-4.9337,-4.9751,-5.0311,-5.0851,-5.0551,-4.9625,-5.0458,-5.0612,-5.0378,-5.1178,-5.1562,-5.1379,-5.0357,-5.0035,-5.0108,0.0,0.0,0.6778,0.6102,0.0,0.0,0.0,0.0,0.0,0.0,0.0,0.0,0.0,0.0,0.0,0.0,0.325,0.3117,0.2957,0.27,0.2441,0.2077,0.1843,0.1728,0.1626,0.1639,0.1437,0.092,0.1397,0.099,-0.0,-0.0,-0.0,-0.0,-0.0467,-0.0941,-0.1421,-0.2476,-0.3248,-0.3981,-0.4958,-0.5606,-0.6317,-0.7174,-0.7864,0.0,0.0,0.0,0.0,0.0,0.0,0.0,-1.3997,-1.4151,-1.4174,-1.5627,-1.5419,-1.4757,-1.4407,-1.4966,-1.5643,-1.6284,-1.6193,-1.6225,-1.7497,-1.8772,-2.0683,-2.4245,-2.6779,-2.919,-3.2332,-3.5788,-3.8346,-3.8718,-4.0838,-4.3059,-4.5149,-4.5556,-4.6412,-4.7977,-4.9274,-5.0348,-5.1183,-5.1976,-5.2759,-5.371,-5.3171,-5.3128,-5.3754,-5.2884,-5.2368,-5.2215,-5.2124,-5.1574,-5.0555,-4.989,-4.9363,-4.8985,-4.8631,-4.8654,-4.9153,-4.8915,-4.9063,-4.9611,-5.0628,-5.1097,-5.1075,-5.1665,-5.1739,-5.1452,-5.2378,-5.2353,-5.1626,-5.1909,-5.2161,-5.2396,0.0,0.0,0.0,0.0,0.0,0.0,0.0,0.0,0.0,0.0,0.0,0.0,0.0,0.0,0.0,0.0,0.325,0.3117,0.3067,0.2711,0.2247,0.1892,0.177,0.1659,0.1659,0.1337,0.1126,0.0819,0.0947,0.0643,-0.0,-0.0,-0.0,-0.0,-0.0928,-0.1404,-0.1414,-0.259,-0.3396,-0.396,-0.4651,-0.5337,-0.6156,-0.7205,-0.8113,-0.8915,-0.9831,0.0,0.0,0.0,0.0,0.0,0.0,0.0,-1.6751,-1.8151,-1.7445,-1.6081,-1.5803,-1.5702,-1.5964,-1.6744,-1.7036,-1.7368,-1.8183,-1.8955,-2.0099,-2.2281,-2.5087,-2.8068,-3.0975,-3.4631,-3.7292,-3.798,-4.0098,-4.2705,-4.5501,-4.6483,-4.7323,-4.8289,-4.9106,-4.9928,-5.0989,-5.143,-5.1972,-5.2646,-5.1931,-5.1741,-5.2307,-5.122,-5.0627,-5.0783,-5.0299,-4.9897,-4.9435,-4.8884,-4.8581,-4.8381,-4.8352,-4.8784,-4.9292,-4.9239,-4.9311,-4.9631,-5.0223,-5.0537,-5.0844,-5.1013,-5.1418,-5.1829,-5.2278,-5.2455,-5.2615,-5.2649,-5.2886,-5.2886,0.0,0.0,0.0,0.0,0.0,0.0,0.0,0.0,0.0,0.0,0.0,0.0,0.0,0.0,0.3701,0.0,0.0,0.0,0.3285,0.2726,0.2162,0.1705,0.1704,0.1704,0.1705,0.1258,0.0936,0.0834,0.0312,-0.0,-0.0,-0.0,-0.011,-0.0345,-0.1264,-0.1743,-0.1894,-0.2829,-0.344,-0.3968,-0.4466,-0.5181,-0.6116,-0.7355,-0.8479,-0.9285,-1.0539,-1.1569,-1.2461,-1.3486,0.0,0.0,0.0,0.0,-1.9573,-2.0617,-1.9317,-1.7585,-1.7021,-1.6391,-1.622,-1.7198,-1.7801,-1.8407,-1.9255,-1.9657,-2.0121,-2.1224,-2.4008,-2.7122,-2.9993,-3.3273,-3.6031,-3.7425,-3.9593,-4.2391,-4.5749,-4.7458,-4.8454,-4.8626,-4.9133,-4.9816,-5.0683,-5.1017,-5.1235,-5.1591,-5.0995,-5.0669,-5.0511,-4.9533,-4.9026,-4.8981,-4.85,-4.8114,-4.815,-4.7815,-4.7624,-4.7566,-4.7866,-4.8439,-4.9285,-4.9494,-4.9663,-4.9794,-4.9669,-4.9799,-5.0049,-5.0087,-5.0795,-5.169,-5.1765,-5.2563,-5.3341,-5.2604,-5.2302,-5.1951,0.0,0.0,0.0,0.0,0.0,0.0,0.0,0.0,0.0,0.0,0.4369,0.4257,0.0,0.3924,0.3924,0.3924,0.3701,0.3784,0.416,0.0,0.0,0.1704,0.1704,0.1705,0.1813,0.1678,0.136,0.0851,0.0314,-0.0,-0.0,-0.0,-0.0563,-0.1495,-0.115,-0.1287,-0.1924,-0.2962,-0.3538,-0.3909,-0.4862,-0.5918,-0.697,-0.7637,-0.8846,-1.0362,-1.1157,-1.2144,-1.3146,-1.4054,-1.5493,0.0,0.0,0.0,-2.0189,-2.0086,-1.8985,-1.7714,-1.6882,-1.6264,-1.6193,-1.7839,-1.8331,-1.8681,-2.0121,-2.0545,-2.0622,-2.0726,-2.2639,-2.5031,-2.7599,-3.0634,-3.3897,-3.7015,-4.0281,-4.3185,-4.5357,-4.7579,-4.8927,-4.8779,-4.9945,-5.0508,-5.015,-5.0654,-5.1017,-5.1238,-5.0872,-5.0023,-4.8703,-4.8638,-4.8154,-4.7138,-4.7659,-4.7825,-4.7327,-4.7537,-4.7486,-4.6875,-4.7031,-4.7482,-4.842,-4.8381,-4.8911,-4.9794,-4.9543,-4.962,-4.9925,-5.0524,-5.1021,-5.168,-5.259,-5.3106,-5.3154,-5.109,-5.0008,-4.9226,0.0,0.0,0.0,0.0,0.0,0.0,0.0,0.0,0.0,0.0,0.0,0.4704,0.0,0.4372,0.4257,0.4257,0.4036,0.3784,0.3611,0.3613,0.3057,0.2056,0.1965,0.1975,0.1757,0.1818,0.1596,0.1408,0.0425,-0.0,-0.0,-0.0,-0.0685,-0.1957,-0.1626,-0.1645,-0.1904,-0.2598,-0.3669,-0.5018,-0.5324,-0.6181,-0.7245,-0.8557,-0.9486,-1.0414,-1.1403,-1.224,-1.2918,-1.3719,-1.5799,-1.7996,-1.8154,0.0,0.0,0.0,-1.9094,-1.7676,-1.6634,-1.6339,-1.6592,-1.7733,-1.8215,-1.8827,-2.011,-2.0359,-2.0376,-2.0918,-2.1672,-2.3007,-2.6334,-3.0203,-3.3861,-3.6909,-3.9002,-4.1069,-4.3644,-4.6326,-4.7769,-4.6839,-4.8912,-4.9898,-4.8752,-4.8832,-4.9206,-4.9968,-4.8873,-4.7941,-4.7235,-4.6356,-4.573,-4.5508,-4.5172,-4.5247,-4.598,-4.5635,-4.5831,-4.6575,-4.6746,-4.7302,-4.7938,-4.7938,-4.8299,-4.8871,-4.9055,-4.9141,-4.9411,-5.0298,-5.0896,-5.1514,-5.222,-5.281,-5.2742,-5.0173,-4.8964,-4.7912,0.0,0.0,0.0,0.0,0.0,0.0,0.0,0.0,0.0,0.0,0.0,0.0,0.0,0.0,0.0,0.0,0.4372,0.4015,0.3411,0.3672,0.3456,0.2423,0.2451,0.2244,0.1795,0.1636,0.1624,0.1764,0.0866,0.0219,-0.0,-0.0,-0.0583,-0.1757,-0.1883,-0.2012,-0.2026,-0.249,-0.3834,-0.5855,-0.6068,-0.6705,-0.7505,-0.922,-0.9981,-1.0428,-1.1318,-1.2035,-1.268,-1.3374,-1.558,-1.7848,-1.7681,-1.902,0.0,0.0,0.0,-1.7008,-1.597,-1.6127,-1.6636,-1.7026,-1.7716,-1.8583,-1.945,-1.9858,-2.0318,-2.1071,-2.1121,-2.1885,-2.4592,-2.9493,-3.401,-3.6616,-3.7931,-3.947,-4.1781,-4.4234,-4.5681,-4.5047,-4.7205,-4.83,-4.7529,-4.7184,-4.7512,-4.879,-4.6432,-4.489,-4.4942,-4.4138,-4.3721,-4.3862,-4.3024,-4.3306,-4.4796,-4.4384,-4.4925,-4.6239,-4.6616,-4.7081,-4.7703,-4.7741,-4.7905,-4.8128,-4.8544,-4.871,-4.8807,-4.9887,-5.077,-5.1189,-5.185,-5.2104,-5.1722,-4.8844,-4.704,-4.54,0.0,0.0,0.0,0.0,0.0,0.0,0.0,0.0,0.0,0.0,0.0,0.0,0.4931,0.4931,0.4931,0.4931,0.4819,0.4704,0.4474,0.4477,0.4033,0.3026,0.2919,0.0,0.1795,0.1212,0.1211,0.1793,0.1654,0.1002,-0.0,-0.0,-0.0364,-0.1229,-0.1792,-0.2276,-0.2704,-0.3026,-0.4041,-0.5534,-0.7182,-0.7872,-0.7994,-0.9342,-1.0343,-1.1004,-1.1049,-1.1553,-1.2443,-1.3374,-1.4713,-1.5955,-1.6916,-1.7929,-1.8656,0.0,0.0,0.0,-1.4641,-1.5125,-1.5883,-1.5752,-1.6855,-1.7879,-1.8138,-1.9362,-2.0724,-2.0786,-2.1306,-2.1803,-2.2009,-2.7539,-3.3093,-3.5892,-3.8081,-3.9724,-4.0294,-4.1589,-4.2924,-4.4306,-4.4786,-4.5423,-4.6398,-4.6383,-4.6926,-4.8204,-4.3628,-4.0798,-4.0768,-4.2294,-4.2735,-4.1905,-4.2574,-4.3329,-4.4117,-4.5153,-4.591,-4.6276,-4.6276,-4.6849,-4.7703,-4.7915,-4.8051,-4.8102,-4.8299,-4.856,-4.8706,-4.9931,-5.0613,-5.0921,-5.1715,-5.1206,-4.9724,-4.6455,-4.3304,-4.0298,0.0,0.0,0.0,0.0,0.0,0.0,0.0,0.0,0.0,0.0,0.0,0.0,0.0,0.5489,0.5377,0.527,0.5092,0.4874,0.4484,0.4186,0.3743,0.3033,0.2807,0.202,0.0673,0.0441,0.0441,0.0673,0.0111,-0.0452,-0.1286,-0.0358,-0.0608,-0.173,-0.2342,-0.2603,-0.2626,-0.3446,-0.4551,-0.5842,-0.704,-0.7883,-0.8616,-0.9226,-0.9674,-1.0187,-1.0635,-1.1278,-1.1944,-1.2214,-1.2871,-1.3496,-1.3601,-1.4788,-1.6113,-1.514,-1.4641,-1.4163,-1.4118,-1.4566,-1.5148,-1.5492,-1.6105,-1.6942,-1.7619,-1.849,-1.9436,-2.0497,-2.0914,-2.136,-2.2334,-2.6387,-3.068,-3.3902,-3.5785,-3.7094,-3.7975,-3.9338,-4.028,-4.034,-4.1583,-4.2485,-4.246,-4.2772,-4.2775,-4.2208,-4.1404,-4.0657,-3.9644,-4.0464,-4.1025,-4.1216,-4.116,-4.1713,-4.2963,-4.4375,-4.5331,-4.5696,-4.6059,-4.6718,-4.7649,-4.8,-4.8339,-4.8782,-4.8861,-4.8812,-4.8932,-5.0575,-5.1071,-5.0946,-5.2387,-5.1198,-4.839,-4.5357,-4.2373,-3.9362,0.0,0.0,0.0,0.0,0.0,0.0,0.0,0.0,0.6599,0.6715,0.0,0.0,0.0,0.0,0.5712,0.5382,0.5232,0.479,0.4036,0.3621,0.3184,0.2943,0.2476,0.135,-0.0565,-0.0556,-0.0667,-0.0679,-0.09,-0.1373,-0.2021,-0.1081,-0.1098,-0.1992,-0.2779,-0.2925,-0.2667,-0.375,-0.4745,-0.5792,-0.7017,-0.7878,-0.8499,-0.8865,-0.9199,-0.9612,-1.0328,-1.0955,-1.1476,-1.1587,-1.1718,-1.1914,-1.1637,-1.264,-1.3684,-1.326,-1.3154,-1.3251,-1.3571,-1.397,-1.4392,-1.479,-1.5252,-1.5923,-1.6643,-1.7118,-1.8012,-1.9805,-2.0278,-2.0781,-2.1919,-2.5426,-2.9344,-3.2611,-3.4386,-3.5571,-3.6362,-3.72,-3.7628,-3.7726,-3.8957,-3.9634,-3.9362,-3.989,-3.9666,-3.837,-3.9369,-3.9472,-3.8387,-3.8915,-3.9603,-4.0355,-4.055,-4.1128,-4.2348,-4.3747,-4.4717,-4.5331,-4.5696,-4.6577,-4.7592,-4.7892,-4.8379,-4.9014,-4.9393,-4.9314,-4.9028,-5.0563,-5.0652,-4.9761,-5.1076,-4.9154,-4.54,-4.3242,-4.055,-3.7701,0.0,0.0,0.0,0.0,0.0,0.0,0.0,0.0,0.6487,0.6715,0.0,0.0,0.0,0.0,0.0,0.5497,0.5463,0.479,0.3143,0.28,0.2709,0.2645,0.2038,0.0678,-0.1724,-0.1812,-0.1812,-0.1957,-0.1247,-0.1267,-0.2052,-0.2052,-0.1963,-0.2019,-0.2945,-0.3224,-0.2836,-0.3809,-0.4488,-0.5381,-0.7374,-0.7975,-0.7581,-0.8475,-0.904,-0.9535,-1.0127,-1.059,-1.1066,-1.1414,-1.1524,-1.1462,-1.1547,-1.1643,-1.1783,-1.2051,-1.2306,-1.2403,0.0,0.0,0.0,-1.3857,-1.4381,-1.481,-1.4932,-1.5221,-1.6343,-1.8592,-1.9531,-2.0075,-2.0601,-2.4701,-2.898,-3.2105,-3.4064,-3.549,-3.5756,-3.4978,-3.5129,-3.6871,-3.6904,-3.7014,-3.7692,-3.7816,-3.7645,-3.7146,-3.7237,-3.724,-3.6838,-3.776,-3.8611,-3.9309,-4.0975,-4.1919,-4.2257,-4.3255,-4.4275,-4.5281,-4.5306,-4.6091,-4.7592,-4.7806,-4.8234,-4.8837,-4.9941,-5.0049,-4.9303,-4.9977,-4.9049,-4.7385,-4.7554,-4.4849,-4.0763,-3.9831,-3.7542,-3.4621,0.0,0.0,0.0,0.0,0.0,0.8712,0.8263,0.8042,0.782,0.0,0.0,0.0,0.7064,0.668,0.6235,0.5825,0.5672,0.4756,0.2965,0.2965,0.2401,0.092,0.1018,0.0678,-0.046,-0.1373,-0.1843,-0.1873,-0.1769,-0.1787,-0.2052,-0.1954,-0.1973,-0.1989,-0.2868,-0.3289,-0.3355,-0.4494,-0.5272,-0.6086,-0.6837,-0.734,-0.7596,-0.8242,-0.8705,-0.8921,-0.9602,-0.9996,-1.0236,-1.077,-1.1298,-1.1604,-1.1439,-1.1002,-1.0806,-1.1298,-1.1099,-1.1142,-1.2003,0.0,0.0,0.0,0.0,0.0,-1.469,-1.5731,-1.6765,-1.7416,-1.8381,-1.9492,-2.0538,-2.381,-2.7017,-2.8811,-3.2135,-3.4511,-3.456,-3.4432,-3.4425,-3.4543,-3.4863,-3.5215,-3.5568,-3.5962,-3.6379,-3.6455,-3.6317,-3.6248,-3.6402,-3.7391,-3.8315,-3.908,-4.0481,-4.1353,-4.1733,-4.2592,-4.3409,-4.4175,-4.5204,-4.6213,-4.7277,-4.8109,-4.891,-4.9576,-4.99,-5.0097,-5.0133,-5.0826,-4.9499,-4.7053,-4.7318,-4.4357,-3.9537,-3.8873,-3.6567,-3.3804,0.0,0.0,0.9706,0.9485,0.9432,0.9356,0.891,0.8739,0.8552,0.0,0.0,0.0,0.7231,0.6869,0.6522,0.5921,0.5418,0.4159,0.2273,0.159,0.0912,0.0115,-0.0113,-0.0113,-0.0,-0.0692,-0.1396,-0.1904,-0.191,-0.1925,-0.1949,-0.2077,-0.2216,-0.2244,-0.3135,-0.3438,-0.3646,-0.4711,-0.5769,-0.6828,-0.7126,-0.7671,-0.8202,-0.8524,-0.8923,-0.9319,-0.96,-1.0161,-1.0584,-1.0578,-1.1279,-1.2149,-1.141,-1.0857,-1.0568,-1.092,-1.0399,-0.9858,-1.1226,-1.218,-1.2873,-1.3319,0.0,0.0,-1.5405,-1.6049,-1.6518,-1.6915,-1.751,-1.825,-1.9492,-2.2683,-2.5498,-2.6918,-3.0231,-3.288,-3.3595,-3.3391,-3.3182,-3.3227,-3.3525,-3.391,-3.4292,-3.4907,-3.5263,-3.5576,-3.5311,-3.5468,-3.6095,-3.6997,-3.7885,-3.8732,-3.9986,-4.088,-4.1259,-4.2114,-4.2855,-4.3733,-4.5176,-4.6238,-4.7179,-4.851,-4.9332,-4.9652,-5.0504,-5.0602,-5.0379,-5.1376,-4.9462,-4.5866,-4.5834,-4.2531,-3.765,-3.6794,-3.5142,-3.3312,0.0,0.0,0.9816,0.9485,0.9503,0.949,0.9264,0.9056,0.8916,0.0,0.8359,0.7752,0.718,0.7031,0.6768,0.5985,0.4892,0.3527,0.1569,-0.0,-0.0676,-0.0229,-0.1016,-0.1023,-0.0,-0.0,-0.0586,-0.1689,-0.1791,-0.1928,-0.1981,-0.2318,-0.246,-0.2658,-0.3333,-0.3639,-0.3823,-0.4666,-0.5908,-0.7425,-0.7917,-0.8371,-0.8802,-0.8921,-0.9456,-1.0088,-0.9985,-1.0659,-1.1441,-1.0736,-1.1675,-1.2694,-1.1551,-1.107,-1.0819,-1.0989,-0.9999,-0.9115,-1.0378,-1.1666,-1.2624,-1.2775,-1.3759,0.0,-1.6426,-1.6145,-1.5794,-1.6594,-1.6661,-1.6964,-1.8072,-2.1385,-2.4494,-2.5814,-2.8523,-3.1055,-3.2836,-3.219,-3.1741,-3.2647,-3.2659,-3.2857,-3.3552,-3.3965,-3.4227,-3.427,-3.4336,-3.4884,-3.5801,-3.6489,-3.7305,-3.8387,-3.9482,-4.0333,-4.0905,-4.1733,-4.2567,-4.3561,-4.5052,-4.6259,-4.7104,-4.8812,-4.9576,-4.9633,-5.1407,-5.1425,-5.0342,-5.1632,-4.9055,-4.4328,-4.363,-4.0253,-3.5708,-3.4532,-3.3494,-3.3195,1.0546,1.0586,1.0366,0.9816,0.9839,0.9723,0.9264,0.9286,0.9149,0.8916,0.8522,0.8164,0.8142,0.7675,0.711,0.6541,0.5537,0.4101,0.213,0.1906,0.0786,-0.1804,-0.0449,0.0226,-0.0,-0.0,-0.012,-0.0362,-0.1479,-0.1999,-0.2009,-0.238,-0.2525,-0.2569,-0.3346,-0.3769,-0.4215,-0.4747,-0.5619,-0.6838,-0.781,-0.828,-0.8506,-0.89,-0.9247,-0.9541,-1.0193,-1.0614,-1.0894,-1.2007,-1.2889,-1.3579,-1.2462,-1.1788,-1.1399,-1.0835,-1.056,-1.0393,-1.0613,-1.0873,-1.1394,-1.2499,-1.3062,0.0,-1.499,-1.5197,-1.5096,-1.5278,-1.6135,-1.689,-1.7564,-2.0501,-2.3152,-2.3948,-2.7356,-3.0578,-3.2805,-3.1948,-3.1529,-3.2469,-3.2147,-3.1827,-3.2208,-3.2226,-3.2526,-3.2886,-3.3738,-3.4549,-3.5321,-3.6289,-3.7264,-3.8105,-3.8957,-3.98,-4.0387,-4.0949,-4.1692,-4.243,-4.4543,-4.5805,-4.6552,-4.8255,-4.9735,-5.0553,-5.0895,-5.1129,-5.1388,-5.1436,-4.8364,-4.3513,-4.312,-3.9774,-3.5238,-3.4566,-3.3856,-3.3557,1.0672,1.0586,1.0366,0.9926,0.9839,0.9631,0.9367,0.9395,0.9406,0.9116,0.8581,0.8066,0.7883,0.7337,0.6755,0.6124,0.5058,0.3726,0.2129,0.1232,-0.0,-0.157,-0.205,-0.1505,-0.0,-0.0,-0.0,-0.0,-0.0999,-0.1761,-0.2041,-0.2425,-0.2701,-0.2871,-0.3415,-0.3968,-0.453,-0.513,-0.5884,-0.6794,-0.7893,-0.8408,-0.8571,-0.9115,-0.9669,-1.0205,-1.036,-1.0737,-1.1142,-1.1988,-1.2989,-1.3815,-1.3317,-1.2641,-1.1945,-1.1315,-1.11,-1.1094,-1.0796,-1.0921,-1.1347,-1.2563,-1.2749,0.0,0.0,-1.4382,-1.4697,-1.4243,-1.4995,-1.584,-1.6004,-1.8998,-2.1746,-2.284,-2.6123,-2.923,-3.1135,-3.0982,-3.088,-3.1333,-3.1304,-3.123,-3.0901,-3.1552,-3.2155,-3.2469,-3.3146,-3.4022,-3.5168,-3.6474,-3.7541,-3.8273,-3.9267,-3.9989,-4.0479,-4.0942,-4.1516,-4.2135,-4.3954,-4.5254,-4.5974,-4.8081,-4.9421,-5.023,-5.1006,-5.1317,-5.1161,-5.1245,-4.8074,-4.3195,-4.3155,-3.996,-3.5427,-3.4573,-3.3688,-3.3715,1.0696,1.0476,1.0147,0.9816,0.9615,0.9432,0.9361,0.9392,0.9307,0.9111,0.8386,0.7801,0.7459,0.6967,0.6381,0.5606,0.436,0.3143,0.2035,0.0338,-0.0562,-0.0336,-0.2786,-0.2727,0.0238,0.0364,0.0248,-0.0,-0.0629,-0.1266,-0.2072,-0.2333,-0.2746,-0.3191,-0.3631,-0.4195,-0.4885,-0.5411,-0.617,-0.6745,-0.7743,-0.8292,-0.8624,-0.9329,-1.0087,-1.0848,-1.0625,-1.1276,-1.2283,-1.2142,-1.3009,-1.4107,-1.3984,-1.3467,-1.2735,-1.2004,-1.1667,-1.1531,-1.102,-1.1295,-1.2037,-1.2586,-1.2781,-1.2816,0.0,0.0,0.0,-1.3598,-1.4038,-1.4554,-1.4604,-1.7725,-2.0617,-2.1918,-2.516,-2.7995,-2.9075,-2.9727,-3.0128,-3.0194,-3.059,-3.061,-3.0048,-3.1115,-3.2055,-3.2238,-3.2827,-3.3677,-3.5131,-3.6612,-3.7839,-3.8459,-3.9662,-4.0363,-4.0735,-4.1057,-4.1516,-4.1997,-4.3424,-4.4476,-4.5335,-4.7703,-4.9057,-4.9624,-5.1082,-5.1413,-5.0788,-5.0562,-4.7401,-4.276,-4.3147,-4.0083,-3.5419,-3.445,-3.3834,-3.4423,1.072,1.0476,1.0147,0.9816,0.9503,0.9205,0.9013,0.8921,0.8738,0.8617,0.8138,0.7704,0.7689,0.6874,0.6171,0.5621,0.4334,0.3292,0.2686,0.1964,0.1481,0.1459,0.0704,0.059,0.1585,0.1846,0.126,-0.0,-0.0,-0.0786,-0.2235,-0.2104,-0.24,-0.3008,-0.3698,-0.4277,-0.5023,-0.5039,-0.5641,-0.6421,-0.6925,-0.7597,-0.844,-0.9292,-0.965,-0.9822,-1.1294,-1.3081,-1.4432,-1.3816,-1.4199,-1.481,-1.406,-1.3991,-1.4002,-1.2792,-1.2045,-1.1565,-1.1538,-1.2042,-1.2658,-1.2772,-1.2775,-1.2736,-1.2824,0.0,-1.3752,-1.3822,0.0,-1.4426,-1.4381,0.0,0.0,-2.0884,-2.4729,-2.779,-2.8083,-2.8443,-2.9141,-3.0359,-3.0138,-2.9937,-2.9876,-3.0411,-3.11,-3.1551,-3.2879,-3.4054,-3.5034,-3.6812,-3.8042,-3.8653,-3.9706,-4.0363,-4.0735,-4.1057,-4.1402,-4.1606,-4.3075,-4.4097,-4.4689,-4.6633,-4.8315,-4.9739,-4.9916,-5.0572,-5.1139,-4.8417,-4.5088,-4.1846,-4.2721,-3.9605,-3.4557,-3.4525,-3.5572,-3.7384,1.0331,0.9994,0.9706,0.9368,0.887,0.8539,0.8646,0.8576,0.8553,0.8534,0.7837,0.7432,0.7432,0.6783,0.6084,0.5358,0.4564,0.3741,0.3017,0.2462,0.2083,0.1873,0.1194,0.1085,0.1445,0.1116,0.1014,0.1288,0.0389,-0.0264,-0.0945,-0.1486,-0.2047,-0.2503,-0.3083,-0.3652,-0.4353,-0.474,-0.5192,-0.559,-0.6187,-0.672,-0.736,-0.8726,-0.955,-1.0004,-1.2013,-1.3181,-1.3702,-1.4485,-1.4843,-1.5084,-1.5057,-1.5187,-1.5201,-1.4259,-1.2792,-1.1596,-1.164,-1.244,-1.3359,-1.2854,-1.3094,-1.3349,-1.2877,-1.3478,-1.3772,-1.3005,0.0,0.0,0.0,0.0,0.0,0.0,-2.3006,-2.5735,-2.7509,-2.7962,-2.8494,-2.947,-2.9809,-3.0088,-3.0635,-3.068,-3.1105,-3.193,-3.3197,-3.4325,-3.5474,-3.7216,-3.8477,-3.9253,-4.0081,-4.0721,-4.0942,-4.1196,-4.1287,-4.1606,-4.2501,-4.3252,-4.3863,-4.5942,-4.7504,-4.838,-4.9066,-4.9683,-4.9651,-4.6825,-4.3934,-4.1405,-4.1228,-3.8018,-3.3707,-3.5371,-3.6254,-3.7184,1.0226,0.9546,0.9058,0.9092,0.832,0.7737,0.7991,0.8055,0.8149,0.8215,0.7586,0.7052,0.7266,0.6619,0.5917,0.5342,0.457,0.3867,0.3118,0.2654,0.2263,0.1941,0.1476,0.1243,0.1381,0.0883,0.0903,0.1606,0.0926,0.0401,-0.0,-0.0691,-0.1534,-0.2267,-0.2576,-0.3016,-0.3734,-0.4135,-0.4583,-0.4953,-0.5409,-0.6118,-0.6799,-0.8136,-0.9286,-1.0409,-1.2161,-1.2711,-1.2601,-1.4191,-1.4692,-1.4772,-1.554,-1.5855,-1.5886,-1.5392,-1.3944,-1.2422,-1.2304,-1.3411,-1.4381,-1.3838,-1.3804,-1.3821,-1.3206,-1.3551,-1.3857,-1.2767,-1.2807,0.0,0.0,0.0,-1.6762,-1.9242,0.0,-2.4302,-2.7066,-2.7672,-2.8103,-2.873,-2.957,-3.0425,-3.1291,-3.1398,-3.176,-3.2752,-3.374,-3.4843,-3.6166,-3.7655,-3.8888,-3.9916,-4.0536,-4.0959,-4.1172,-4.1172,-4.1172,-4.1263,-4.1938,-4.2469,-4.2951,-4.5286,-4.6641,-4.7095,-4.7574,-4.7726,-4.7507,-4.4033,-4.1625,-4.0047,-3.9148,-3.6782,-3.4233,-3.6723,-3.78,-3.8803,1.0657,0.9232,0.8418,0.9342,0.801,0.6955,0.7174,0.7074,0.7103,0.7694,0.6995,0.6668,0.6951,0.6472,0.5778,0.5489,0.4461,0.374,0.3087,0.2412,0.2001,0.1977,0.1929,0.1935,0.1979,0.209,0.1469,0.0132,0.149,0.1382,-0.0,-0.0,-0.0853,-0.233,-0.2186,-0.2659,-0.3174,-0.3179,-0.3631,-0.4235,-0.4749,-0.5974,-0.7444,-0.7505,-0.8795,-1.0821,-1.1487,-1.1961,-1.2262,-1.2755,-1.3346,0.0,-1.481,-1.5428,-1.5958,-1.5975,-1.5385,-1.4696,-1.4014,-1.4886,-1.6186,-1.6062,-1.5202,-1.4275,-1.3959,-1.3497,-1.3368,-1.3788,-1.2795,-1.1898,-1.2008,-1.4343,-1.6676,-1.8589,-2.1704,0.0,0.0,-2.7586,-2.8096,-2.8252,-2.9595,-3.0745,-3.1468,-3.2342,-3.3124,-3.3866,-3.4733,-3.5757,-3.7069,-3.8148,-3.9463,-4.0848,-4.109,-4.1184,-4.1172,-4.1172,-4.0826,-4.0246,-4.1638,-4.216,-4.1915,-4.465,-4.6196,-4.6671,-4.4863,-4.4417,-4.4581,-3.8883,-3.6936,-3.747,-3.6166,-3.6038,-3.6784,-3.8334,-4.0983,-4.4115,1.1695,1.0134,0.8897,0.9083,0.8262,0.7391,0.6956,0.7378,0.7926,0.8342,0.7878,0.7587,0.8035,0.7426,0.6749,0.618,0.5325,0.45,0.3975,0.3215,0.2806,0.2875,0.2605,0.2486,0.2522,0.2278,0.1627,0.0687,0.07,0.0996,0.1441,0.0436,-0.0294,-0.0747,-0.1345,-0.1653,-0.197,-0.2446,-0.2899,-0.3186,-0.4331,-0.5254,-0.6233,-0.7836,-0.9475,-1.0812,-1.1637,-1.1625,0.0,-1.1873,-1.2604,-1.3542,-1.5157,-1.5568,-1.5506,-1.5859,-1.5764,-1.5415,-1.3878,-1.4806,-1.6001,-1.591,-1.513,-1.438,-1.3782,-1.3576,-1.3693,-1.3883,-1.3129,-1.2226,-1.1646,-1.3931,-1.6378,-1.8312,-2.1188,-2.4061,0.0,-2.791,-2.908,-2.9869,-3.0578,-3.13,-3.2319,-3.3124,-3.3819,-3.4507,-3.5304,-3.6332,-3.7668,-3.8415,-3.9312,-4.0646,-4.0873,-4.0979,-4.0959,-4.0889,-4.0901,-4.1117,-4.1708,-4.1864,-4.1646,-4.4585,-4.5662,-4.529,-4.6246,-4.6596,-4.6322,-4.2553,-4.1024,-4.1282,-4.0048,-3.9962,-4.0629,-4.1272,-4.2504,-4.4383,1.2725,1.1343,1.0003,0.9202,0.8396,0.772,0.7271,0.7593,0.8144,0.8736,0.8296,0.8144,0.8568,0.802,0.7484,0.7121,0.6109,0.5304,0.4705,0.3973,0.3576,0.3521,0.308,0.2963,0.3045,0.2483,0.1949,0.1423,0.1009,0.1022,0.1479,0.1044,0.0452,-0.0,-0.0609,-0.0764,-0.0767,-0.1702,-0.2009,-0.2153,-0.3463,-0.4367,-0.5482,-0.8011,-0.9716,-1.0748,0.0,-1.1203,-1.0742,-1.1316,-1.1693,-1.2589,-1.4393,-1.4458,-1.3909,-1.4835,-1.5165,-1.4876,-1.3646,-1.4441,0.0,-1.5785,-1.5311,-1.4679,-1.4164,-1.3986,-1.397,-1.3904,-1.3563,-1.2925,-1.2042,-1.3239,-1.5433,-1.822,-2.0526,-2.3276,0.0,-2.8416,-2.9554,-3.0681,-3.1197,-3.1891,-3.3024,-3.3819,-3.4531,-3.4993,-3.5722,-3.6725,-3.8063,-3.8441,-3.9347,-4.0752,-4.1006,-4.0979,-4.0983,-4.1017,-4.0999,-4.0927,-4.1364,-4.1476,-4.1524,-4.3192,-4.3651,-4.3384,-4.4235,-4.416,-4.304,-4.167,-4.0977,-4.0833,-4.1184,-4.2147,-4.3378,-4.3808,-4.5113,-4.7611,1.3637,1.2621,1.1285,0.9721,0.8482,0.7775,0.7905,0.7958,0.8103,0.8625,0.8492,0.8452,0.8701,0.8223,0.8075,0.82,0.6944,0.5869,0.5531,0.4974,0.4463,0.3999,0.363,0.3516,0.3377,0.271,0.2311,0.2194,0.2368,0.1648,-0.0,0.1517,0.1374,0.0154,-0.0,-0.0,-0.0,-0.0943,-0.1416,-0.1419,-0.2259,-0.3464,-0.5219,-0.7669,-0.9478,-1.0589,-1.0635,-1.0662,-1.0756,-1.1101,-1.0923,-1.1123,-1.2836,-1.2409,-1.1607,-1.2972,-1.3428,-1.3409,-1.3604,-1.4237,-1.5038,-1.583,-1.5759,-1.5514,-1.5151,-1.4437,-1.3852,-1.4,-1.3945,-1.3597,-1.2979,-1.2656,-1.393,-1.8038,-1.9948,-2.274,-2.782,-2.8917,-2.9574,-3.0681,-3.1505,-3.242,-3.3545,-3.4335,-3.5017,-3.562,-3.6073,-3.6956,-3.8358,-3.8386,-3.9297,-4.1279,-4.1494,-4.1482,-4.1172,-4.1496,-4.1057,-3.9991,-4.0604,-4.1076,-4.1298,-4.0443,-4.0452,-4.094,-3.923,-3.7299,-3.5427,-3.6881,-3.7249,-3.7053,-3.9661,-4.2441,-4.5086,-4.577,-4.9013,-5.3374,1.3788,1.2192,1.0754,1.0503,0.9551,0.8811,0.8649,0.8828,0.916,0.9645,0.9404,0.9371,0.9906,0.9552,0.9169,0.884,0.8113,0.7283,0.6509,0.6056,0.5564,0.4884,0.4654,0.4118,0.3563,0.3131,0.2693,0.2401,0.2279,0.153,-0.0,0.0465,0.1091,0.1876,0.0626,-0.0,-0.0157,-0.1586,-0.224,-0.2261,-0.2477,-0.3528,-0.528,0.0,-0.8748,-0.9396,-1.0793,-1.1312,-1.1226,-1.1395,-1.1286,-1.1373,-1.176,-1.0781,-0.9628,-1.1428,-1.2928,-1.4337,-1.5692,-1.5917,-1.5774,-1.5926,-1.6015,-1.5797,0.0,-1.4653,-1.4107,-1.4654,-1.371,-1.2768,-1.2574,-1.4498,-1.6783,-1.8541,-2.2369,-2.5946,-2.7921,-2.8996,-2.9901,-3.0724,-3.1505,-3.2521,-3.3744,-3.4628,-3.5307,-3.5883,-3.5787,-3.6475,-3.8038,-3.8692,-3.9561,-4.0931,-4.1742,-4.1759,-4.1148,-4.1018,-4.0732,-4.0105,-4.024,-4.036,-4.0583,-3.9577,-3.9096,-3.9222,-3.7828,-3.8418,-4.0043,-3.9872,-4.1338,-4.3774,-4.4347,-4.5795,-4.7784,-4.9307,-5.164,-5.4304,1.4487,1.2952,1.1553,1.1335,1.0904,1.0254,0.9484,0.9522,0.9844,1.0189,1.0122,1.0199,1.0558,1.0213,1.0005,0.9686,0.9038,0.8253,0.7617,0.7044,0.6417,0.5876,0.5057,0.4369,0.3966,0.3206,0.2603,0.1847,0.217,0.1866,0.1089,0.1096,0.1571,0.2515,0.158,0.0633,-0.0158,-0.1924,-0.2604,-0.2645,-0.3515,-0.4427,0.0,-0.737,-0.8337,-0.8773,-0.9829,-1.0864,-1.1555,-1.1476,-1.1525,-1.1368,-1.0456,-0.95,-0.8901,-1.1009,-1.2179,-1.348,-1.5436,-1.6018,-1.6045,-1.5932,-1.622,-1.6334,-1.5748,-1.5184,-1.4641,-1.4353,-1.3745,-1.3297,-1.3078,-1.4557,-1.6674,-1.8932,-2.3486,-2.7164,-2.7974,-2.8872,-2.9788,-3.0642,-3.1395,-3.2236,-3.2846,-3.404,-3.4823,-3.5283,-3.5527,-3.6137,-3.7269,-3.8344,-3.9462,-4.0428,-4.1461,-4.19,-4.1472,-4.1199,-4.0841,-4.0442,-4.0096,-3.9384,-3.861,-3.7017,-3.5771,-3.5018,-3.5789,-3.6672,-3.7697,-4.0626,-4.2644,-4.4115,-4.5716,-4.7395,-4.9179,-5.1172,-5.2854,-5.4433,1.5041,1.397,1.2847,1.2127,1.2037,1.1665,1.0379,1.0313,1.0512,1.0778,1.0894,1.0934,1.0685,1.0613,1.0573,1.0346,0.9584,0.9007,0.8601,0.7792,0.7009,0.6563,0.5144,0.4292,0.4183,0.3099,0.2182,0.126,0.2044,0.2357,0.2514,0.2514,0.2514,0.2515,0.2547,0.1602,-0.0161,-0.1624,-0.2314,-0.2531,-0.4741,-0.5521,-0.5491,-0.6812,-0.7743,-0.8477,-0.8457,-0.9685,-1.1173,-1.1201,-1.1206,-1.0942,-0.9467,-0.8903,-0.9054,-1.0957,-1.1438,-1.1914,-1.3733,-1.516,-1.6196,-1.6005,-1.6336,-1.6622,-1.6157,-1.6029,-1.5723,-1.4162,-1.4221,-1.4281,-1.3836,-1.4365,-1.6015,-1.9922,-2.4131,-2.7238,-2.821,-2.8726,-2.9381,-3.037,-3.1232,0.0,-3.1641,-3.3015,-3.3965,-3.4233,-3.4956,-3.558,-3.6279,-3.775,-3.8888,-3.9793,-4.0901,-4.1637,-4.1715,-4.1279,-4.0839,-4.0342,-3.9823,-3.8367,-3.6131,-3.4133,-3.2162,-3.0673,-3.3624,-3.4001,-3.3199,-4.0044,-4.243,-4.2058,-4.5626,-4.8077,-4.9754,-5.2001,-5.3266,-5.4113,1.4744,1.3833,1.3207,1.2775,1.2845,1.2632,1.1753,1.142,1.1495,1.1495,1.1248,1.1027,1.0842,1.0651,1.0411,1.0048,0.9821,0.9313,0.8387,0.8295,0.765,0.6281,0.5633,0.4913,0.3971,0.3495,0.2544,0.1276,0.1421,0.1886,0.2514,0.2514,0.2514,0.2515,0.2547,0.1617,-0.0,-0.033,-0.0502,-0.0854,-0.4351,-0.4774,-0.3764,-0.5665,-0.6997,-0.7745,-0.7645,-0.8492,-0.945,-0.9194,-0.9224,-0.9757,-1.1154,-1.0197,-0.9067,-1.0968,-1.1455,-1.1931,-1.3753,-1.5541,-1.6763,-1.6181,-1.6004,-1.6196,-1.5967,-1.6319,-1.655,-1.6137,-1.549,-1.4984,-1.447,-1.7172,-2.0395,-2.3374,-2.5816,-2.761,-2.8303,-2.8683,-2.9013,-2.9603,-3.0648,-3.1479,-3.1934,-3.2811,-3.3407,-3.3617,-3.3833,-3.4395,-3.5548,-3.6972,-3.804,0.0,-4.0287,-4.0666,0.0,-4.0056,-3.9584,-3.8698,-3.8848,-3.753,-3.5172,-3.4807,-3.3656,-3.1775,-3.234,-3.4425,-3.7594,-3.8938,-4.1893,-4.5552,-4.7192,-4.8922,-5.0563,-5.2356,-5.3835,-5.5039,1.551,1.4827,1.4431,1.4011,1.3733,1.3208,1.2706,1.1963,1.1429,1.1127,1.062,1.0296,0.9876,0.9712,0.9672,0.9585,0.8972,0.8642,0.8459,0.7693,0.6859,0.5965,0.5431,0.469,0.3907,0.3236,0.2587,0.1953,0.1449,0.1755,0.2538,0.2555,0.2545,0.2517,0.1601,0.0163,-0.1337,-0.0336,0.0,-0.1555,-0.3532,-0.3764,-0.3263,-0.444,-0.5577,-0.6305,-0.6964,-0.7306,-0.7589,-0.7287,-0.8035,-0.9296,-1.0311,-0.9716,-0.894,-1.0973,-1.1449,-1.1948,-1.3846,-1.5677,-1.6951,-1.6454,-1.6213,-1.6004,-1.6178,-1.6617,-1.6749,-1.6178,-1.575,-1.5295,-1.463,-1.7907,-2.11,-2.2518,-2.5741,-2.8251,-2.8759,-2.9279,-2.9646,-2.9892,-3.067,-3.1279,-3.147,-3.2104,-3.2669,-3.3226,-3.3471,-3.391,-3.4508,-3.5799,-3.6964,0.0,0.0,0.0,-4.0409,0.0,-3.8927,-3.7211,-3.8788,-3.723,-3.3197,-3.4956,-3.4519,-3.2592,-3.3664,-3.58,-3.8728,-4.0892,-4.36,-4.6351,-4.7389,-4.9004,-5.0717,-5.2297,-5.3843,-5.5163,1.6479,1.6099,1.5681,1.5105,1.4508,1.3783,1.3013,1.2032,1.1033,1.0584,1.0011,0.9484,0.8829,0.877,0.874,0.88,0.8081,0.7772,0.8184,0.7033,0.6171,0.5765,0.5024,0.4593,0.415,0.3292,0.2797,0.2657,0.197,0.1949,0.0,0.2593,0.2582,0.2386,0.0812,0.0,0.0,0.0,-0.1384,-0.2807,-0.286,-0.3088,-0.3134,-0.3932,-0.4506,-0.5052,-0.645,-0.6639,-0.6221,-0.645,-0.7558,-0.9173,-0.9636,-0.9582,-0.9521,-1.0978,-1.1804,-1.2509,-1.4108,-1.5798,-1.6925,-1.6522,-1.6259,-1.6181,-1.6316,-1.6701,-1.6601,-1.5766,-1.5544,-1.5134,-1.463,-1.7465,-2.0274,-2.0968,-2.4863,-2.8206,-2.9027,-2.983,-3.0211,-3.0238,-3.0878,-3.1441,-3.1421,-3.1787,-3.2343,-3.3136,-3.331,-3.3375,-3.3461,-3.4611,-3.5767,-3.6846,-3.7721,-3.8904,-4.0159,0.0,-3.7661,-3.5669,-3.7374,-3.5687,-3.143,-3.4899,-3.5522,-3.3943,-3.6455,-3.8465,-4.0074,-4.3702,-4.5723,-4.6552,-4.7445,-4.9087,-5.1099,-5.2286,-5.3822,-5.5467,1.7167,1.6816,1.6245,1.5207,1.4802,1.4107,1.2139,1.1329,1.0802,1.0727,1.0059,0.9303,0.8552,0.8426,0.814,0.7377,0.7317,0.7261,0.7041,0.6964,0.6567,0.5842,0.5417,0.4982,0.47,0.3692,0.3189,0.2688,0.2492,0.2464,0.0,0.2601,0.2615,0.2474,0.0,0.0,0.0,-0.1902,-0.2637,-0.2868,-0.3084,-0.315,-0.323,-0.4567,-0.4783,-0.4813,-0.6308,-0.6476,-0.628,-0.7416,-0.8319,-0.8999,-1.1141,-1.1582,-1.1283,-1.1509,-1.2716,-1.4326,-1.5204,-1.6331,-1.6893,-1.5963,-1.6347,-1.6689,-1.6516,-1.6634,-1.6785,-1.6276,-1.5622,-1.4967,-1.4967,-1.6444,-1.8541,-2.1199,-2.3869,-2.6442,-2.8834,-2.9816,-3.028,-3.0272,-3.1283,-3.2234,-3.2874,-3.2973,-3.3211,-3.3942,-3.282,-3.2321,-3.283,-3.3571,-3.4289,-3.5149,-3.6506,-3.7348,-3.7355,-3.5358,-3.4106,-3.3839,-3.211,-3.1229,-3.1309,-3.4759,-3.6423,-3.6754,-4.0391,-4.2989,-4.476,-4.589,-4.6686,-4.7104,-4.8027,-4.99,-5.2085,-5.2987,-5.4466,-5.6068,1.792,1.7211,1.6563,1.5937,0.0,0.0,0.0,1.1225,1.0253,0.9484,0.8726,0.803,0.7573,0.7003,0.6718,0.6718,0.6319,0.6059,0.6251,0.5997,0.5736,0.5142,0.5535,0.5428,0.4803,0.4805,0.4447,0.3909,0.3384,0.3179,0.296,0.2833,0.0,0.0,0.0,0.0512,-0.0,-0.0706,-0.1789,-0.2724,-0.2953,-0.3192,-0.3243,-0.4196,-0.4606,-0.483,-0.5929,-0.6286,-0.6283,-0.8182,-0.8731,-0.906,-0.9834,-1.0678,-1.171,-1.2782,-1.3787,-1.4319,-1.4822,-1.5506,-1.6179,-1.6117,-1.6167,-1.6215,-1.6649,-1.6631,-1.6475,-1.63,-1.5719,-1.5316,-1.5316,-1.7846,-2.0513,-2.2259,-2.5945,-2.8941,-3.0075,-3.1081,-3.1461,-3.1202,-3.2027,-3.2789,-3.3376,-3.3235,-3.3335,-3.3714,-3.284,-3.2574,-3.3258,-3.2953,-3.3194,-3.4258,0.0,-3.6265,-3.6504,-3.4975,-3.3264,-3.1501,-3.3238,-3.3158,-3.1732,-3.7277,-4.0117,-4.0779,-4.3521,-4.505,-4.5776,-4.6451,-4.7109,-4.7631,-4.7957,-4.9568,-5.1724,-5.2714,-5.425,-5.5717,1.8687,0.0,1.7171,0.0,1.5425,1.3989,1.2638,1.1704,1.0568,0.939,0.8473,0.7881,0.7145,0.639,0.6101,0.6261,0.5823,0.5544,0.6076,0.5793,0.5521,0.5261,0.5819,0.6043,0.5414,0.5763,0.5567,0.4834,0.4146,0.3594,0.3192,0.0,0.0,0.0,0.2071,0.1045,-0.0,-0.0,-0.0733,-0.2036,-0.2825,-0.3056,-0.3091,-0.4032,-0.4432,-0.5043,-0.6317,-0.6856,-0.7233,-0.9319,-1.0275,-1.0437,-1.024,-1.0717,-1.1942,-1.3918,-1.4387,-1.4373,-1.4346,-1.5077,-1.5986,-1.6133,-1.6042,-1.611,-1.653,-1.6478,-1.6261,-1.6324,-1.583,-1.5381,-1.5381,-1.7792,-2.0351,-2.2579,-2.6397,-2.9458,-3.0755,-3.2034,-3.2711,-3.2237,-3.2671,-3.3347,-3.3882,-3.374,-3.3801,-3.4288,-3.3397,-3.3055,-3.3355,-3.2714,-3.2844,0.0,0.0,0.0,-3.4807,-3.3398,-3.1417,-2.8818,-3.128,-3.2404,-3.2467,-3.9605,-4.3151,-4.3993,-4.5726,-4.6701,-4.6908,-4.7304,-4.7778,-4.8385,-4.8234,-4.954,-5.1624,-5.2402,-5.3733,-5.5282,1.9856,1.8959,1.8045,1.7475,1.6405,1.4944,1.3263,1.2709,1.224,1.1086,1.032,0.9036,0.734,0.682,0.6499,0.6499,0.6178,0.6076,0.6717,0.6727,0.6623,0.6249,0.6429,0.6463,0.6356,0.6536,0.6004,0.4941,0.4591,0.3864,0.2781,0.0,0.2799,0.2652,0.268,0.1624,-0.0,-0.0,-0.0,-0.0191,-0.2312,-0.3133,-0.318,-0.4288,-0.4864,-0.5673,-0.767,-0.8755,-0.9324,-1.1411,-1.2756,-1.37,-1.3734,-1.2829,-1.2135,-1.4022,-1.4523,-1.4336,-1.4509,-1.5413,-1.6316,-1.5958,-1.6308,-1.6572,-1.623,-1.6152,-1.6223,-1.6205,-1.583,-1.5381,-1.5381,-1.5043,-1.6492,-2.1629,-2.3806,-2.6316,-3.0324,-3.2473,-3.3476,-3.303,-3.3544,-3.4153,-3.4777,-3.4901,-3.523,-3.6059,-3.4644,-3.3525,0.0,0.0,0.0,-3.3482,-3.4846,0.0,-3.1614,-2.9325,-2.7375,-2.5652,-2.3846,-2.6468,-3.3203,-4.0802,-4.4784,-4.6085,-4.7038,-4.8123,-4.8988,-4.8572,-4.8918,-4.9515,-4.8987,-5.0117,-5.2101,-5.2101,-5.3431,-5.5152,2.006,1.9199,1.8384,1.773,1.6866,1.5809,1.4274,1.3462,1.2625,1.1721,1.0897,1.0002,0.9526,0.8497,0.7796,0.0,0.7282,0.7333,0.0,0.727,0.7174,0.7449,0.751,0.737,0.7038,0.6722,0.6134,0.5472,0.0,0.0,0.0,0.2845,0.2872,0.292,0.2727,0.1656,-0.0,-0.0,-0.0,-0.0194,-0.2326,-0.3134,-0.3182,-0.4288,-0.4864,-0.5673,-0.7291,-0.9328,-1.1227,-1.1605,-1.2933,-1.4825,-1.514,-1.5603,-1.6022,-1.5104,-1.4972,-1.5082,-1.4631,-1.4764,-1.5234,-1.5592,-1.5592,-1.5712,-1.5851,-1.5889,-1.6262,-1.6374,-1.6181,-1.6052,-1.6052,-1.7087,-1.9085,-2.2762,-2.5898,-2.8953,-3.2093,-3.3857,-3.4836,-3.47,-3.4726,-3.4823,-3.5032,-3.502,-3.538,-3.6253,-3.5201,0.0,0.0,0.0,0.0,0.0,-3.529,0.0,-3.0761,-2.931,-2.7469,-2.4826,-2.5514,-2.9478,-3.6662,-4.1793,-4.4654,-4.5683,-4.7153,-4.797,-4.8427,-4.8731,-4.8901,-4.9092,-4.947,-5.0306,-5.1733,-5.2649,-5.3782,-5.496,2.0686,1.9742,1.8659,1.8154,1.7408,1.6502,1.5294,1.483,1.4007,1.314,1.2439,1.1923,1.1749,1.0739,0.0,0.8946,0.8502,0.8569,0.8952,0.8517,0.8254,0.8336,0.8395,0.8057,0.7513,0.7187,0.0,0.5391,0.3981,0.3268,0.2906,0.2543,0.2384,0.2235,0.1858,0.1127,-0.0,-0.0,-0.0,-0.0197,-0.1969,-0.2775,-0.3397,-0.4312,-0.4881,-0.5673,-0.7288,-0.9332,-1.1421,-1.1605,-1.2956,-1.4884,-1.5389,-1.6545,-1.7484,-1.6214,-1.5679,-1.5615,-1.5153,-1.4929,-1.5042,-1.5223,-1.5362,-1.5262,-1.5403,-1.5753,-1.6121,-1.6363,-1.6527,-1.6549,-1.6316,-1.753,-1.9712,-2.3222,-2.6228,-2.9345,-3.2927,-3.4881,-3.5762,-3.5448,-3.5527,-3.5356,-3.5002,-3.4942,-3.5284,-3.5916,-3.5317,0.0,0.0,0.0,-3.474,-3.4317,-3.4355,-3.2912,-2.9661,-2.7956,-2.5897,-2.3731,-2.7676,-3.202,-3.6824,-4.1967,-4.4654,-4.5555,-4.6891,-4.8026,-4.8684,-4.9034,-4.9455,-4.9793,-5.0157,-5.0805,-5.1892,-5.2894,-5.3776,-5.4782,2.1696,2.0433,1.925,0.0,1.8052,0.0,1.6554,1.6514,1.608,1.5204,1.4666,1.4142,1.3794,1.3381,1.2407,1.0304,0.0,0.0,0.0,1.0335,0.989,0.9061,0.9069,0.87,0.7774,0.7778,0.6854,0.4814,0.3704,0.2965,0.2965,0.2042,0.1494,0.1318,0.0381,-0.0,-0.0,-0.0,-0.0,-0.02,-0.1207,-0.222,-0.3221,-0.4348,-0.4904,-0.5668,-0.7674,-0.8956,-1.0099,-1.1626,-1.3026,-1.4056,-1.4878,-1.6166,-1.7083,-1.7157,-1.645,-1.5718,-1.5711,-1.5519,-1.5519,-1.497,-1.5209,-1.5362,-1.5063,-1.541,-1.5994,-1.5994,-1.6714,-1.7044,-1.6373,-1.6668,-1.8468,-2.3179,-2.5087,-2.7871,-3.2703,-3.5246,-3.6309,-3.5439,-3.5761,-3.5646,-3.4599,-3.4599,-3.4893,-3.5191,-3.5341,0.0,0.0,0.0,-3.5171,-3.4486,-3.301,-3.0899,-2.8286,-2.5747,-2.36,-2.2495,-2.9644,-3.3578,-3.4423,-4.123,-4.476,-4.5492,-4.6662,-4.8109,-4.9365,-4.944,-5.018,-5.1321,-5.0986,-5.1514,-5.2615,-5.2641,-5.351,-5.4511,0.0,0.0,2.0572,1.967,1.9446,1.8884,1.7999,1.7673,1.7158,1.6438,1.5716,1.4986,1.4638,1.412,1.3556,1.2548,1.2029,1.1875,1.2085,1.1473,1.062,0.9529,0.9224,0.8665,0.7666,0.697,0.5656,0.4119,0.3745,0.3371,0.2996,0.2854,0.2302,0.1538,0.0388,-0.0,-0.0,-0.0,-0.0,-0.0201,-0.2003,-0.2998,-0.3194,-0.4339,-0.469,-0.5043,-0.714,-0.8856,-1.0208,-1.1442,-1.3035,-1.461,-1.5341,-1.576,-1.5945,-1.6169,-1.6248,-1.6248,-1.4939,-1.4673,-1.4593,-1.4408,-1.4212,-1.433,-1.4503,-1.4611,-1.4935,-1.5645,-1.604,-1.6419,-1.6207,-1.6438,-1.7678,-2.0796,-2.4045,-2.7445,-3.051,-3.3982,-3.612,-3.5569,-3.554,-3.516,-3.4009,-3.4752,-3.5134,-3.4976,-3.5303,-3.5599,-3.6252,-3.5969,-3.6005,-3.6499,-3.6523,-3.3834,-2.822,-2.7946,-2.614,-2.2556,-2.9421,-3.3151,-3.4614,-4.195,-4.5581,-4.6023,-4.7175,-4.8043,-4.8736,-4.9556,-5.0098,-5.0458,-5.183,-5.2438,-5.275,-5.3721,-5.4407,-5.4939,2.2702,2.2212,2.1488,2.0383,2.0166,1.9806,1.8914,1.8553,1.8216,1.7762,1.6962,1.6401,1.5935,1.5209,1.4651,1.4467,1.3548,1.2841,1.2714,1.2223,1.1533,1.0266,0.9703,0.8924,0.7558,0.6841,0.5715,0.4191,0.4018,0.3644,0.307,0.3103,0.2728,0.234,0.1772,0.0991,-0.0,-0.0,-0.0,-0.0202,-0.2411,-0.3209,-0.3205,-0.4165,-0.453,-0.4898,-0.7018,-0.8559,-0.9919,-1.0944,-1.2753,-1.4555,-1.4874,-1.5327,-1.5771,-1.5479,-1.5581,-1.5561,-1.4728,-1.4279,-1.4008,-1.3883,-1.3732,-1.377,-1.3803,-1.3951,-1.4289,-1.4942,-1.5742,-1.6164,-1.5828,-1.6419,-1.7707,-2.003,-2.2441,-2.5021,-2.766,-3.044,-3.2459,-3.2912,-3.3398,-3.3678,-3.3981,-3.4315,-3.468,-3.4598,-3.4981,0.0,-3.6055,-3.643,-3.6792,-3.6986,-3.6175,-3.3661,-2.8894,-2.6783,-2.4822,-2.2637,-2.9515,-3.3319,-3.4668,-4.2222,-4.5898,-4.6498,-4.7547,-4.8372,-4.936,-4.9888,-5.062,-5.1353,-5.2616,-5.336,-5.3829,-5.4541,-5.4939,-5.5365,2.3624,2.3127,2.2392,2.1135,2.0867,2.0486,1.9589,1.9408,1.927,1.886,1.8367,1.7786,1.738,1.6495,1.5953,1.5953,1.4859,1.3796,1.314,1.3163,1.246,1.1027,1.0372,0.9365,0.7827,0.7255,0.6333,0.504,0.4497,0.3926,0.3535,0.3343,0.3346,0.3347,0.3182,0.2196,0.0399,0.0201,-0.0,-0.0202,-0.202,-0.2625,-0.2821,-0.3796,-0.4376,-0.5162,-0.7095,-0.8453,-0.9428,-1.0615,-1.2449,-1.4102,-1.3982,-1.4693,-1.5632,-1.4794,-1.453,-1.4304,-1.4335,-1.4081,-1.362,-1.3361,-1.3295,-1.3258,-1.312,-1.3455,-1.3789,-1.439,-1.5427,-1.6039,-1.5403,-1.638,-1.7733,-1.9238,-2.0577,-2.2065,-2.4209,-2.6234,-2.7919,-2.921,-2.9992,-3.1386,-3.3314,-3.3195,-3.3359,-3.3975,-3.4107,-3.4474,-3.5807,-3.6517,-3.6858,-3.6822,-3.4779,-3.2004,-2.9012,-2.4043,-2.2268,-2.3352,-2.992,-3.3925,-3.5443,-4.2558,-4.6245,-4.7001,-4.792,-4.8999,-5.0355,-5.0413,-5.1425,-5.2879,-5.3402,-5.4106,-5.4965,-5.5099,-5.5365,-5.5604,2.4657,2.3956,2.3323,2.2873,2.2369,2.1692,2.1133,2.0768,2.0153,1.9639,1.9048,1.8483,1.8127,1.7703,1.7223,1.6852,1.6605,1.606,1.4425,1.4149,1.3251,1.1717,1.1119,1.01,0.8284,0.7512,0.6972,0.6652,0.6273,0.569,0.5102,0.4354,0.3775,0.3777,0.3412,0.3025,0.2622,0.0808,-0.0,-0.0,-0.0404,-0.0402,-0.0798,-0.3386,-0.4557,-0.512,-0.7132,-0.8339,-0.894,-1.0604,-1.2043,-1.3256,-1.3638,-1.3854,-1.4077,-1.3831,-1.3223,-1.2583,-1.3337,-1.3392,-1.306,-1.2427,-1.2545,-1.2697,-1.257,-1.2724,-1.2901,-1.3977,-1.4417,-1.4854,-1.517,-1.558,-1.6011,-1.6354,-1.8409,-2.0278,-2.113,-2.3688,-2.5781,-2.6109,-2.6579,-2.769,-2.968,-3.0301,-3.1404,-3.3078,-3.1899,-3.2251,-3.5152,-3.4031,-3.4797,-3.7855,-3.5222,-3.1193,-2.5445,-2.2218,-2.2586,-2.6375,-3.0993,-3.5129,-3.8997,-4.4379,-4.722,-4.7993,-4.9205,-5.0145,-5.0896,-5.1537,-5.2189,-5.3017,-5.37,-5.4241,-5.4645,-5.5339,-5.5604,-5.5604,2.5373,2.4909,2.449,2.3841,2.3392,2.3142,2.2576,2.201,2.1593,2.1311,2.0458,1.9868,1.9776,1.9012,1.8295,1.8009,1.7789,1.727,1.5828,1.5241,1.4304,1.2814,1.2564,1.1528,0.9528,0.8806,0.826,0.7508,0.7153,0.6575,0.5976,0.5204,0.4812,0.4414,0.383,0.3426,0.321,0.2218,0.1007,-0.0,-0.0,-0.0,-0.0201,-0.2808,-0.4202,-0.4987,-0.6606,-0.7614,-0.8218,-0.9865,-1.1119,-1.2171,-1.2377,-1.2419,-1.2455,-1.2186,-1.2084,-1.1956,-1.1983,-1.2052,-1.1735,-1.1752,-1.1898,-1.2069,-1.2201,-1.2376,-1.254,-1.321,-1.3701,-1.3997,-1.4101,-1.4931,-1.5427,-1.5255,-1.6658,-1.7856,-1.7932,-1.9471,-2.1282,-2.2939,-2.4758,-2.7158,-3.0056,-3.1793,-3.271,-3.2406,-3.2815,-3.3197,-3.3193,-3.4684,-3.6322,-3.8141,-3.4082,-3.0655,-2.7814,-2.3373,-2.3137,-2.6906,-3.1402,-3.5396,-3.9289,-4.4578,-4.7592,-4.8504,-4.9583,-5.0908,-5.2187,-5.2089,-5.2659,-5.3835,-5.4106,-5.4645,-5.5206,-5.5736,-5.5868,-5.5815,2.6307,2.5872,2.5472,2.4768,2.4356,2.3945,2.3555,2.3174,2.2764,2.2475,2.1603,2.1017,2.0928,2.0123,1.9387,1.9146,1.8931,1.8442,1.7456,1.676,1.5778,1.4126,1.3816,1.2781,1.103,1.051,0.9753,0.8573,0.8238,0.7874,0.7282,0.6665,0.5858,0.5262,0.4638,0.3809,0.3187,0.3198,0.2194,0.0794,0.0199,-0.0,-0.0201,-0.241,-0.3621,-0.4645,-0.6068,-0.6878,-0.7487,-0.8922,-1.0189,-1.106,-1.1274,-1.1325,-1.1161,-1.0675,-1.0936,-1.1367,-1.1035,-1.0944,-1.1052,-1.1297,-1.1452,-1.1636,-1.1989,-1.2172,-1.2334,-1.2614,-1.294,-1.3258,-1.334,-1.4205,-1.4726,-1.4557,0.0,-1.5774,-1.598,-1.6487,-1.7646,-2.0057,-2.2579,-2.5822,-2.9969,-3.2221,-3.3255,-3.2678,-3.4111,-3.4126,-3.2728,-3.5379,-3.7241,-3.7419,-3.3632,-3.1262,-3.0455,-2.6281,-2.597,-2.9475,-3.31,-3.6715,-4.0186,-4.4925,-4.7752,-4.8956,-5.0045,-5.1507,-5.3201,-5.2661,-5.3217,-5.4376,-5.4511,-5.4913,-5.5604,-5.6132,-5.6263,-5.6313,2.7588,2.6624,2.5961,2.6205,2.5099,2.4375,2.4375,2.3991,2.3274,2.229,2.2019,2.1489,2.0755,2.0682,2.0509,2.0527,2.0498,2.0209,1.9018,1.901,1.8023,1.6062,1.3935,1.2935,1.2658,1.1967,1.1367,1.0462,1.0275,0.992,0.9592,0.8503,0.7496,0.6534,0.5621,0.4579,0.3179,0.3129,0.3122,0.2748,0.0771,-0.0,-0.0199,-0.2369,-0.3183,-0.3638,-0.5704,-0.654,-0.6953,-0.8448,-0.9304,-1.014,-1.1175,-1.118,-1.0557,-1.014,-0.9865,-0.9953,-1.0374,-1.0711,-1.1054,-1.1432,-1.1569,-1.1543,-1.201,-1.2172,-1.2356,-1.2727,-1.2818,-1.2917,-1.3468,-1.3358,-1.3455,-1.4003,0.0,0.0,-1.5801,-1.6658,-1.7485,-1.8015,-1.8681,-2.1312,-2.6999,-2.7722,-2.9915,-3.5271,-3.3521,-3.3375,-3.589,-3.4922,-3.4651,-3.5653,-3.5456,-3.3788,-3.088,-3.0894,-3.2736,-3.6703,-3.7871,-4.0323,-4.4021,-4.6467,-4.823,-4.945,-5.0987,-5.2125,-5.2912,-5.3371,-5.3797,-5.4132,-5.4376,-5.4913,-5.5736,-5.6367,-5.6785,-5.7092,2.7803,2.7245,2.677,2.6454,2.584,2.5389,2.5195,2.4615,2.4156,2.3789,2.2961,2.2375,2.223,2.1495,2.0977,2.0711,2.0389,2.0243,2.0277,1.966,1.8251,1.6261,1.4818,1.4223,1.4277,1.304,1.2243,1.2084,1.1082,1.0331,1.0215,0.8911,0.8106,0.7359,0.7065,0.5602,0.318,0.3754,0.3726,0.2922,0.215,0.1179,-0.0,-0.0996,-0.2014,-0.326,-0.4088,-0.5339,-0.6814,-0.7454,-0.8113,-0.8782,-0.9407,-0.9023,-0.8199,-0.8317,-0.8236,-0.8564,-0.9661,-1.018,-1.0679,-1.0675,-1.0624,-1.0596,-1.1252,-1.1416,-1.1794,-1.1983,-1.2194,-1.2595,-1.2784,-1.3305,-1.3645,-1.3833,0.0,-1.5704,-1.6096,-1.7167,-1.8002,-1.8892,-2.0969,-2.3939,-2.8353,-3.0423,-3.2513,-3.4731,-3.5253,-3.5272,-3.491,-3.6466,-3.7808,-3.8661,-3.8858,-3.6255,-3.0765,-3.168,-3.3576,-3.66,-3.8135,-4.0668,-4.4041,-4.6467,-4.8208,-4.9584,-5.1439,-5.2856,-5.3942,-5.4144,-5.4377,-5.4671,-5.4805,-5.5339,-5.6,-5.6655,-5.7058,-5.7157,2.838,2.7889,2.7436,2.6851,2.6498,2.6111,2.5712,2.5324,2.4903,2.4452,2.3789,2.2994,2.2673,2.1837,2.1271,2.0808,2.0432,2.0449,2.0707,1.9478,1.8061,1.6446,1.5665,1.528,1.5286,1.4083,1.3284,1.289,1.1919,1.1368,1.1033,1.0185,0.917,0.8378,0.851,0.7012,0.4156,0.4938,0.4702,0.3875,0.3327,0.2164,0.0987,0.02,-0.1013,-0.2253,-0.309,-0.4353,-0.563,-0.5641,-0.651,-0.7601,-0.7808,-0.7417,-0.6793,-0.7087,-0.7226,-0.7789,-0.9109,-0.9632,-0.9947,-0.9984,-1.0113,-1.0257,-1.054,-1.0872,-1.1227,-1.1416,-1.1889,-1.216,-1.2352,-1.3118,-1.3698,-1.3932,-1.512,-1.609,-1.6717,-1.758,-1.8766,-1.9834,-2.2107,-2.5278,-2.9526,-3.183,-3.3766,-3.5612,-3.6215,-3.5288,-3.2764,-3.658,-3.8396,-3.7745,-3.9899,-3.8283,-3.2435,-3.4381,-3.6227,-3.834,-3.9876,-4.1882,-4.435,-4.693,-4.8662,-5.0031,-5.1909,-5.3326,-5.4369,-5.416,-5.4414,-5.4831,-5.4965,-5.5604,-5.6367,-5.7174,-5.7421,-5.7243,2.9375,2.8608,2.7839,2.7839,2.7067,2.6305,2.6305,2.5906,2.5045,2.386,2.3829,2.3296,2.1532,2.1493,2.1406,2.0826,2.0826,2.0843,2.069,1.8885,1.7481,1.7055,1.6474,1.609,1.6117,1.5087,1.3884,1.289,1.3609,1.3267,1.2257,1.2164,1.1334,0.9804,0.9726,0.8389,0.6074,0.6409,0.6387,0.5998,0.383,0.3106,0.2986,0.0797,-0.0,-0.0205,-0.2508,-0.3365,-0.3367,-0.3396,-0.4896,-0.6818,-0.6812,-0.6815,-0.6793,-0.6673,-0.7052,-0.7644,-0.872,-0.8881,-0.9059,-0.9964,-1.0259,-1.0356,-1.0647,-1.0735,-1.0848,-1.1227,-1.1508,-1.1781,-1.2357,-1.2741,-1.3356,-1.4061,-1.5194,-1.6314,-1.725,-1.8593,-1.9688,-2.0554,-2.1083,-2.3796,-3.0322,-3.0378,-3.2629,-3.846,-3.5809,-3.2778,-2.9904,-3.4427,-3.5182,-3.1524,-3.8412,-4.0294,-3.6431,-3.9702,-4.2032,-4.3008,-4.3852,-4.4786,-4.582,-4.7868,-4.9763,-5.1401,-5.2373,-5.325,-5.3917,-5.3658,-5.3751,-5.4132,-5.4831,-5.5736,-5.6758,-5.7788,-5.7771,-5.7358,2.9937,2.9554,2.9363,2.8992,2.8031,2.726,2.726,2.6681,2.5884,2.5625,2.5281,2.4515,2.3286,2.2163,2.1406,2.0826,1.984,1.905,1.8671,1.7253,1.6651,1.6864,1.6474,1.6083,1.609,1.5074,1.4319,1.422,1.3649,1.2898,1.2369,1.1788,1.1129,1.0015,0.9853,0.9365,0.8603,0.6982,0.633,0.6256,0.5497,0.4544,0.319,0.2424,0.1232,-0.0209,-0.252,-0.338,-0.3399,-0.3405,-0.3834,-0.4473,-0.4898,-0.5751,-0.6801,-0.609,-0.646,-0.7035,-0.8174,-0.811,-0.8052,-0.9368,-0.9719,-0.9674,-0.9777,-1.0316,-1.0873,-1.1066,-1.1737,-1.2602,-1.2993,-1.3579,-1.4177,-1.5192,-1.6208,-1.7185,-1.801,-1.9074,-2.0091,-2.0989,-2.152,-2.3346,-2.7133,-2.7504,-2.9139,-3.3305,-3.2969,-3.1897,-3.0287,-3.4332,-3.6193,-3.4616,-3.9059,-4.106,-4.0553,-4.1451,-4.2292,-4.2553,-4.4052,-4.5474,-4.6629,-4.8684,-5.041,-5.1907,-5.2904,-5.3738,-5.4344,-5.434,-5.4355,-5.4511,-5.5472,-5.6126,-5.6777,-5.7535,-5.7584,-5.7312,3.0664,3.0395,2.9975,2.9909,2.8873,2.8019,2.8019,2.7067,2.6305,2.6111,2.5518,2.474,2.3561,2.2583,2.1603,2.062,1.9026,1.8038,1.8061,1.6843,1.6247,1.6474,1.6282,1.6083,1.609,1.5472,1.4944,1.4892,1.413,1.3371,1.2621,1.2305,1.1644,1.0684,0.9955,0.9696,0.9742,0.7531,0.6643,0.6719,0.6433,0.5642,0.4415,0.3694,0.25,0.0842,-0.2323,-0.3396,-0.3414,-0.3425,-0.3427,-0.3641,-0.4069,-0.4914,-0.5742,-0.5479,-0.5847,-0.6417,-0.7588,-0.7518,-0.7657,-0.861,-0.8971,-0.9134,-0.9473,-1.0019,-1.0574,-1.0963,-1.1638,-1.231,-1.3099,-1.3887,-1.489,-1.5539,-1.6745,-1.7743,-1.8472,-1.9171,-2.0224,-2.1217,-2.1769,-2.3386,-2.6541,-2.6807,-2.7366,-2.9028,-2.9568,-2.8989,-2.6918,-3.1926,-3.4677,-3.4469,-3.8697,-4.1568,-4.2571,-4.2594,-4.2797,-4.3195,-4.4678,-4.5982,-4.7592,-4.9337,-5.1053,-5.2541,-5.3004,-5.3833,-5.4486,-5.4428,-5.4304,-5.435,-5.5182,-5.6063,-5.673,-5.7354,-5.718,-5.6817,3.1513,3.0933,3.0447,3.0754,2.9766,2.8788,2.8812,2.7465,2.6294,2.5712,2.5129,2.4341,2.2779,2.2583,2.1995,2.0603,1.9002,1.8213,1.8449,1.7246,1.646,1.6282,1.6282,1.6282,1.6096,1.609,1.5764,1.4923,1.4831,1.4276,1.3259,1.3289,1.264,1.1597,1.0661,1.0195,1.0245,0.806,0.7155,0.7405,0.678,0.6581,0.6299,0.4168,0.3367,0.2952,-0.1275,-0.2985,-0.3416,-0.3448,-0.3457,-0.3673,-0.4103,-0.4292,-0.4467,-0.4853,-0.5228,-0.6006,-0.6982,-0.7119,-0.7264,-0.7867,-0.8218,-0.8761,-0.9356,-0.9489,-0.9824,-1.0797,-1.1073,-1.1535,-1.2721,-1.4096,-1.5125,-1.5459,-1.6825,-1.823,-1.8761,-1.9229,-2.008,-2.1382,-2.2144,-2.3738,-2.6997,-2.7188,-2.6666,-2.5672,-2.6007,-2.4627,-2.1363,-2.8086,-3.2183,-3.2155,-3.8016,-4.1622,-4.2888,-4.3117,-4.3546,-4.4534,-4.5332,-4.679,-4.8389,-4.9651,-5.1362,-5.3124,-5.2986,-5.3537,-5.4486,-5.3797,-5.37,-5.4004,-5.4525,-5.5532,-5.6636,-5.7098,-5.6702,-5.6131,3.3354,3.2776,3.2283,3.2579,3.1037,2.9821,3.0034,2.8922,2.7827,2.6863,2.6669,2.5895,2.4136,2.3365,2.2779,2.1995,2.104,2.026,1.9042,1.8655,1.8267,1.8061,1.7665,1.6871,1.6056,1.6076,1.581,1.5462,1.5078,1.4529,1.4013,1.3752,1.3273,1.2848,1.2854,1.2395,1.1367,1.0012,0.9354,0.9247,0.7864,0.7066,0.6257,0.4195,0.338,0.319,0.2343,-0.0426,-0.363,-0.3663,-0.3889,-0.4319,-0.3889,-0.4294,-0.49,-0.4464,-0.4832,-0.5185,-0.5381,-0.5519,-0.5654,-0.6657,-0.6846,-0.7239,-0.8647,-0.9636,-1.0418,-1.1016,-1.1634,-1.2248,-1.3837,-1.4433,-1.5042,-1.6268,-1.721,-1.812,-1.8801,-1.9328,-2.0027,-2.1028,-2.1192,-2.1745,-2.3024,-2.3279,-2.3365,-2.3696,-2.3529,-2.3046,-2.1723,-2.8243,-3.1784,-3.1845,-3.8133,-4.22,-4.348,-4.3465,-4.4021,-4.4842,-4.6467,-4.7911,-4.9337,-5.0898,-5.2154,-5.3171,-5.3303,-5.3562,-5.406,-5.3909,-5.3849,-5.3838,-5.502,-5.5654,-5.6038,-5.6409,-5.642,-5.6214,3.3865,3.3477,3.3174,3.3475,3.1684,3.0395,3.0535,2.9163,2.8019,2.7249,2.6874,2.6294,2.514,2.4351,2.3561,2.2779,2.2229,2.1255,2.0029,2.0475,2.008,1.8845,1.8647,1.8053,1.7246,1.7134,1.6495,1.5507,1.557,1.5465,1.4767,1.3985,1.3531,1.3428,1.3558,1.3337,1.2599,1.203,1.1327,1.0157,0.8789,0.7755,0.6895,0.4847,0.3819,0.3412,0.3427,0.1078,-0.1956,-0.3277,-0.3926,-0.4129,-0.3696,-0.3878,-0.4263,-0.4476,-0.4631,-0.4773,-0.4771,-0.471,-0.4645,-0.545,-0.6052,-0.6858,-0.8475,-0.9279,-1.0083,-1.1082,-1.1483,-1.2284,-1.3884,-1.4482,-1.5273,-1.6665,-1.7466,-1.8228,-1.893,-1.9306,-1.9852,-2.0536,-2.0906,-2.168,-2.2654,-2.2466,-2.2448,-2.2735,-2.227,-2.1947,-2.1673,-2.6241,-2.98,-3.1987,-3.6589,-4.0547,-4.3991,-4.419,-4.5005,-4.6306,-4.6901,-4.82,-5.0072,-5.0613,-5.1582,-5.2732,-5.2647,-5.3025,-5.3686,-5.3945,-5.3798,-5.3498,-5.4649,-5.5122,-5.5111,-5.5464,-5.5771,-5.595,3.4366,3.3794,3.3684,3.3987,3.2337,3.0792,3.083,2.9393,2.8031,2.7442,2.7067,2.6305,2.555,2.4945,2.4341,2.3365,2.2808,2.2219,2.1219,2.1873,2.1488,1.9832,1.9626,1.9437,1.8853,1.8644,1.7813,1.6115,1.6467,1.6406,1.5493,1.4417,1.3791,1.3813,1.3597,1.3607,1.3835,1.3635,1.2665,1.1041,0.9733,0.865,0.772,0.5938,0.4481,0.342,0.3453,0.1749,-0.0665,-0.2877,-0.3527,-0.3509,-0.3281,-0.3244,-0.3419,-0.4053,-0.4217,-0.4161,-0.4151,-0.41,-0.4249,-0.4647,-0.545,-0.6455,-0.827,-0.8676,-0.9279,-1.0881,-1.1282,-1.1894,-1.3518,-1.4519,-1.5525,-1.6743,-1.7747,-1.8543,-1.8948,-1.9155,-1.9536,-1.9899,-2.104,-2.2191,-2.3766,-2.2852,-2.2387,-2.2515,-2.1836,-2.1329,-2.1461,-2.4237,-2.7879,-3.2463,-3.5041,-3.8925,-4.4337,-4.4972,-4.5982,-4.7752,-4.7354,-4.8366,-5.0605,-5.025,-5.0764,-5.2211,-5.2114,-5.2441,-5.3263,-5.3579,-5.351,-5.3079,-5.3915,-5.419,-5.4338,-5.4451,-5.4825,-5.5127,3.6086,3.5294,3.4591,3.47,3.3252,3.1798,3.1672,3.1063,2.9949,2.8596,2.8404,2.7623,2.5679,2.4914,2.4341,2.3951,2.3375,2.2984,2.2974,2.221,2.1817,2.1995,2.1603,2.1013,2.0432,2.1177,2.0359,1.7749,1.7085,1.6822,1.6755,1.5691,1.506,1.5072,1.3996,1.4212,1.5078,1.403,1.3164,1.229,1.0627,0.9568,0.8713,0.6438,0.474,0.3452,0.3484,0.132,-0.1772,-0.3077,-0.3524,-0.3313,-0.2392,-0.2593,-0.3446,-0.3419,-0.3599,-0.3565,-0.3536,-0.3501,-0.3468,-0.4047,-0.424,-0.4845,-0.7062,-0.8273,-0.9279,-1.0881,-1.1282,-1.1914,-1.4232,-1.4653,-1.5095,-1.6442,-1.7073,-1.7683,-1.8293,-1.8706,-1.9258,-2.0108,-2.1129,-2.1995,-2.317,-2.2548,-2.2327,-2.2544,-2.2115,-2.1641,-2.148,-2.4714,-2.8433,-3.2477,-3.5775,-3.9841,-4.483,-4.5303,-4.6629,-4.8727,-4.8411,-4.913,-5.0605,-5.0872,-5.1379,-5.2211,-5.2114,-5.2441,-5.3073,-5.2876,-5.2787,-5.288,-5.3461,-5.3724,-5.4008,-5.4047,-5.3944,-5.3646,3.6173,3.5493,3.4843,3.4983,3.3219,3.1815,3.1751,3.0896,2.9758,2.8788,2.8404,2.7634,2.6078,2.5235,2.468,2.4361,2.4082,2.37,2.3355,2.318,2.318,2.2955,2.2974,2.2836,2.236,2.2259,2.1652,2.0535,1.9283,1.8366,1.7804,1.6741,1.6321,1.6335,1.5704,1.571,1.615,1.509,1.3819,1.2757,1.1699,1.0245,0.8586,0.7324,0.6062,0.4573,0.3737,0.0665,-0.2902,-0.3336,-0.2656,-0.1538,-0.1745,-0.1729,-0.1714,-0.2988,-0.339,-0.3153,-0.1884,-0.2277,-0.3273,-0.3463,-0.4054,-0.4845,-0.6055,-0.7695,-0.9536,-1.0895,-1.1531,-1.2393,-1.4267,-1.4948,-1.5634,-1.6721,-1.7144,-1.7523,-1.8037,-1.8427,-1.9171,-1.9991,-2.0483,-2.1219,-2.2583,-2.2013,-2.2056,-2.272,-2.2231,-2.1801,-2.1811,-2.4743,-2.8396,-3.2729,-3.5754,-3.9911,-4.483,-4.5613,-4.6825,-4.8471,-4.8848,-4.9661,-5.0769,-5.059,-5.0793,-5.1369,-5.1532,-5.1859,-5.2371,-5.2402,-5.2394,-5.2516,-5.2848,-5.2872,-5.2956,-5.2562,-5.2161,-5.1589]},{"header":{"parameterUnit":"m.s-1","parameterCategory":1,"la1":30.6,"la2":28.766,"lo1":-90.7593,"lo2":-88.6598,"dy":0.0162,"dx":0.0183,"nx":116,"ny":114,"refTime":"2024-02-11T06:00:00:Z","depth":0,"parameterNumber":3,"parameterNumberName":"V-component_of_WINDS"},"data":[0.0,0.0,0.0,0.0,0.0,0.0,0.0,0.0,0.0,0.0,0.0,0.0,0.0,0.0,0.0,0.0,0.0,0.0,0.0,0.0,0.0,0.0,0.0,0.0,0.0,0.0,0.0,0.0,0.0,0.0,0.0,0.0,0.0,0.0,0.0,0.0,0.0,0.0,0.0,0.0,0.0,0.0,0.0,0.0,0.0,0.0,0.0,0.0,0.0,0.0,0.0,0.0,0.0,0.0,0.0,0.0,0.0,0.0,0.0,0.0,0.0,0.0,0.0,0.0,0.0,0.0,0.0,0.0,0.0,0.0,0.0,0.0,0.0,0.0,0.0,0.0,0.0,0.0,0.0,0.0,0.0,0.0,0.0,0.0,0.0,0.0,0.0,0.0,0.0,0.0,0.0,0.0,0.0,0.0,0.0,0.0,0.0,0.0,0.0,0.0,0.0,0.0,0.0,0.0,0.0,0.0,0.0,0.0,0.0,0.0,0.0,0.0,0.0,0.0,0.0,0.0,0.0,0.0,0.0,0.0,0.0,0.0,0.0,0.0,0.0,0.0,0.0,0.0,0.0,0.0,0.0,0.0,0.0,0.0,0.0,0.0,0.0,0.0,0.0,0.0,0.0,0.0,0.0,0.0,0.0,0.0,0.0,0.0,0.0,0.0,0.0,0.0,0.0,0.0,0.0,0.0,0.0,0.0,0.0,0.0,0.0,0.0,0.0,0.0,0.0,0.0,0.0,0.0,0.0,0.0,0.0,0.0,0.0,0.0,0.0,0.0,0.0,0.0,0.0,0.0,0.0,0.0,0.0,0.0,0.0,0.0,0.0,0.0,0.0,0.0,0.0,0.0,0.0,0.0,0.0,0.0,0.0,0.0,0.0,0.0,0.0,0.0,0.0,0.0,0.0,0.0,0.0,0.0,0.0,0.0,0.0,0.0,0.0,0.0,0.0,0.0,0.0,0.0,0.0,0.0,0.0,0.0,0.0,0.0,0.0,0.0,0.0,0.0,0.0,0.0,0.0,0.0,0.0,0.0,0.0,0.0,0.0,0.0,0.0,0.0,0.0,0.0,0.0,0.0,0.0,0.0,0.0,0.0,0.0,0.0,0.0,0.0,0.0,0.0,0.0,0.0,0.0,0.0,0.0,0.0,0.0,0.0,0.0,0.0,0.0,0.0,0.0,0.0,0.0,0.0,0.0,0.0,0.0,0.0,0.0,0.0,0.0,0.0,0.0,0.0,0.0,0.0,0.0,0.0,0.0,0.0,0.0,0.0,0.0,0.0,0.0,0.0,0.0,0.0,0.0,0.0,0.0,0.0,0.0,0.0,0.0,0.0,0.0,0.0,0.0,0.0,0.0,0.0,0.0,0.0,0.0,0.0,0.0,0.0,0.0,0.0,0.0,0.0,0.0,0.0,0.0,0.0,0.0,0.0,0.0,0.0,0.0,0.0,0.0,0.0,0.0,0.0,0.0,0.0,0.0,0.0,0.0,0.0,0.0,0.0,0.0,0.0,0.0,0.0,0.0,0.0,0.0,0.0,0.0,0.0,0.0,0.0,0.0,0.0,0.0,0.0,0.0,0.0,0.0,0.0,0.0,0.0,0.0,0.0,0.0,0.0,0.0,0.0,0.0,0.0,0.0,0.0,0.0,0.0,0.0,0.0,0.0,0.0,0.0,0.0,0.0,0.0,0.0,0.0,0.0,0.0,0.0,0.0,0.0,0.0,0.0,0.0,0.0,0.0,0.0,0.0,0.0,0.0,0.0,0.0,0.0,0.0,0.0,0.0,0.0,0.0,0.0,0.0,0.0,0.0,0.0,0.0,0.0,0.0,0.0,0.0,0.0,0.0,0.0,0.0,0.0,0.0,0.0,0.0,0.0,0.0,0.0,0.0,0.0,0.0,0.0,0.0,0.0,0.0,0.0,0.0,0.0,0.0,0.0,0.0,0.0,0.0,0.0,0.0,0.0,0.0,0.0,0.0,0.0,0.0,0.0,0.0,0.0,0.0,0.0,0.0,0.0,0.0,0.0,0.0,0.0,0.0,0.0,0.0,0.0,0.0,0.0,0.0,0.0,0.0,0.0,0.0,0.0,0.0,0.0,0.0,0.0,0.0,0.0,0.0,0.0,0.0,0.0,0.0,0.0,0.0,0.0,0.0,0.0,0.0,0.0,0.0,0.0,0.0,0.0,0.0,0.0,0.0,0.0,0.0,0.0,0.0,0.0,0.0,0.0,0.0,0.0,0.0,0.0,0.0,0.0,0.0,0.0,0.0,0.0,0.0,0.0,0.0,0.0,0.0,0.0,0.0,0.0,0.0,0.0,0.0,0.0,0.0,0.0,0.0,0.0,0.0,0.0,0.0,0.0,0.0,0.0,0.0,0.0,0.0,0.0,0.0,0.0,0.0,0.0,0.0,0.0,0.0,0.0,0.0,0.0,0.0,0.0,0.0,0.0,0.0,0.0,0.0,0.0,0.0,0.0,0.0,0.0,0.0,0.0,0.0,0.0,0.0,0.0,0.0,0.0,0.0,0.0,0.0,0.0,0.0,0.0,0.0,0.0,0.0,0.0,0.0,0.0,0.0,0.0,0.0,0.0,0.0,0.0,0.0,0.0,0.0,0.0,0.0,0.0,0.0,0.0,0.0,0.0,0.0,0.0,0.0,0.0,0.0,0.0,0.0,0.0,0.0,0.0,0.0,0.0,0.0,0.0,0.0,0.0,0.0,0.0,0.0,0.0,0.0,0.0,0.0,0.0,0.0,0.0,0.0,0.0,0.0,0.0,0.0,0.0,0.0,0.0,0.0,0.0,0.0,0.0,0.0,0.0,0.0,0.0,0.0,0.0,0.0,0.0,0.0,0.0,0.0,0.0,0.0,0.0,0.0,0.0,0.0,0.0,0.0,0.0,0.0,0.0,0.0,0.0,0.0,0.0,0.0,0.0,0.0,0.0,0.0,0.0,0.0,0.0,0.0,0.0,0.0,0.0,0.0,0.0,0.0,0.0,0.0,0.0,0.0,0.0,0.0,0.0,0.0,0.0,0.0,0.0,0.0,0.0,0.0,0.0,0.0,0.0,0.0,0.0,0.0,0.0,0.0,0.0,0.0,0.0,0.0,0.0,0.0,0.0,0.0,0.0,0.0,0.0,0.0,0.0,0.0,0.0,0.0,0.0,0.0,0.0,0.0,0.0,0.0,0.0,0.0,0.0,0.0,0.0,0.0,0.0,0.0,0.0,0.0,0.0,0.0,0.0,0.0,0.0,0.0,0.0,0.0,0.0,0.0,0.0,0.0,0.0,0.0,0.0,0.0,0.0,0.0,0.0,0.0,0.0,0.0,0.0,0.0,0.0,0.0,0.0,0.0,0.0,0.0,0.0,0.0,0.0,0.0,0.0,0.0,0.0,0.0,0.0,0.0,0.0,0.0,0.0,0.0,0.0,0.0,0.0,0.0,0.0,0.0,0.0,0.0,0.0,0.0,0.0,0.0,0.0,0.0,0.0,0.0,0.0,0.0,0.0,0.0,0.0,0.0,0.0,0.0,0.0,0.0,0.0,0.0,0.0,0.0,0.0,0.0,0.0,0.0,0.0,0.0,0.0,0.0,0.0,0.0,0.0,0.0,0.0,0.0,0.0,0.0,0.0,0.0,0.0,0.0,0.0,0.0,0.0,0.0,0.0,0.0,0.0,0.0,0.0,0.0,0.0,0.0,0.0,0.0,0.0,0.0,0.0,0.0,0.0,0.0,0.0,0.0,0.0,0.0,0.0,0.0,0.0,0.0,0.0,0.0,0.0,0.0,0.0,0.0,0.0,0.0,0.0,0.0,0.0,0.0,0.0,0.0,0.0,0.0,0.0,0.0,0.0,0.0,0.0,0.0,0.0,0.0,0.0,0.0,0.0,0.0,0.0,0.0,0.0,0.0,0.0,0.0,0.0,0.0,0.0,0.0,0.0,0.0,0.0,0.0,0.0,0.0,0.0,0.0,0.0,0.0,0.0,0.0,0.0,0.0,0.0,0.0,0.0,0.0,0.0,0.0,0.0,0.0,0.0,0.0,0.0,0.0,0.0,0.0,0.0,0.0,0.0,0.0,0.0,0.0,0.0,0.0,0.0,0.0,0.0,0.0,0.0,0.0,0.0,0.0,0.0,0.0,0.0,0.0,0.0,0.0,0.0,0.0,0.0,0.0,0.0,0.0,0.0,0.0,0.0,0.0,0.0,0.0,0.0,0.0,0.0,0.0,0.0,0.0,0.0,0.0,0.0,0.0,0.0,0.0,0.0,0.0,0.0,0.0,0.0,0.0,0.0,0.0,0.0,0.0,0.0,0.0,0.0,0.0,0.0,0.0,0.0,0.0,0.0,0.0,0.0,0.0,0.0,0.0,0.0,0.0,0.0,0.0,0.0,0.0,0.0,0.0,0.0,0.0,0.0,0.0,0.0,0.0,0.0,0.0,0.0,0.0,0.0,0.0,0.0,0.0,0.0,0.0,0.0,0.0,0.0,0.0,0.0,0.0,0.0,0.0,0.0,0.0,0.0,0.0,0.0,0.0,0.0,0.0,0.0,0.0,0.0,0.0,0.0,0.0,0.0,0.0,0.0,0.0,0.0,0.0,0.0,0.0,0.0,0.0,0.0,0.0,0.0,0.0,0.0,0.0,0.0,0.0,0.0,0.0,0.0,0.0,0.0,0.0,0.0,0.0,0.0,0.0,0.0,0.0,0.0,0.0,0.0,0.0,0.0,0.0,0.0,0.0,0.0,0.0,0.0,0.0,0.0,0.0,0.0,0.0,0.0,0.0,0.0,0.0,0.0,0.0,0.0,0.0,0.0,0.0,0.0,0.0,0.0,0.0,0.0,0.0,0.0,0.0,0.0,0.0,0.0,0.0,0.0,0.0,0.0,0.0,0.0,0.0,0.0,0.0,0.0,0.0,0.0,0.0,0.0,0.0,0.0,0.0,0.0,0.0,0.0,0.0,0.0,0.0,0.0,0.0,0.0,0.0,0.0,0.0,0.0,0.0,0.0,0.0,0.0,0.0,0.0,0.0,0.0,0.0,0.0,0.0,0.0,0.0,0.0,0.0,0.0,0.0,0.0,0.0,0.0,0.0,0.0,0.0,0.0,0.0,0.0,0.0,0.0,0.0,0.0,0.0,0.0,0.0,0.0,0.0,0.0,0.0,0.0,0.0,0.0,0.0,0.0,0.0,0.0,0.0,0.0,0.0,0.0,0.0,0.0,0.0,0.0,0.0,0.0,0.0,0.0,0.0,0.0,0.0,0.0,0.0,0.0,0.0,0.0,0.0,0.0,0.0,0.0,0.0,0.0,0.0,0.0,0.0,0.0,0.0,0.0,0.0,0.0,0.0,0.0,0.0,0.0,0.0,0.0,0.0,0.0,0.0,0.0,0.0,0.0,0.0,0.0,0.0,0.0,0.0,0.0,0.0,0.0,0.0,0.0,0.0,0.0,0.0,0.0,0.0,0.0,0.0,0.0,0.0,0.0,0.0,0.0,0.0,0.0,0.0,0.0,0.0,0.0,0.0,0.0,0.0,0.0,0.0,0.0,0.0,0.0,0.0,0.0,0.0,0.0,0.0,0.0,0.0,0.0,0.0,0.0,0.0,0.0,0.0,0.0,0.0,0.0,0.0,0.0,0.0,0.0,0.0,0.0,0.0,0.0,0.0,0.0,0.0,0.0,0.0,0.0,0.0,0.0,0.0,0.0,0.0,0.0,0.0,0.0,0.0,0.0,0.0,0.0,0.0,0.0,0.0,0.0,0.0,0.0,0.0,0.0,0.0,0.0,0.0,0.0,0.0,0.0,0.0,0.0,0.0,0.0,0.0,0.0,0.0,0.0,0.0,0.0,0.0,0.0,0.0,0.0,0.0,0.0,0.0,0.0,0.0,0.0,0.0,0.0,0.0,0.0,0.0,0.0,0.0,0.0,0.0,0.0,0.0,0.0,0.0,0.0,0.0,0.0,0.0,0.0,0.0,0.0,0.0,0.0,0.0,0.0,0.0,0.0,0.0,0.0,0.0,0.0,0.0,0.0,0.0,0.0,0.0,0.0,0.0,0.0,0.0,0.0,0.0,0.0,0.0,0.0,0.0,-2.2492,-2.2478,0.0,0.0,0.0,0.0,0.0,0.0,0.0,0.0,0.0,0.0,0.0,0.0,0.0,0.0,0.0,0.0,0.0,0.0,0.0,0.0,0.0,0.0,0.0,0.0,0.0,0.0,0.0,0.0,0.0,0.0,0.0,0.0,0.0,0.0,-4.1082,-4.1914,-4.1709,-4.0369,-4.1201,-4.1449,-4.1197,-3.9662,-3.7319,-3.4458,0.0,0.0,0.0,0.0,0.0,0.0,0.0,0.0,0.0,0.0,0.0,0.0,0.0,0.0,0.0,0.0,0.0,0.0,0.0,0.0,0.0,0.0,0.0,0.0,0.0,0.0,0.0,0.0,0.0,0.0,0.0,0.0,0.0,0.0,0.0,0.0,0.0,0.0,0.0,0.0,0.0,0.0,0.0,0.0,0.0,0.0,0.0,0.0,0.0,0.0,0.0,0.0,0.0,0.0,0.0,0.0,0.0,0.0,0.0,0.0,0.0,0.0,0.0,0.0,0.0,0.0,0.0,0.0,0.0,0.0,-2.3645,-2.3263,0.0,0.0,0.0,0.0,0.0,0.0,0.0,0.0,0.0,0.0,0.0,0.0,0.0,0.0,0.0,0.0,0.0,0.0,0.0,0.0,0.0,0.0,0.0,-4.6047,-4.5754,-4.4889,-4.5157,-4.4954,0.0,0.0,0.0,0.0,0.0,-4.3712,-4.369,-4.3709,-4.3349,-4.2643,-4.3559,-4.3957,-4.3796,-4.3288,-4.1246,-3.7986,-3.7379,0.0,0.0,0.0,0.0,0.0,0.0,0.0,0.0,0.0,0.0,0.0,0.0,0.0,0.0,0.0,0.0,0.0,0.0,0.0,0.0,0.0,0.0,0.0,0.0,0.0,0.0,0.0,0.0,0.0,0.0,0.0,0.0,0.0,0.0,0.0,0.0,0.0,0.0,0.0,0.0,0.0,0.0,0.0,0.0,0.0,0.0,0.0,0.0,0.0,0.0,0.0,0.0,0.0,0.0,0.0,0.0,0.0,0.0,0.0,0.0,0.0,0.0,0.0,-2.8533,-2.8128,-2.7172,-2.7599,-2.7297,-2.6598,-2.5612,-2.4661,-2.3829,-2.4194,0.0,0.0,0.0,0.0,0.0,0.0,0.0,0.0,0.0,0.0,0.0,0.0,0.0,0.0,0.0,0.0,0.0,0.0,0.0,0.0,0.0,-4.6066,-4.5763,-4.4954,-4.6232,-4.6746,-4.5923,0.0,-4.5845,-4.5874,-4.4465,-4.3708,-4.3702,-4.371,-4.3629,-4.3531,-4.4993,-4.5975,-4.6612,-4.7802,-4.7702,-4.6184,-4.1434,-3.9352,-3.9378,0.0,0.0,0.0,0.0,0.0,0.0,0.0,0.0,0.0,0.0,0.0,0.0,0.0,0.0,0.0,0.0,0.0,0.0,0.0,0.0,0.0,0.0,0.0,0.0,0.0,0.0,0.0,0.0,0.0,0.0,0.0,0.0,0.0,0.0,0.0,0.0,0.0,0.0,0.0,0.0,0.0,-3.0205,-3.1369,0.0,0.0,0.0,0.0,0.0,0.0,0.0,0.0,0.0,0.0,0.0,0.0,0.0,-3.0788,-2.9326,-3.0704,-3.0798,-2.9682,-2.9473,-2.9438,-2.9579,-2.9376,-2.9194,-2.9104,-2.8455,0.0,-2.515,-2.448,0.0,0.0,0.0,0.0,0.0,0.0,0.0,0.0,0.0,0.0,0.0,0.0,0.0,0.0,0.0,0.0,0.0,0.0,0.0,0.0,0.0,-4.6523,-4.6675,-4.6341,-4.7868,-4.8514,-4.7723,-4.8119,-4.793,-4.6977,-4.6279,-4.5679,-4.5155,-4.5584,-4.6306,-4.7223,-4.7864,-4.8825,-5.0022,-5.0178,-5.0216,-5.0066,-4.712,-4.5026,-4.3567,-4.1563,0.0,0.0,0.0,0.0,0.0,0.0,0.0,0.0,0.0,0.0,0.0,0.0,0.0,0.0,0.0,0.0,0.0,0.0,0.0,0.0,0.0,0.0,0.0,0.0,0.0,0.0,0.0,0.0,0.0,0.0,0.0,0.0,0.0,0.0,0.0,0.0,0.0,0.0,0.0,-3.1653,-3.3263,-3.3712,-3.5279,-3.5975,0.0,0.0,0.0,0.0,0.0,0.0,0.0,0.0,0.0,-3.1837,-3.2393,-3.2022,-3.0639,-3.1559,-3.1968,-3.1832,-3.153,-3.1621,-3.1819,-3.1258,-3.1027,-3.0981,-3.0049,-2.888,-2.7479,-2.6044,-2.4766,-2.3515,0.0,0.0,0.0,0.0,-1.5171,-1.3336,0.0,0.0,0.0,0.0,0.0,0.0,0.0,0.0,0.0,0.0,0.0,0.0,-4.6756,-4.7345,-4.7829,-4.8054,-4.9683,-5.0413,-4.9796,-5.0204,-4.9864,-4.8543,-4.8118,-4.7595,-4.6992,-4.7762,-4.8889,-5.0343,-5.048,-5.1372,-5.2933,-5.2477,-5.2614,-5.3263,-5.2608,-5.0581,-4.7486,-4.5128,-4.3788,-4.2999,0.0,0.0,0.0,0.0,0.0,0.0,0.0,0.0,0.0,0.0,0.0,0.0,0.0,0.0,0.0,0.0,0.0,0.0,0.0,0.0,0.0,0.0,0.0,0.0,0.0,0.0,0.0,0.0,0.0,0.0,0.0,0.0,0.0,0.0,0.0,0.0,0.0,-3.3972,-3.5792,-3.595,-3.7924,-3.8854,0.0,0.0,0.0,0.0,0.0,0.0,-3.7149,-3.69,-3.5837,-3.3869,-3.4158,-3.3742,-3.2592,-3.3092,-3.3552,-3.4169,-3.3734,-3.3627,-3.3916,-3.3247,-3.2796,-3.2537,-3.1382,-3.0348,-2.9393,-2.7431,-2.5591,-2.3851,-2.1765,-1.9712,-1.7714,-1.5882,-1.3275,-1.0782,0.0,0.0,0.0,0.0,0.0,0.0,0.0,0.0,0.0,0.0,0.0,-4.7651,-4.8474,-4.8624,-4.8989,-4.99,-5.1576,-5.2523,-5.2428,-5.1737,-5.1313,-5.1196,-4.9607,-4.8743,-4.8789,-4.954,-5.0374,-5.1239,-5.1999,-5.318,-5.4788,-5.5564,-5.6319,-5.7039,-5.6961,-5.4823,-5.1047,-4.76,-4.6,-4.5466,-4.2612,0.0,0.0,0.0,0.0,0.0,0.0,0.0,0.0,0.0,0.0,0.0,0.0,0.0,0.0,0.0,0.0,0.0,0.0,0.0,0.0,0.0,0.0,0.0,0.0,0.0,0.0,0.0,0.0,0.0,0.0,0.0,0.0,0.0,0.0,0.0,0.0,0.0,0.0,-3.793,-3.9483,0.0,0.0,0.0,0.0,-4.0385,-3.9351,-3.8752,-3.9064,-3.8034,-3.7102,-3.6328,-3.681,-3.6721,-3.5843,-3.6064,-3.6234,-3.629,-3.5461,-3.5206,-3.5498,-3.5165,-3.4578,-3.3889,-3.2858,-3.1639,-3.0206,-2.7977,-2.6206,-2.4945,-2.4352,-2.2062,-1.892,-1.9259,-1.575,-1.0786,0.0,0.0,0.0,0.0,0.0,0.0,0.0,0.0,-4.8072,-4.7835,-4.8545,-4.9214,-4.9547,-5.1057,-5.2181,-5.2517,-5.4658,-5.575,-5.5159,-5.4339,-5.3643,-5.3108,-5.0871,-4.9922,-5.0508,-5.1297,-5.266,-5.4597,-5.5402,-5.6329,-5.7405,-5.7727,-5.7963,-5.8139,-5.8139,-5.7313,-5.5703,-5.2171,-5.0512,-4.9949,-4.6051,-4.4411,0.0,0.0,0.0,0.0,0.0,0.0,0.0,0.0,0.0,0.0,0.0,0.0,0.0,0.0,0.0,0.0,0.0,0.0,0.0,0.0,0.0,0.0,0.0,0.0,0.0,0.0,0.0,0.0,0.0,0.0,0.0,0.0,0.0,0.0,0.0,0.0,0.0,-3.987,-4.1758,0.0,-4.2565,-4.2927,-4.319,-4.3253,-4.2271,-4.1686,-4.1662,-4.0148,-3.9258,-3.9086,-3.8395,-3.8241,-3.8704,-3.7464,-3.7156,-3.7631,-3.6185,-3.5592,-3.5771,-3.4682,-3.3959,-3.3652,-3.2331,-3.1162,-3.0098,-2.8432,-2.6798,-2.5001,-2.1919,-1.9356,-1.7325,-1.4769,-1.2411,-1.0692,0.0,0.0,0.0,0.0,0.0,0.0,0.0,0.0,-4.8522,-4.8263,-4.9283,-5.0353,-5.1279,-5.2923,-5.4284,-5.5137,-5.7082,-5.7863,-5.701,-5.5918,-5.5059,-5.444,-5.2497,-5.1821,-5.2643,-5.3486,-5.4866,-5.6806,-5.762,-5.8311,-5.8817,-5.91,-5.9196,-5.9099,-5.9082,-5.9145,-5.9128,-5.6154,-5.4101,-5.2571,-4.9272,-4.7796,-4.7154,0.0,0.0,0.0,0.0,0.0,0.0,0.0,0.0,0.0,0.0,0.0,0.0,0.0,0.0,0.0,0.0,0.0,0.0,0.0,0.0,0.0,0.0,0.0,0.0,0.0,0.0,0.0,0.0,0.0,0.0,0.0,0.0,0.0,0.0,-3.7809,-4.0242,-4.1592,-4.3273,-4.4374,-4.4464,-4.5081,-4.547,-4.5516,-4.434,-4.3705,-4.3708,-4.2021,-4.0924,-4.0811,-4.0055,-3.9878,-4.0244,-3.897,-3.8275,-3.8311,-3.692,-3.6109,-3.5794,-3.4682,-3.3959,-3.3549,-3.2307,-3.1287,-3.0324,-2.9085,-2.7747,-2.5853,-2.1665,-1.8783,-1.6926,-1.472,-1.3363,-1.2492,0.0,0.0,0.0,0.0,0.0,0.0,0.0,-4.9123,-4.896,-4.9819,-5.0034,-5.1096,-5.3663,-5.4068,-5.5169,-5.7655,-5.866,-5.8753,-5.7894,-5.6255,-5.5279,-5.5279,-5.4492,-5.442,-5.5255,-5.6145,-5.6931,-5.767,-5.8565,-5.8958,-5.8894,-5.9788,-6.0201,-6.0196,-6.0166,-6.0511,-6.1079,-5.934,-5.6599,-5.3276,-5.2312,-5.0779,-4.8982,0.0,0.0,0.0,0.0,0.0,0.0,0.0,0.0,0.0,0.0,0.0,0.0,0.0,0.0,0.0,0.0,0.0,0.0,0.0,0.0,0.0,0.0,0.0,0.0,0.0,0.0,0.0,0.0,0.0,0.0,0.0,0.0,0.0,-3.6762,-3.8658,-4.0877,-4.29,-4.3905,-4.4726,-4.5516,-4.6124,-4.6649,-4.6925,-4.5387,-4.4601,-4.488,-4.3294,-4.206,-4.1362,-4.1901,-4.1676,-4.0537,-4.0488,-3.9599,-3.8022,-3.7679,-3.6896,-3.5568,-3.5258,-3.4567,-3.3469,-3.2953,-3.2014,-3.0829,-2.9971,-2.892,-2.7404,-2.4013,-2.0818,-1.8214,-2.0023,-1.873,-1.6363,0.0,0.0,0.0,0.0,0.0,0.0,-4.9766,-5.0157,-5.0374,-5.001,-5.1654,-5.3358,-5.4762,-5.6579,-5.825,-5.9568,-5.9904,-5.966,-5.8811,-5.6588,-5.5031,-5.4372,-5.4718,-5.5616,-5.7056,-5.7907,-5.8732,-5.9571,-6.0344,-6.0708,-6.0798,-6.1602,-6.2002,-6.2027,-6.2564,-6.2926,-6.2993,-6.1849,-6.0422,-5.8644,-5.5825,-5.4314,-5.3529,0.0,0.0,0.0,0.0,0.0,0.0,0.0,0.0,0.0,0.0,0.0,0.0,0.0,0.0,0.0,0.0,0.0,0.0,0.0,0.0,0.0,0.0,0.0,0.0,0.0,0.0,0.0,0.0,0.0,0.0,0.0,-3.8091,-3.8705,-3.6569,-3.8213,-4.035,-4.2301,-4.3396,-4.4821,-4.6878,-4.805,-4.8569,-4.8343,-4.688,-4.5838,-4.5432,-4.3327,-4.216,-4.2267,-4.1788,-4.1706,-4.1954,-4.0354,-3.9141,-3.8469,-3.7604,-3.6367,-3.4762,-3.4448,-3.3555,-3.2134,-3.1413,-3.0475,-2.9525,-2.8779,-2.8009,-2.7133,-2.4827,-2.2943,-2.155,-1.9324,-1.7824,-1.7018,0.0,0.0,0.0,0.0,0.0,0.0,-4.9885,-5.0309,-5.051,-5.001,-5.1951,-5.4,-5.562,-5.7495,-5.9095,-6.0271,-6.0412,-5.9738,-5.8147,-5.6671,-5.5467,-5.457,-5.6041,-5.7534,-5.8858,-5.9662,-6.033,-6.0806,-6.1939,-6.216,-6.146,-6.2665,-6.304,-6.2754,-6.3541,-6.3867,-6.3761,-6.2887,-6.2177,-6.1523,-5.9418,-5.7892,-5.6554,-5.4765,-5.3993,-5.3759,-5.2546,-5.1485,-5.0517,-4.9519,0.0,0.0,0.0,0.0,0.0,0.0,0.0,0.0,0.0,0.0,0.0,0.0,0.0,0.0,0.0,0.0,0.0,0.0,0.0,0.0,0.0,0.0,0.0,0.0,-4.0658,-4.118,-3.9526,-4.031,-4.161,-4.3005,-4.399,-4.5266,-4.7036,-4.7959,-4.8328,-4.807,-4.6507,-4.5434,-4.4931,-4.3047,-4.1983,-4.2263,-4.1878,-4.1863,-4.2312,-4.0818,-3.9609,-3.8587,-3.7535,-3.6148,-3.4553,-3.4027,-3.3082,-3.201,-3.1064,-3.0212,-2.9371,-2.8591,-2.7884,0.0,0.0,0.0,0.0,0.0,-2.0121,-2.1241,0.0,0.0,0.0,0.0,0.0,0.0,-5.0091,-5.0052,-5.014,-5.0053,-5.1674,-5.3752,-5.6128,-5.7187,-5.8474,-6.0253,-6.0135,-5.8964,-5.661,-5.636,-5.6093,-5.5625,-5.784,-5.9568,-6.0503,-6.1339,-6.1724,-6.1639,-6.3274,-6.3262,-6.1758,-6.3392,-6.3742,-6.3029,-6.3857,-6.4202,-6.4132,-6.3208,-6.2787,-6.2787,-6.271,-6.1018,-5.8491,-5.7912,-5.7506,-5.7081,-5.5593,-5.4477,-5.3589,-5.2607,0.0,0.0,0.0,0.0,0.0,0.0,0.0,0.0,0.0,0.0,0.0,0.0,0.0,0.0,0.0,0.0,0.0,0.0,0.0,0.0,0.0,0.0,0.0,0.0,-4.3211,-4.4172,-4.4145,-4.4096,-4.4225,-4.4369,-4.5073,-4.5872,-4.651,-4.6961,-4.7145,-4.6831,-4.54,-4.432,-4.3873,-4.2521,0.0,0.0,0.0,-4.1867,-4.1899,-4.1208,-3.9985,-3.8271,-3.7298,-3.61,-3.4539,-3.3693,-3.3007,-3.2405,-3.1428,-3.057,-2.9813,-2.884,-2.8236,-2.7544,-2.4755,-2.23,-2.0597,-2.1545,-2.3762,-2.6252,0.0,0.0,0.0,0.0,0.0,0.0,-5.1063,-5.0984,-5.1055,-5.1039,-5.2558,-5.4128,-5.5419,-5.6328,-5.782,-6.0195,-5.8509,-5.6835,-5.5638,-5.4882,-5.5387,-5.7304,-5.8484,-5.9801,-6.1346,-6.221,-6.2611,-6.253,-6.3581,-6.3932,-6.362,-6.4597,-6.4986,-6.4893,-6.5725,-6.6036,-6.5931,-6.5089,-6.4726,-6.4629,-6.3959,-6.2113,-5.9736,-6.0278,-5.962,-5.8341,-5.8031,-5.7799,-5.7362,-5.5672,-5.4785,-5.3985,-5.1434,-4.9277,0.0,0.0,0.0,0.0,0.0,0.0,0.0,0.0,0.0,0.0,0.0,0.0,0.0,0.0,0.0,0.0,0.0,0.0,0.0,-4.4832,-4.6324,-4.7111,-4.6635,-4.7329,-4.7194,-4.5227,-4.5422,-4.5921,-4.6634,-4.7464,-4.776,-4.7138,-4.6275,-4.5039,-4.3349,-4.2465,-4.1542,-4.0789,-4.0343,-4.0304,-4.0725,-3.9101,-3.7868,-3.7345,0.0,0.0,-3.3987,-3.3333,-3.2462,-3.1449,-3.055,-2.9793,-2.9215,-2.8201,-2.7437,-2.6978,-2.7349,-2.452,-2.0598,-2.3515,-2.3365,-2.2277,0.0,0.0,0.0,0.0,0.0,0.0,-5.0797,-5.068,-5.0706,-5.0712,-5.2211,-5.3639,-5.4564,-5.5423,-5.6445,-5.776,-5.627,-5.5109,-5.4687,-5.5423,-5.6468,-5.7801,-5.9915,-6.1212,-6.1588,-6.3327,-6.3721,-6.2813,-6.4527,-6.4955,-6.4137,-6.5411,-6.5801,-6.5461,-6.6268,-6.6594,-6.6517,-6.5648,-6.5285,-6.5206,-6.4805,-6.3612,-6.208,-6.2447,-6.2067,-6.1252,-6.0825,-6.036,-5.9801,-5.8424,-5.7273,-5.6133,-5.4494,-5.2574,-5.0732,0.0,0.0,0.0,0.0,0.0,0.0,0.0,0.0,0.0,0.0,0.0,0.0,0.0,0.0,-4.3241,-4.5022,0.0,-4.6464,-4.8201,-4.9255,-4.9724,-4.9509,-5.004,-4.9393,-4.6429,-4.6434,-4.6823,-4.692,-4.6995,-4.6823,-4.6447,-4.5698,-4.4748,-4.3721,-4.2838,-4.2059,-4.1411,-4.033,-3.9902,-3.9946,-3.8554,-3.7623,-3.7123,-3.6205,-3.5157,-3.3898,-3.3364,-3.2455,-3.1462,-3.0557,-2.9872,-2.9393,-2.8399,-2.7115,-2.5898,-2.7944,-2.5482,-2.1006,-2.1964,-2.183,-2.1727,0.0,0.0,0.0,0.0,0.0,0.0,0.0,-4.9931,-4.9908,-5.0087,-5.131,-5.2531,-5.3396,-5.3974,-5.4381,-5.4541,-5.4044,-5.3884,-5.4216,-5.6177,-5.7504,-5.8036,-6.0879,-6.2272,-6.1861,-6.4076,-6.4597,-6.3291,-6.56,-6.599,-6.4626,-6.6068,-6.634,-6.5667,-6.6379,-6.668,-6.6567,-6.5867,-6.5555,-6.5555,-6.5555,-6.5193,-6.4597,-6.4478,-6.424,-6.3798,-6.2944,-6.2152,-6.1399,-6.0328,-5.8931,-5.7564,-5.7113,-5.5453,-5.3538,-5.2711,-5.127,0.0,0.0,0.0,0.0,0.0,0.0,0.0,0.0,-4.5162,-4.5645,-4.6392,-4.6373,-4.6814,-4.8748,-4.8942,-4.9326,-5.1176,-5.1589,-5.182,-5.227,-5.2197,-5.1059,-4.8369,-4.8238,-4.8054,-4.7463,-4.6843,-4.6304,-4.604,-4.5341,-4.4781,-4.4517,-4.356,-4.2736,-4.2106,-4.0649,-3.9734,-3.9417,-3.8325,-3.7445,-3.6901,-3.605,-3.5041,-3.3926,-3.3296,-3.2477,-3.1672,-3.0859,-3.0217,-2.9808,-2.9102,-2.7381,-2.5588,-2.7561,-2.5895,-2.2083,-2.1271,-2.1575,-2.3047,0.0,0.0,0.0,0.0,0.0,0.0,0.0,0.0,-4.9302,-5.0008,-5.0266,-5.0703,-5.1584,-5.1144,-5.1063,-5.1765,-5.2459,-5.3504,-5.5042,-5.536,-5.6524,-5.885,-6.0013,-6.13,-6.2734,-6.373,-6.453,-6.5104,-6.6186,-6.6585,-6.639,-6.6689,-6.672,-6.6546,-6.6728,-6.6759,-6.6702,-6.6585,-6.6546,-6.6537,-6.6556,-6.6496,-6.6396,-6.6385,-6.5375,-6.387,-6.2976,-6.2585,-6.216,-6.0416,-5.9668,-5.934,-5.8289,-5.6141,-5.4129,-5.4477,-5.2145,-4.954,-4.9728,-4.8864,-4.7821,-4.7481,-4.7943,-4.852,0.0,-4.8867,-4.8985,-4.915,-4.93,-4.9649,-5.0374,-5.1035,-5.1794,-5.2537,-5.266,-5.3,-5.4059,-5.3119,-5.2261,-5.2179,-5.1069,-4.9709,-4.823,-4.8213,-4.8133,-4.7702,-4.7346,-4.6633,-4.533,-4.4676,-4.3486,-4.1788,-4.0195,-3.9104,-3.8561,-3.6864,-3.607,-3.623,-3.4684,-3.3891,-3.3865,-3.2547,-3.1787,-3.1325,-3.0976,-3.0413,-2.9834,-2.9719,-2.8975,-2.7993,-2.7032,-2.5918,-2.4915,-2.6162,-2.6007,-2.5493,0.0,0.0,0.0,0.0,0.0,0.0,0.0,0.0,0.0,-4.866,-4.949,-5.0076,-4.9973,-4.9628,-4.9785,-5.0586,-5.1435,-5.2478,-5.3715,-5.562,-5.7212,-5.8311,-6.0559,-6.2149,-6.289,-6.4207,-6.5046,-6.5387,-6.6273,-6.6711,-6.6711,-6.7282,-6.729,-6.6767,-6.7329,-6.7251,-6.6767,-6.6767,-6.704,-6.7508,-6.7482,-6.7472,-6.7462,-6.7431,-6.6307,-6.4675,-6.3729,-6.274,0.0,-6.0282,-5.9456,-5.8915,-5.8227,-5.6931,-5.5619,-5.5703,-5.4216,-5.2429,-5.1815,-5.075,-4.9892,-5.0288,-5.0533,-5.0895,-5.1768,-5.1888,-5.2005,-5.2566,-5.2665,-5.3023,-5.4303,-5.4633,-5.5016,-5.5764,-5.5243,-5.4913,-5.5417,-5.3442,-5.207,-5.2349,-5.1038,-4.9846,-4.9094,-4.8872,-4.8632,-4.8148,-4.8168,-4.792,-4.7384,-4.6686,-4.5586,-4.4069,-4.2106,-4.0401,-3.89,-3.7769,-3.6881,-3.6117,-3.5663,-3.5222,-3.4466,-3.3538,-3.2493,-3.1596,-3.1978,-3.1681,-3.0932,-3.0976,-3.0564,-2.9668,-2.8918,-2.8239,-2.7563,-2.6394,-2.6229,-2.6847,0.0,0.0,0.0,0.0,0.0,0.0,0.0,0.0,0.0,0.0,-4.8945,-4.9097,-4.8255,-4.8184,-4.861,-4.9635,-5.0288,-5.133,-5.2929,-5.5326,-5.7112,-5.8109,-6.0512,-6.2258,-6.3232,-6.448,-6.5328,-6.5748,-6.6399,-6.672,-6.6728,-6.7415,-6.7383,-6.683,-6.7461,-6.7539,-6.7142,-6.7142,-6.7649,-6.8429,-6.8397,-6.8193,-6.7959,-6.7676,-6.6357,-6.4582,-6.3832,-6.2609,-6.1143,-5.9895,-5.8703,-5.7718,-5.7443,-5.6726,-5.5951,-5.5777,-5.5093,-5.422,-5.3271,-5.2419,-5.1933,-5.2589,-5.3019,-5.3492,-5.4519,-5.4684,-5.4913,-5.5883,-5.5652,-5.5754,-5.7496,-5.7381,-5.7275,-5.7966,-5.714,-5.6403,-5.6234,-5.3855,-5.2127,-5.2131,-5.0514,-4.9405,-4.9505,-4.9294,-4.9174,-4.9131,-4.9123,-4.9084,-4.9068,-4.8254,-4.7068,-4.5403,-4.3598,-4.1562,-3.931,-3.8618,-3.7791,-3.6657,-3.6675,-3.6136,-3.5285,-3.437,-3.3389,-3.2307,-3.3191,-3.3126,-3.2432,-3.229,-3.1792,-3.0897,-3.0561,-2.9863,-2.8901,-2.6911,-2.6865,-2.7921,0.0,0.0,0.0,0.0,0.0,0.0,0.0,0.0,0.0,0.0,0.0,0.0,0.0,-4.6366,-4.706,-4.8694,-4.8815,-5.0236,-5.365,-5.3883,-5.5433,-5.8802,-5.9074,-6.0672,-6.3984,-6.4101,-6.4968,-6.6672,-6.6736,-6.6791,-6.6811,-6.6829,-6.6829,-6.6811,-6.6829,-6.7292,-6.806,-6.806,-6.8567,-6.9348,-6.9302,-6.8739,-6.792,-6.7073,-6.5122,-6.2885,-6.2782,-6.2075,-6.0948,-5.9127,-5.7352,-5.5864,-5.5775,-5.5086,-5.4254,-5.418,-5.384,-5.361,-5.3973,-5.387,-5.3829,-5.4334,-5.5665,-5.6927,-5.7302,-5.7444,-5.7791,-5.8878,-5.8033,-5.7508,-5.8787,-5.8442,-5.7997,-5.8155,-5.7693,-5.6997,-5.6269,-5.4296,-5.2669,-5.2131,-5.002,-4.8723,-4.9209,-4.9703,-5.029,-5.1145,-5.0547,-5.0109,-5.0028,-4.9021,-4.725,-4.4831,-4.3545,-4.1681,-3.9094,-3.8583,-3.8159,-3.804,-3.6639,-3.6077,-3.6135,-3.4715,-3.3912,-3.3554,-3.4289,-3.4274,-3.3833,-3.3485,-3.2601,-3.1503,-3.1011,-2.9949,-2.8672,-2.9317,-2.9355,-2.9086,0.0,0.0,0.0,0.0,0.0,0.0,0.0,0.0,0.0,0.0,0.0,0.0,0.0,0.0,0.0,0.0,-4.9328,-5.0361,-5.2068,-5.3229,-5.4663,-5.6386,-5.81,-6.0088,-6.2387,-6.3029,-6.3856,-6.5035,-6.5067,-6.5361,-6.5953,-6.6517,-6.6795,-6.6829,-6.742,-6.7844,-6.8078,-6.7492,-6.8078,-6.936,-6.8741,-6.8336,-6.7976,-6.7063,-6.5072,-6.2573,0.0,-5.9498,-5.849,-5.7177,-5.5904,-5.4783,-5.4028,-5.3948,-5.4193,-5.4458,-5.4791,-5.5107,-5.5621,-5.5993,-5.6466,-5.7635,-5.8282,-5.8784,-5.9693,-5.9409,-5.9132,-5.9682,-5.8449,-5.7513,-5.8201,-5.7447,-5.7061,-5.8118,-5.6613,-5.5606,-5.6679,-5.4089,-5.1822,-5.1026,-4.9909,-4.9224,-4.936,-4.9284,-4.9594,-5.0321,-4.9998,-4.9914,-5.0326,-4.8702,-4.739,-4.6668,-4.4573,-4.2595,-4.0623,-3.986,-3.9059,-3.8109,-3.7798,-3.7361,-3.7014,-3.6824,-3.6596,-3.6196,-3.6415,-3.6135,-3.5682,-3.5008,-3.406,-3.2973,-3.2237,-3.1285,-3.0162,-2.9747,-2.9489,-2.9531,0.0,0.0,0.0,0.0,0.0,0.0,0.0,0.0,0.0,0.0,0.0,0.0,0.0,0.0,0.0,0.0,0.0,-5.0205,-5.1678,-5.2528,-5.3658,-5.5139,-5.6775,-5.8451,-6.0165,-6.0768,-6.1634,-6.2812,-6.285,-6.3449,-6.4626,-6.5189,-6.5624,-6.5936,-6.6483,-6.6912,-6.7185,-6.66,-6.7185,-6.8396,-6.75,-6.6978,-6.6588,-6.5299,-6.3414,0.0,-5.8725,-5.7256,-5.6311,-5.5268,-5.411,-5.2931,-5.215,-5.2425,-5.3286,-5.4723,-5.5211,-5.5642,-5.7005,-5.7407,-5.7835,-5.9627,-6.0186,-6.0378,-6.0903,-6.0493,-5.9897,-5.9442,-5.7921,-5.6662,-5.6772,-5.574,-5.524,-5.648,-5.478,-5.3809,-5.5207,-5.262,-5.034,-4.9652,-4.8775,-4.825,-4.845,-4.8326,-4.8974,-5.0486,-5.0519,-5.0275,-5.006,-4.8635,-4.7472,-4.6424,-4.4643,-4.2735,-4.0934,-4.0382,-3.9569,-3.8512,-3.8492,-3.8144,-3.7514,-3.8087,-3.8065,-3.778,-3.7758,-3.7583,-3.7134,-3.6058,-3.4956,-3.3837,-3.3065,-3.2104,-3.1159,-3.0241,-3.0054,-3.0035,0.0,0.0,0.0,0.0,0.0,0.0,0.0,0.0,0.0,0.0,0.0,0.0,0.0,0.0,0.0,0.0,0.0,0.0,-5.2246,-5.1647,-5.2294,-5.4827,-5.5022,-5.584,-5.7477,-5.7594,-5.8468,-6.013,-6.0184,-6.1062,-6.2719,-6.2769,-6.3282,-6.4101,-6.4101,-6.457,-6.539,-6.5312,-6.5741,-6.6405,-6.551,-6.4677,-6.3733,-6.1987,-6.025,-5.8518,-5.6706,-5.5482,-5.4486,-5.3571,-5.2008,-5.0457,-5.0312,-5.0684,-5.1726,-5.4759,-5.5187,-5.5272,-5.8084,-5.8256,-5.8164,-6.0361,-6.136,-6.1667,-6.0993,-6.0646,-6.0041,-5.8345,-5.6541,-5.5059,-5.4411,-5.3275,-5.2661,-5.3271,-5.2351,-5.1722,-5.2146,-5.0115,-4.8428,-4.8101,-4.6834,-4.604,-4.6547,-4.6899,-4.842,-5.1643,-5.1826,-5.1027,-4.941,-4.8787,-4.7272,-4.437,-4.3713,-4.2375,-4.0223,-4.0106,-3.9752,-3.9052,-3.8687,-3.8218,-3.7724,-3.8341,-3.8464,-3.8139,-3.8486,-3.8363,-3.7993,-3.6576,-3.5273,-3.4253,-3.3262,-3.2369,-3.1414,-3.1011,-3.0846,-3.0696,0.0,0.0,0.0,0.0,0.0,0.0,0.0,0.0,0.0,0.0,0.0,0.0,0.0,0.0,0.0,0.0,0.0,0.0,-4.9652,-4.9517,-5.003,-5.1342,-5.2582,-5.3791,-5.4866,-5.6129,-5.701,-5.7453,-5.7473,-5.8036,-5.9139,-5.9807,-6.0549,-6.1408,-6.1408,-6.1876,-6.2618,-6.132,-6.1236,-6.1939,-6.1049,-6.0527,-6.0208,-5.9104,-5.8003,-5.6792,-5.5009,-5.3684,-5.2752,-5.2358,-5.1344,-5.0278,-5.0734,-5.1367,-5.2288,-5.4209,-5.5801,-5.7417,-5.9275,-6.037,-6.1226,-6.2345,-6.2401,-6.2022,-6.1251,-6.0249,-5.8882,-5.6804,-5.4737,-5.2748,-5.0952,-4.9718,-4.9241,-5.0118,-4.9151,-4.8987,-5.1121,-4.9773,-4.8413,-4.8035,-4.7394,-4.7202,-4.7404,-4.7542,-4.8218,-4.99,-4.8925,-4.8676,-4.933,-4.6783,-4.5277,-4.5437,-4.3473,-4.1834,-4.0571,-3.9638,-3.8999,-3.8559,-3.8439,-3.8497,-3.8709,-3.8831,-3.9154,-3.9388,-3.9241,-3.8619,-3.7888,-3.721,-3.6022,-3.4599,-3.407,-3.3404,-3.268,-3.1964,-3.1949,-3.2335,0.0,0.0,0.0,0.0,0.0,0.0,0.0,0.0,0.0,0.0,0.0,0.0,0.0,0.0,0.0,0.0,0.0,0.0,0.0,-4.8425,-4.8632,-4.9484,-5.042,-5.1356,-5.22,-5.3189,-5.406,-5.4807,-5.4819,-5.5455,-5.6714,-5.7187,-5.7894,-5.8714,-5.8714,-5.8987,-5.9417,-5.8392,-5.8231,0.0,0.0,-5.7315,-5.7221,-5.632,-5.5686,-5.5019,-5.3598,-5.2392,-5.1472,-5.1698,-5.1262,-5.081,-5.2238,-5.2961,-5.3559,-5.5353,-5.7042,-5.8689,-6.0083,-6.1322,-6.2327,-6.2866,-6.2215,-6.109,-6.0076,-5.8254,-5.6129,-5.3635,-5.176,-4.9926,-4.7792,-4.6633,-4.6255,-4.6919,-4.6398,-4.6578,-4.8854,-4.807,-4.7363,-4.7516,-4.7387,-4.7167,-4.7078,-4.7492,-4.7933,-4.8296,-4.8097,-4.7869,-4.7559,-4.5504,-4.4097,-4.3707,-4.219,-4.0932,-4.0106,-3.9254,-3.8792,-3.8452,-3.8452,-3.8586,-3.8853,-3.9219,-3.9489,-3.9837,-3.9663,-3.9234,-3.8611,-3.779,-3.6829,-3.578,-3.504,-3.4665,-3.4463,-3.3643,-3.3841,-3.4604,0.0,0.0,0.0,0.0,0.0,0.0,0.0,0.0,0.0,0.0,0.0,0.0,0.0,0.0,0.0,0.0,0.0,0.0,0.0,0.0,-4.7657,-4.841,-4.8566,-4.8995,-4.9736,-4.9853,-5.0712,-5.2272,-5.2322,-5.3186,-5.4786,-5.4884,-5.5357,-5.6094,-5.6098,-5.602,-5.5903,-5.5733,-5.5572,-5.541,-5.4638,-5.4336,-5.4273,0.0,-5.3152,-5.2926,-5.2182,-5.1331,-5.0696,-5.1476,-5.1586,-5.1744,-5.3951,-5.4635,-5.5112,-5.7192,-5.8465,-5.9437,-6.0809,-6.1707,-6.2308,-6.2278,-6.1042,-5.9348,-5.7675,-5.5395,-5.2858,-4.9859,-4.8479,-4.7181,-4.5112,-4.4131,-4.3851,-4.4257,-4.4141,-4.4704,-4.6622,-4.6207,-4.6058,-4.7195,-4.6991,-4.6724,-4.6469,-4.7309,-4.7673,-4.7063,-4.8035,-4.7681,-4.5458,-4.4667,-4.3228,-4.1012,-4.0459,-3.9915,-3.9308,-3.919,-3.8975,-3.8608,-3.8741,-3.8886,-3.8842,-3.9466,-3.9836,-3.9824,-4.0002,-3.9932,-3.9509,-3.8255,-3.753,-3.7125,-3.5952,-3.5887,-3.6077,-3.5496,-3.5874,-3.6799,0.0,0.0,0.0,0.0,0.0,0.0,0.0,0.0,0.0,0.0,-4.7601,-4.7171,0.0,0.0,0.0,0.0,0.0,0.0,0.0,0.0,0.0,-4.6655,-4.7328,-4.7796,-4.7942,-4.8644,-4.9508,-5.0533,-5.0533,-5.1089,-5.2073,-5.2819,-5.321,-5.3366,-5.3366,-5.2971,-5.226,-5.1503,-5.0745,-5.0049,-4.987,-4.9798,-4.98,-5.0342,0.0,0.0,-4.971,-5.0164,-5.0811,-5.2079,-5.2425,-5.2547,-5.3459,-5.4623,-5.5927,-5.7377,-5.8839,-6.0248,-6.1656,-6.2382,-6.2353,-6.0243,-5.9024,-5.7418,-5.4182,-5.2673,-5.1106,-4.8198,-4.7317,-4.6234,-4.368,-4.2879,-4.2849,-4.3773,-4.3303,-4.3976,-4.7313,-4.6123,-4.5921,-4.8505,-4.7486,-4.705,-4.8085,-4.7824,-4.7347,-4.6909,-4.6184,-4.582,-4.5821,-4.3955,-4.2393,-4.1225,-4.0058,-3.9451,-3.9308,-3.919,-3.9075,-3.8975,-3.9926,-4.0208,-4.0072,-4.068,-4.0606,-3.998,-4.0192,-3.9608,-3.8466,-3.7966,-3.7397,-3.6739,-3.6312,-3.6112,-3.6276,-3.6425,-3.6848,-3.7168,0.0,0.0,0.0,0.0,0.0,0.0,0.0,-4.9727,-4.9121,-4.8281,-4.7796,-4.7172,-4.6287,-4.6183,-4.6201,0.0,0.0,0.0,0.0,0.0,0.0,0.0,-4.7507,-4.7903,-4.8811,-4.8811,-4.944,-5.0781,0.0,-5.098,-5.1414,-5.1843,-5.2034,-5.2021,-5.2025,-5.1781,-5.1284,-5.0413,-4.9769,-4.9262,-4.8807,-4.8875,-4.9159,-4.9186,0.0,0.0,-4.9721,-5.0159,-5.0626,-5.1724,-5.2589,-5.3508,-5.5042,-5.6317,-5.7469,-5.8876,-6.0037,-6.106,-6.1945,-6.1976,-6.1263,-5.9253,-5.6473,-5.3668,-5.1503,-4.9052,-4.6787,-4.5139,-4.4874,-4.4445,-4.2593,-4.2432,-4.2731,-4.3011,-4.2997,-4.3717,-4.5863,-4.5844,-4.6431,-4.844,-4.8009,-4.7963,-4.8661,-4.8125,-4.7539,-4.7129,-4.5741,-4.467,-4.4235,-4.2409,-4.1169,-4.0622,-3.9936,-3.9711,-3.9623,-3.9848,-3.9971,-3.9989,-4.086,-4.1203,-4.1103,-4.1474,-4.1315,-4.0995,-4.0889,-4.0265,-3.944,-3.8989,-3.8556,-3.8216,-3.7623,-3.7643,-3.8053,-3.798,-3.8485,-3.9232,0.0,0.0,0.0,0.0,0.0,0.0,0.0,-4.9245,-4.8798,-4.8816,-4.8359,-4.7799,-4.7099,-4.6872,-4.6768,0.0,0.0,0.0,0.0,0.0,0.0,0.0,0.0,0.0,-4.9801,0.0,0.0,-5.1102,-5.1102,0.0,0.0,0.0,0.0,0.0,-5.138,-5.1167,-5.0728,-5.0221,-4.972,0.0,0.0,-4.8643,-4.9044,0.0,0.0,0.0,0.0,-5.0281,-5.0412,-5.1154,-5.2346,-5.3803,-5.5686,-5.7262,-5.8638,-5.9703,-6.0596,-6.1279,-6.153,-6.0877,-5.9627,-5.7565,-5.3697,-5.0066,-4.8768,-4.5753,-4.3205,-4.2724,-4.3166,-4.338,-4.247,-4.2894,-4.3374,-4.3567,-4.3529,-4.4008,-4.5608,-4.6185,-4.7061,-4.8483,-4.8688,-4.8646,-4.8653,-4.8182,-4.7466,-4.6736,-4.5206,-4.3848,-4.2685,-4.1298,-4.0552,-4.0525,-4.0304,-4.0197,-4.0329,-4.0822,-4.1069,-4.1321,-4.2192,-4.2518,-4.2275,-4.2373,-4.2231,-4.2126,-4.1651,-4.1124,-4.0646,-4.0147,-3.9714,-3.9674,-3.8903,-3.9126,-3.9818,-3.9516,-4.0124,-4.098,0.0,0.0,0.0,0.0,0.0,0.0,0.0,-4.8833,-4.8806,-4.8808,-4.9411,-4.9844,-4.9764,-4.9025,-4.8548,0.0,0.0,0.0,0.0,0.0,0.0,0.0,0.0,0.0,0.0,0.0,0.0,-5.0204,-5.0204,0.0,0.0,0.0,0.0,0.0,0.0,-5.0491,-4.8997,-4.9698,0.0,0.0,0.0,0.0,0.0,0.0,0.0,0.0,0.0,-4.9656,-5.0302,-5.0988,-5.1764,-5.2483,-5.2621,-5.5309,-5.8339,-5.8127,-5.9098,-6.0157,-5.976,-5.9042,-5.7526,-5.3814,-5.0807,-4.7977,-4.5303,-4.404,-4.327,-4.2981,-4.3886,-4.4673,-4.4457,-4.4325,-4.4929,-4.7076,-4.5633,-4.5666,-4.9521,-4.7971,-4.7552,-5.0218,-4.931,-4.861,-4.8711,-4.7515,-4.6217,-4.4996,-4.3797,-4.2904,-4.2756,-4.1911,-4.1535,-4.196,-4.1242,-4.103,-4.1655,-4.2192,-4.2571,-4.2898,-4.421,-4.4394,-4.3693,-4.3985,-4.3621,-4.2834,-4.2514,-4.1912,-4.082,-4.0412,-3.9982,-3.9714,-3.9241,-3.955,-4.0269,-4.0506,-4.0759,-4.1135,0.0,0.0,0.0,0.0,0.0,0.0,-4.9588,-4.9562,-4.9775,-5.0299,-5.0686,-5.1089,-5.1597,-5.1365,-5.0529,-4.8946,0.0,0.0,0.0,0.0,0.0,0.0,0.0,0.0,0.0,0.0,-4.8712,-5.0087,-5.0087,0.0,0.0,0.0,0.0,0.0,0.0,-4.9629,-4.9391,-4.9236,0.0,0.0,0.0,0.0,0.0,0.0,0.0,0.0,0.0,0.0,-5.0101,-5.0339,-5.0885,-5.1345,-5.0673,-5.2569,-5.535,-5.6814,-5.7825,-5.8762,-5.9952,-5.9077,-5.6957,-5.3262,-4.9459,-4.6101,-4.436,-4.2671,-4.1814,-4.2921,-4.4461,-4.552,-4.5284,-4.5791,-4.6415,-4.6852,-4.6013,-4.6033,-4.7995,-4.7252,-4.7382,-4.9883,-4.9115,-4.877,-4.9443,-4.7634,-4.5613,-4.3458,-4.3075,-4.2798,-4.2927,-4.2862,-4.2879,-4.2752,-4.3242,-4.3435,-4.3376,-4.4501,-4.5048,-4.5097,-4.6034,-4.6264,-4.5668,-4.5231,-4.4748,-4.4108,-4.3324,-4.2581,-4.1855,-4.1431,-4.1289,-4.1004,-4.0862,-4.0838,-4.1011,-4.1241,-4.1538,-4.1939,0.0,0.0,0.0,0.0,0.0,-4.9987,-4.9995,-5.0056,-5.0426,-5.1291,-5.1635,-5.1925,-5.228,-5.2563,-5.1755,-4.9372,-4.943,0.0,0.0,0.0,0.0,0.0,0.0,0.0,0.0,0.0,-4.8478,-4.9735,-4.9735,-4.9415,0.0,0.0,-4.9685,-4.9598,0.0,0.0,0.0,0.0,0.0,0.0,0.0,0.0,0.0,0.0,0.0,0.0,0.0,0.0,0.0,0.0,0.0,-5.0221,-4.9145,-5.0101,-5.2117,-5.4535,-5.5843,-5.6847,-5.8068,-5.7507,-5.5749,-5.2396,-4.8467,-4.503,-4.385,-4.2243,-4.1498,-4.332,-4.5277,-4.6715,-4.683,-4.7329,-4.7709,-4.7375,-4.6812,-4.6698,-4.7541,-4.7265,-4.7484,-4.9125,-4.8472,-4.8202,-4.8827,-4.6954,-4.49,-4.2869,-4.2824,-4.2822,-4.2877,-4.3303,-4.3593,-4.341,-4.4556,-4.491,-4.446,-4.5783,-4.6427,-4.6492,-4.7214,-4.7423,-4.7143,-4.6378,-4.5708,-4.5225,-4.4191,-4.3272,-4.2721,-4.2441,-4.2074,-4.1784,-4.1796,-4.1433,-4.1259,-4.1407,-4.1617,-4.2122,0.0,0.0,0.0,0.0,0.0,0.0,-4.9995,-5.0073,-5.04,-5.1297,-5.2168,-5.2363,-5.1513,-5.2181,-5.198,-5.0239,-5.0898,0.0,0.0,0.0,0.0,0.0,0.0,0.0,0.0,0.0,-4.8798,-4.8798,-4.8798,-4.8825,-4.88,-4.88,-4.8776,-4.8716,0.0,0.0,0.0,0.0,0.0,0.0,0.0,0.0,0.0,0.0,0.0,0.0,0.0,0.0,0.0,0.0,0.0,0.0,0.0,-4.8085,-4.9012,-5.0748,-5.2784,-5.4216,-5.317,-5.346,-5.331,-5.0317,-4.756,-4.5159,-4.3556,-4.301,-4.3192,-4.4352,-4.6449,-4.8406,-4.9564,-4.8942,-4.8607,-4.9597,-4.8301,-4.7794,-4.9486,-4.8868,-4.8211,-4.8355,-4.7466,-4.6583,-4.6072,-4.4944,-4.3971,-4.3347,-4.31,-4.291,-4.2855,-4.3023,-4.3404,-4.431,-4.4684,-4.4687,-4.4612,-4.5622,-4.6243,-4.6656,-4.7607,-4.7981,-4.7957,-4.7283,-4.6586,-4.6081,-4.5247,-4.428,-4.3141,-4.3141,-4.244,-4.1252,-4.1216,-4.1012,-4.0869,-4.0573,-4.0977,-4.1604,0.0,0.0,0.0,0.0,0.0,0.0,0.0,-5.0959,-5.1089,-5.138,-5.1642,-5.1479,-5.0628,-5.1291,-5.1096,-4.9357,-5.0565,0.0,0.0,0.0,0.0,0.0,0.0,0.0,0.0,0.0,-4.7393,-4.7978,-4.7932,-4.7606,-4.7045,-4.7618,-4.7852,-4.7729,-4.7184,-4.7201,0.0,0.0,0.0,0.0,0.0,0.0,-4.9817,0.0,0.0,0.0,0.0,0.0,0.0,0.0,0.0,0.0,0.0,0.0,0.0,-4.8626,-5.0065,-5.1592,-5.1765,-5.1838,-5.0945,-4.6996,-4.5165,-4.3906,-4.2201,-4.2479,-4.3641,-4.5735,-4.7933,-4.9764,-5.0581,-5.0196,-4.9761,-4.9567,-4.8907,-4.8285,-4.7922,-4.8365,-4.8751,-4.8834,-4.8626,-4.7856,-4.6155,-4.5234,-4.4136,-4.2627,-4.2227,-4.2001,-4.197,-4.2113,-4.2532,-4.3004,-4.4254,-4.4937,-4.499,-4.6417,-4.7557,-4.8099,-4.8567,-4.8967,-4.8991,-4.8029,-4.7353,-4.6982,-4.5737,-4.4799,-4.4228,-4.3618,-4.2901,-4.2257,-4.1794,-4.1372,-4.0979,-4.1194,-4.1476,-4.2033,0.0,0.0,0.0,0.0,0.0,0.0,0.0,-5.1089,-5.0901,-5.0907,-5.0628,-5.0075,-4.9211,-4.9919,-4.9848,-4.8437,-4.9591,0.0,0.0,0.0,0.0,0.0,0.0,0.0,-4.7098,-4.6585,-4.6577,-4.712,-4.7073,-4.6908,-4.6694,-4.7267,-4.7611,-4.7748,-4.6921,-4.6973,0.0,0.0,0.0,0.0,0.0,0.0,-5.0645,0.0,0.0,0.0,0.0,0.0,0.0,0.0,0.0,0.0,0.0,0.0,0.0,0.0,-4.8587,-4.9503,-4.9739,-5.0016,-4.9388,-4.5834,-4.462,-4.4019,-4.275,-4.312,-4.4511,-4.7102,-4.8785,-5.0076,-5.1104,-5.0329,-4.9372,-4.8818,-4.8344,-4.7817,-4.7077,-4.8039,-4.8688,-4.839,-4.7911,-4.7024,-4.5453,-4.4911,-4.3893,-4.2323,-4.184,-4.1523,-4.142,-4.1377,-4.1471,-4.1801,-4.3522,-4.4454,-4.4654,-4.6139,-4.7448,-4.8278,-4.8958,-4.9551,-5.017,-4.9054,-4.8534,-4.8187,-4.6791,-4.5665,0.0,-4.4118,-4.3238,-4.2276,-4.1859,-4.1342,-4.0938,-4.1144,-4.1589,-4.2276,0.0,0.0,0.0,0.0,0.0,0.0,0.0,-5.0615,-5.0075,-5.0009,-4.9244,-4.8373,-4.7489,-4.8191,-4.8347,-4.7489,0.0,0.0,0.0,0.0,0.0,0.0,0.0,0.0,-4.6289,-4.6284,-4.6312,-4.6378,-4.6378,-4.6796,-4.7591,-4.7591,-4.793,-4.8564,-4.7766,-4.7765,0.0,0.0,0.0,0.0,-4.9103,-4.9894,0.0,0.0,0.0,0.0,0.0,0.0,0.0,0.0,0.0,0.0,0.0,0.0,0.0,0.0,0.0,0.0,0.0,-4.7994,-4.8323,-4.6068,-4.5329,-4.5003,-4.4448,-4.4657,0.0,-4.8229,-4.8931,-4.9539,-5.1121,-4.9575,-4.7938,-4.766,-4.7004,-4.666,-4.6873,-4.7799,-4.8119,-4.7441,-4.5892,-4.4788,-4.4207,-4.391,-4.3424,-4.2598,-4.1997,-4.1468,-4.1172,-4.085,-4.0735,-4.0735,-4.2347,-4.3263,-4.3755,-4.4819,-4.612,-4.7533,-4.8363,-4.9816,-5.1383,-5.0161,-4.9669,-4.9669,-4.83,-4.6547,-4.4631,-4.4387,-4.3295,-4.1729,-4.1392,-4.1158,-4.0976,-4.0854,-4.1378,-4.2337,0.0,0.0,0.0,0.0,0.0,0.0,0.0,0.0,0.0,0.0,-4.8347,-4.7483,-4.6612,-4.7301,-4.7468,0.0,0.0,0.0,0.0,0.0,0.0,0.0,0.0,0.0,-4.6289,-4.6289,-4.6635,-4.7276,-4.7237,-4.7654,-4.8488,-4.8476,-4.8546,-4.8603,-4.8399,-4.832,0.0,0.0,0.0,0.0,-4.9174,-4.9581,0.0,0.0,0.0,0.0,-5.0163,-4.9997,0.0,0.0,0.0,0.0,0.0,0.0,0.0,0.0,-4.7665,-4.6862,-4.6236,0.0,-4.5301,-4.3297,-4.327,-4.3416,0.0,-4.4077,-4.6266,-4.7226,-4.8434,-4.9577,-5.0508,-4.9376,-4.8188,-4.7842,-4.7327,-4.6882,-4.6418,-4.6946,-4.734,-4.7309,-4.669,-4.5851,-4.4711,-4.4361,-4.3797,-4.2949,-4.2046,-4.1468,-4.1172,-4.0595,-4.0595,-4.1081,-4.142,-4.1947,-4.2637,-4.3545,-4.4972,-4.7066,-4.7543,-4.8898,-5.0902,-4.9931,-4.9775,-5.0149,-4.8788,-4.7327,-4.5562,-4.4887,-4.3546,-4.208,-4.1565,-4.1588,-4.1752,-4.1745,-4.26,-4.3738,0.0,0.0,0.0,0.0,0.0,0.0,0.0,0.0,0.0,0.0,0.0,-4.6709,-4.6229,-4.6649,0.0,0.0,0.0,0.0,0.0,0.0,0.0,0.0,0.0,-4.6309,-4.6284,-4.6289,-4.6522,-4.6983,-4.7361,-4.8166,-4.9401,-4.9385,-4.9769,-5.0354,-4.9536,-4.8732,0.0,0.0,0.0,-4.8415,-4.9186,0.0,0.0,0.0,0.0,0.0,-5.0139,-4.9971,0.0,-4.8506,-4.8385,-4.8531,0.0,0.0,0.0,0.0,-4.7865,-4.7157,-4.6484,-4.5387,-4.4182,-4.2911,-4.2739,-4.2985,-4.3391,-4.5026,-4.6847,-4.8256,-4.8783,-4.9188,-4.9591,-4.8223,-4.684,-4.6219,-4.587,-4.5718,-4.5845,-4.6,-4.6425,-4.72,-4.6413,-4.5641,-4.4941,-4.4222,-4.3551,-4.2862,-4.2213,-4.1727,-4.129,-4.0925,-4.0691,-4.0789,-4.0789,-4.1419,-4.2517,-4.3381,-4.4691,-4.6412,-4.7059,-4.8508,-5.0507,-4.9822,-4.9875,-5.0359,-4.914,-4.753,-4.5744,-4.5084,-4.382,-4.2421,-4.2147,-4.2217,-4.2712,-4.2824,-4.3602,-4.4748,0.0,0.0,0.0,0.0,0.0,0.0,0.0,0.0,0.0,0.0,0.0,0.0,0.0,0.0,0.0,0.0,0.0,0.0,0.0,0.0,0.0,0.0,-4.6495,-4.6456,-4.6303,-4.6285,-4.6367,-4.6484,-4.7369,-4.8677,-5.0317,-5.0416,-5.1239,-5.2464,-5.0947,-4.9337,-4.775,-4.8424,-4.8619,-4.8488,-4.9235,0.0,0.0,0.0,0.0,0.0,0.0,0.0,0.0,-4.8326,-4.8174,-4.8384,-4.7752,0.0,0.0,0.0,0.0,0.0,-4.6861,-4.5613,-4.4338,-4.392,-4.3297,-4.344,-4.5682,-4.651,-4.7512,-4.9677,-4.9436,-4.8843,-4.8873,-4.7249,-4.5589,-4.477,-4.4524,-4.4744,-4.5713,-4.5665,-4.5903,-4.6958,-4.583,-4.5064,-4.4992,-4.4141,-4.3305,-4.2724,-4.2289,-4.1892,-4.1447,-4.1422,-4.1041,-4.0477,-4.0477,-4.109,-4.2528,-4.3391,-4.4402,-4.5396,-4.6577,-4.8163,-5.0089,-4.9515,-4.9759,-5.0699,-4.947,-4.7815,-4.581,-4.541,-4.4394,-4.3044,-4.28,-4.3184,-4.3738,-4.3932,-4.4587,-4.5581,0.0,0.0,0.0,0.0,0.0,0.0,0.0,0.0,0.0,0.0,0.0,0.0,0.0,0.0,0.0,0.0,0.0,0.0,0.0,0.0,0.0,-4.7471,-4.7393,-4.7048,-4.6319,-4.6282,-4.6678,-4.7383,-4.8265,-4.9575,-5.1215,-5.1956,-5.2395,-5.2567,-5.2242,-5.1141,-4.9493,-4.9637,-4.9213,-4.8567,-4.9364,0.0,0.0,0.0,0.0,0.0,0.0,0.0,0.0,-4.7747,-4.7927,-4.8414,-4.6063,0.0,0.0,0.0,0.0,0.0,-4.5284,-4.5329,-4.5578,-4.5545,-4.4942,-4.4823,-4.6189,-4.7428,-4.8404,-4.9089,-4.932,-4.9416,-4.9248,-4.8726,-4.7886,-4.6714,-4.675,-4.6913,-4.6841,-4.72,-4.7157,-4.644,-4.5999,-4.5384,-4.4559,-4.4248,-4.3943,-4.331,-4.2787,-4.2263,-4.1987,-4.1736,-4.1355,-4.0818,-4.0794,-4.0918,-4.1161,-4.2013,-4.2897,-4.3787,-4.5012,-4.6804,-4.9223,-4.8927,-4.9508,-5.0751,-5.0285,-4.8811,-4.6579,-4.6502,-4.55,-4.4061,-4.4068,-4.4396,-4.4964,-4.5261,-4.5928,-4.7252,0.0,0.0,0.0,0.0,0.0,0.0,0.0,0.0,0.0,0.0,0.0,0.0,0.0,0.0,0.0,0.0,0.0,0.0,0.0,0.0,-4.9536,-4.8318,-4.8248,-4.7865,-4.7012,-4.6981,-4.7652,-4.8984,-4.9841,-5.1118,-5.2819,-5.321,-5.3108,-5.2582,-5.206,-5.1122,-4.9974,-5.0441,-5.0076,-4.9278,0.0,0.0,0.0,0.0,0.0,0.0,0.0,0.0,0.0,0.0,-4.7542,-4.771,-4.554,0.0,0.0,0.0,0.0,0.0,-4.5146,-4.4858,-4.4722,-4.589,-4.6028,-4.6192,-4.7134,-4.8193,-4.9158,-4.9813,-5.0014,-4.9981,-4.9912,-4.9202,-4.8474,-4.7929,-4.8015,-4.8168,-4.7848,-4.7848,-4.7643,-4.6951,-4.6434,-4.5813,-4.5099,-4.4673,-4.4197,-4.3457,-4.3011,-4.2526,-4.1892,-4.1643,-4.1027,-4.0196,-4.0171,-4.0119,-4.0028,-4.1171,-4.2283,-4.3521,-4.4526,-4.6204,-4.8391,-4.8626,-4.9469,-5.0621,-5.0131,-4.8957,-4.7377,-4.6926,-4.6003,-4.483,-4.4938,-4.5261,-4.5742,-4.6781,-4.843,-5.0538,0.0,0.0,0.0,0.0,0.0,0.0,0.0,0.0,0.0,0.0,0.0,0.0,0.0,0.0,0.0,0.0,0.0,0.0,0.0,-5.0274,-4.9926,-4.8864,-4.899,-4.8642,-4.7627,-4.7988,-4.886,-5.0193,-5.1211,-5.2614,-5.431,-5.4307,-5.3821,-5.2883,-5.2025,-5.1133,-5.0334,-5.0753,-5.0614,-5.0158,0.0,0.0,0.0,0.0,0.0,0.0,0.0,0.0,0.0,0.0,0.0,0.0,0.0,0.0,0.0,-4.4479,-4.4163,-4.4097,-4.4751,-4.4531,-4.4373,-4.5626,-4.6385,-4.7087,-4.8274,-4.9224,-5.0281,-5.1382,-5.1434,-5.1288,-5.1214,-5.0224,-4.9313,-4.941,-4.9488,-4.9582,-4.9391,-4.9057,-4.8677,-4.8201,-4.7504,-4.6751,-4.6062,-4.5338,-4.4526,-4.3635,-4.3174,-4.2563,-4.1694,-4.1471,-4.0758,-3.955,-3.9501,-3.9291,-3.905,-4.0333,-4.1752,-4.317,-4.4219,-4.5704,-4.7725,-4.8265,-4.922,-5.0515,-5.0037,-4.9301,-4.8299,-4.7775,-4.697,-4.5929,-4.6115,-4.6434,-4.691,-4.8714,-5.1308,-5.428,0.0,0.0,0.0,0.0,0.0,0.0,0.0,0.0,0.0,0.0,0.0,0.0,0.0,0.0,0.0,0.0,0.0,0.0,0.0,-5.0859,-5.0555,-4.8876,-4.9579,-4.9267,-4.7627,-4.9111,-4.9969,-5.0126,-5.1794,-5.3514,-5.5224,-5.5208,-5.4728,-5.3855,-5.298,-5.2097,-5.1156,-5.0421,-5.0441,-5.0957,-5.0196,0.0,0.0,0.0,0.0,0.0,0.0,0.0,0.0,0.0,0.0,0.0,0.0,0.0,-4.5625,-4.3539,-4.3812,-4.4414,-4.2929,-4.4579,-4.6374,-4.4899,-4.5499,-4.6974,-4.9276,-5.09,-5.2356,-5.389,-5.4113,-5.3889,-5.3705,-5.2599,-5.1734,-5.1784,-5.1727,-5.1683,-5.1858,-5.1844,-5.1337,-5.0218,-4.9586,-4.8789,-4.746,-4.6193,-4.5187,-4.4244,-4.3162,-4.2263,-4.1672,-4.1329,-4.0643,-3.9253,-3.9181,-3.879,-3.8104,-3.9218,-4.0639,-4.2365,-4.3687,-4.5459,-4.7504,-4.7725,-4.8814,-5.0487,-5.0683,-5.0409,-4.983,-4.983,-4.9114,-4.8039,-4.8039,-4.8326,-4.8977,-5.0919,-5.4132,-5.7695,0.0,0.0,0.0,0.0,0.0,0.0,0.0,0.0,0.0,0.0,0.0,0.0,0.0,0.0,0.0,0.0,0.0,0.0,0.0,-5.0698,-5.0313,-4.9657,-4.993,-4.9813,-4.9189,-5.0321,-5.1726,-5.3327,-5.4528,-5.5195,-5.5272,-5.4747,-5.4025,-5.3162,-5.2289,-5.1674,-5.1281,-5.0879,-5.0848,-5.1024,-5.0726,-5.065,0.0,0.0,0.0,0.0,0.0,0.0,0.0,0.0,-4.7631,-4.725,-4.5059,-4.442,-4.4262,-4.3214,-4.3459,-4.4068,-4.4132,-4.5451,-4.6795,-4.699,-4.8483,-5.0026,-5.0291,-5.1891,-5.3556,-5.4482,-5.4974,-5.5345,-5.5614,-5.5557,-5.5317,-5.5065,-5.4844,-5.4638,-5.456,-5.3743,-5.274,-5.1783,-5.0488,-4.9297,-4.808,-4.7017,-4.5917,-4.4903,-4.3726,-4.2692,-4.1885,-4.1249,-4.0402,-3.9439,-3.9504,-3.9229,-3.8503,-3.9575,-4.0699,-4.1757,-4.3085,-4.4935,-4.6807,-4.7325,-4.8518,-5.0463,-5.0354,-5.0325,-5.0321,-5.0103,-4.9497,-4.8752,-4.9175,-4.9715,-5.0663,-5.2278,-5.5411,-5.8958,0.0,0.0,0.0,0.0,0.0,0.0,0.0,0.0,0.0,0.0,0.0,0.0,0.0,0.0,0.0,0.0,0.0,0.0,-5.1391,-5.085,-5.0269,-4.9696,-4.9965,-5.0083,-5.0087,-5.0945,-5.2546,-5.4888,-5.6044,-5.6131,-5.5273,-5.4406,-5.3692,-5.3061,-5.1913,-5.1536,-5.1693,-5.1092,-5.0947,-5.1062,-5.0817,-5.0743,0.0,0.0,0.0,0.0,0.0,0.0,0.0,0.0,-4.7577,-4.7023,-4.5187,-4.4192,-4.3721,-4.3419,-4.3724,-4.43,-4.4864,-4.598,-4.7295,-4.8325,-5.0524,-5.2446,-5.2562,-5.3874,-5.5281,-5.6091,-5.6505,-5.692,-5.72,-5.7721,-5.8012,-5.7453,-5.7152,-5.6915,-5.6518,-5.522,-5.3847,-5.2787,-5.1365,-5.0051,-4.8749,-4.7675,-4.6508,-4.536,-4.402,-4.2837,-4.1873,-4.1046,-4.0176,-3.938,-3.9585,-3.9427,-3.8598,-4.0,-4.0923,-4.1436,-4.2853,-4.4594,-4.6461,-4.7109,-4.8624,-5.0816,-5.0513,-5.098,-5.1702,-5.1092,-5.0453,-5.0029,-5.0572,-5.1335,-5.2349,-5.4849,-5.7678,-6.0509,0.0,0.0,0.0,0.0,0.0,0.0,0.0,0.0,0.0,0.0,0.0,0.0,0.0,0.0,0.0,0.0,0.0,0.0,-5.1414,-5.1391,-5.062,-4.8876,-4.9645,-5.0074,-5.0083,-5.0945,-5.2234,-5.399,-5.5747,-5.6156,-5.5273,-5.4414,-5.3983,-5.3896,-5.2163,-5.1874,-5.2562,-5.0782,-5.0508,-5.12,-5.0207,-5.0311,-5.099,0.0,0.0,0.0,0.0,0.0,0.0,0.0,-4.7716,-4.715,-4.5281,-4.4578,-4.4354,-4.4116,-4.4618,-4.5185,-4.4662,-4.6176,-4.8035,-4.844,-5.0875,-5.3809,-5.6364,-5.7121,-5.7688,-5.906,-5.9005,-5.8629,-5.833,-5.897,-5.9387,-5.8701,-5.8593,-5.8366,-5.7912,-5.6243,-5.4598,-5.3181,-5.229,-5.1237,-4.9697,-4.8277,-4.6785,-4.5565,-4.4097,-4.2732,-4.1543,-4.0903,-4.0058,-3.9035,-3.938,-3.909,-3.8357,-4.0084,-4.1114,-4.1462,-4.3067,-4.4809,-4.657,-4.7136,-4.8978,-5.1759,-5.1463,-5.2579,-5.4562,-5.3223,-5.2309,-5.1795,-5.2452,-5.3136,-5.4153,-5.8762,-6.1235,-6.2678,0.0,0.0,0.0,0.0,0.0,0.0,0.0,0.0,0.0,0.0,0.0,0.0,0.0,0.0,0.0,0.0,0.0,0.0,-5.1414,-5.0823,-5.0249,-4.9731,-4.9371,-4.9176,-4.9189,-5.0048,-5.1655,-5.4008,-5.5111,-5.4921,-5.3476,-5.3828,-5.3359,-5.2186,-5.2258,-5.2124,-5.1776,-5.1803,-5.158,-5.1197,-5.1489,-5.1344,-5.0913,0.0,0.0,0.0,0.0,0.0,0.0,0.0,0.0,0.0,-4.5281,-4.4659,-4.4664,-4.4969,-4.5723,-4.6539,-4.688,-4.915,-5.1487,-5.1622,-5.4056,-5.6973,-5.9004,-5.9079,-5.9224,-6.1072,-6.1398,-6.1257,-6.0712,-6.0816,-6.0662,-6.0283,-5.9882,-5.9379,-5.8429,-5.7037,-5.5556,-5.3827,-5.2766,-5.1542,-5.001,-4.9053,-4.7911,-4.6501,-4.491,-4.335,-4.2162,-4.0976,-4.0083,-3.957,-3.9895,-3.9911,-3.981,-4.0955,-4.1973,-4.2899,-4.4167,-4.5289,-4.6169,-4.6937,-4.8875,-5.1434,-5.1555,-5.2687,-5.4537,-5.4623,-5.428,-5.3875,-5.4944,-5.5134,-5.5226,-5.8141,-6.0241,-6.1784,0.0,0.0,0.0,0.0,0.0,0.0,0.0,0.0,0.0,0.0,-5.132,-5.132,0.0,0.0,0.0,0.0,0.0,0.0,0.0,-5.0387,-4.9814,-4.9146,-4.8591,-4.8318,-4.833,-4.9501,-5.0718,-5.1984,-5.3163,-5.3203,-5.2187,-5.2734,-5.2773,-5.2422,-5.2616,-5.2797,-5.2941,-5.3065,-5.2784,-5.2241,-5.2717,-5.2369,-5.1478,0.0,0.0,0.0,0.0,0.0,0.0,0.0,0.0,0.0,-4.5719,-4.5122,-4.5087,-4.5289,-4.6035,-4.6981,-4.7623,-5.0085,-5.2585,-5.3311,-5.5495,-5.809,-6.0529,-6.0944,-6.1062,-6.2159,-6.2361,-6.2226,-6.1874,-6.2016,-6.2026,-6.1532,-6.1294,-6.0677,-5.9155,-5.7709,-5.5981,-5.3977,-5.2759,-5.1458,-5.0123,-4.9328,-4.8262,-4.6874,-4.5447,-4.3905,-4.2616,-4.1354,-4.0458,-4.0013,-4.0363,-4.0679,-4.0716,-4.1693,-4.2848,-4.4152,-4.5235,-4.6249,-4.7267,-4.8149,-5.0107,-5.2823,-5.3769,-5.4483,-5.5175,-5.6152,-5.6152,-5.5661,-5.7003,-5.7202,-5.7247,-5.9727,-6.1399,-6.2365,0.0,0.0,-5.3349,-5.2537,0.0,0.0,0.0,0.0,0.0,0.0,-5.132,-5.132,0.0,0.0,0.0,0.0,0.0,-5.0966,-5.0165,-5.0048,-4.9279,-4.7662,-4.7459,-4.742,-4.7471,-4.8954,-4.9391,-4.8664,-5.0428,-5.1289,-5.1289,-5.1445,-5.2344,-5.3867,-5.3125,-5.37,-5.5126,-5.4255,-5.3798,-5.3689,-5.3786,-5.321,-5.2266,-5.2307,0.0,0.0,0.0,0.0,0.0,0.0,0.0,0.0,-4.6581,-4.5885,-4.5672,-4.5482,-4.6001,-4.6797,-4.7627,-4.9909,-5.2432,-5.4081,-5.6045,-5.8363,-6.1244,-6.2513,-6.3025,-6.2867,-6.2505,-6.2264,-6.2208,-6.293,-6.3344,-6.2651,-6.2541,-6.1877,-5.9878,-5.7993,-5.6093,-5.3739,-5.2437,-5.1348,-5.0123,-4.9213,-4.8172,-4.6993,-4.5698,-4.4438,-4.3022,-4.2088,-4.121,-4.0363,-4.0942,-4.1387,-4.141,-4.262,-4.3903,-4.5421,-4.6353,-4.7745,-4.9491,-5.0206,-5.2198,-5.5146,-5.6974,-5.7137,-5.6338,-5.779,-5.7967,-5.7445,-5.8873,-5.9315,-5.9629,-6.2464,-6.3469,-6.3561,0.0,0.0,-5.3281,-5.2537,0.0,0.0,0.0,0.0,0.0,0.0,0.0,0.0,0.0,0.0,0.0,0.0,-5.1303,-5.0959,-5.0147,-4.9457,-4.861,-4.7572,-4.6917,-4.6569,-4.6573,-4.6924,-4.7048,-4.6866,-4.9238,-5.042,-5.0508,-5.1797,-5.2617,-5.3008,-5.3513,-5.3937,-5.4278,-5.4006,-5.3104,-5.2035,-5.3952,-5.3339,-5.1449,-5.2717,-5.2619,0.0,0.0,0.0,0.0,0.0,0.0,0.0,-4.7634,-4.7018,-4.6725,-4.7742,-4.7809,-4.7895,-4.9427,-5.2193,-5.5006,-5.6326,-5.9395,-6.2176,-6.256,-6.3372,-6.413,-6.4417,-6.4252,-6.4053,-6.3798,-6.3903,-6.3819,-6.3182,-6.3186,-6.2359,-5.9643,-5.8047,-5.6053,-5.3518,-5.238,-5.1458,-5.0517,-4.9756,-4.8983,-4.7938,-4.6425,-4.4976,-4.3919,-4.2634,-4.1842,-4.172,-4.1834,-4.2326,-4.3178,-4.3945,-4.5233,-4.6893,-4.8208,-4.9945,-5.1796,-5.1321,-5.2844,-5.5829,-5.7225,-5.8009,-5.8496,-5.9433,-5.9782,-5.9978,-6.0521,-6.0491,-6.0446,-6.1589,-6.1888,-6.1893,0.0,0.0,0.0,0.0,0.0,0.0,0.0,0.0,0.0,0.0,0.0,0.0,0.0,0.0,0.0,0.0,-5.1303,-5.0959,-5.0141,-4.9653,-4.9011,-4.8166,-4.7701,-4.751,-4.751,-4.7129,-4.69,-4.6907,-4.8233,-4.9136,-4.9609,-5.0469,-5.1523,-5.2734,-5.3156,-5.3614,-5.4005,-5.3922,-5.3603,-5.329,-5.4528,-5.4191,-5.3003,-5.3817,-5.349,-5.257,-5.2406,0.0,0.0,0.0,0.0,0.0,0.0,0.0,-4.6654,-4.7594,-4.7607,-4.7714,-4.9368,-5.2588,-5.6133,-5.8876,-6.1431,-6.3163,-6.2893,-6.348,-6.4233,-6.4709,-6.4512,-6.4169,-6.3861,-6.3783,-6.3627,-6.2899,-6.264,-6.1559,-5.903,-5.7659,-5.5901,-5.3395,-5.243,-5.1702,-5.0767,-5.032,-4.9535,-4.8241,-4.7171,-4.5979,-4.4675,-4.3361,-4.267,-4.2424,-4.2393,-4.2805,-4.3929,-4.4598,-4.5901,-4.7961,-4.9203,-5.096,-5.3324,-5.3267,-5.4525,-5.6593,-5.7269,-5.8136,-5.9007,-5.9993,-6.0469,-6.0684,-6.1481,-6.169,-6.1605,-6.2191,-6.2195,-6.2195,0.0,0.0,0.0,0.0,0.0,0.0,0.0,0.0,0.0,0.0,0.0,0.0,0.0,0.0,-5.1312,0.0,0.0,0.0,-5.0127,-4.9926,-4.9523,-4.8837,-4.8798,-4.8798,-4.8837,-4.803,-4.7686,-4.7805,-4.7655,-4.8125,-4.9141,-4.9258,-5.0547,-5.2694,-5.268,-5.3253,-5.4225,-5.3988,-5.4305,-5.5013,-5.521,-5.5069,-5.4737,-5.4939,-5.4303,-5.3338,-5.2985,-5.273,-5.2406,-5.1223,0.0,0.0,0.0,0.0,-4.6392,-4.7133,-4.7217,-4.7348,-4.9086,-5.2787,-5.7035,-6.098,-6.2596,-6.3153,-6.2981,-6.3307,-6.3817,-6.4364,-6.4213,-6.3896,-6.3594,-6.3577,-6.3362,-6.2595,-6.185,-6.054,-5.8293,-5.7062,-5.5495,-5.3299,-5.2459,-5.1811,-5.1128,-5.0795,-5.0129,-4.8744,-4.8181,-4.7043,-4.548,-4.4405,-4.3566,-4.3145,-4.3098,-4.3704,-4.4704,-4.5573,-4.7005,-4.9042,-5.0001,-5.1718,-5.4021,-5.4728,-5.5888,-5.7281,-5.739,-5.8051,-5.9121,-5.9956,-6.0535,-6.1058,-6.1965,-6.2366,-6.2731,-6.3249,-6.3448,-6.3585,0.0,0.0,0.0,0.0,0.0,0.0,0.0,0.0,0.0,0.0,-5.122,-5.123,0.0,-5.1295,-5.1295,-5.1295,-5.1312,-5.0914,-5.0062,0.0,0.0,-4.8798,-4.8798,-4.8837,-4.8873,-4.8057,-4.7949,-4.8742,-4.7968,-4.8437,-5.0039,-5.0742,-5.1637,-5.2713,-5.2683,-5.3617,-5.5083,-5.4255,-5.3986,-5.4195,-5.5569,-5.5152,-5.3848,-5.5216,-5.5075,-5.3935,-5.3058,-5.2601,-5.2238,-5.1111,-5.0284,0.0,0.0,0.0,-4.7276,-4.9097,-4.8821,-4.8341,-5.0454,-5.4907,-5.9395,-6.1203,-6.2891,-6.4091,-6.3817,-6.323,-6.3,-6.3788,-6.4377,-6.4785,-6.4627,-6.4588,-6.4088,-6.2838,-6.1731,-6.0265,-5.8054,-5.6452,-5.4818,-5.3001,-5.2174,-5.1848,-5.1706,-5.1322,-5.1017,-5.0572,-4.9774,-4.8518,-4.6623,-4.5954,-4.5101,-4.3957,-4.5227,-4.6184,-4.6916,-4.8798,-5.0039,-5.0931,-5.2005,-5.2966,-5.354,-5.3733,-5.5041,-5.7281,-5.7498,-5.8614,-6.0295,-5.9946,-6.0805,-6.2138,-6.1575,-6.1905,-6.2788,-6.4229,-6.4878,-6.5326,0.0,0.0,0.0,0.0,0.0,0.0,0.0,0.0,0.0,0.0,0.0,-5.119,0.0,-5.1259,-5.123,-5.123,-5.1287,-5.0914,-5.0065,-5.0104,-4.9985,-4.9567,-5.0,-5.0274,-5.0321,-4.899,-4.8763,-4.9628,-4.8748,-4.9219,-5.0898,-5.1719,-5.2339,-5.2737,-5.3217,-5.3842,-5.4537,-5.4078,-5.4173,-5.4614,-5.5291,-5.532,-5.5033,-5.5595,-5.5206,-5.4204,-5.3645,-5.3019,-5.2295,-5.1201,-5.0107,-4.9444,-5.0218,0.0,0.0,0.0,-4.9742,-5.0264,-5.3571,-5.6514,-5.9325,-6.1844,-6.3006,-6.3559,-6.378,-6.3126,-6.271,-6.3437,-6.3844,-6.4081,-6.3971,-6.3322,-6.269,-6.2038,-5.9487,-5.7312,-5.6367,-5.5209,-5.3756,-5.202,-5.2452,-5.2812,-5.228,-5.2366,-5.1853,-5.0406,-4.9951,-4.8785,-4.662,-4.5953,-4.5531,-4.531,-4.537,-4.6448,-4.8453,-4.9152,-5.0456,-5.2413,-5.2836,-5.3231,-5.371,-5.371,-5.4592,-5.622,-5.6681,-5.7791,-5.9147,-5.9678,-6.0655,-6.1665,-6.1685,-6.2106,-6.3134,-6.4799,-6.5571,-6.6248,0.0,0.0,0.0,0.0,0.0,0.0,0.0,0.0,0.0,0.0,0.0,0.0,0.0,0.0,0.0,0.0,-5.1259,-5.1014,-5.0353,-5.0922,-5.1016,-5.045,-5.1035,-5.1396,-5.1414,-4.9973,-4.9622,-5.0516,-4.9641,-5.0078,-5.1758,-5.2851,-5.3473,-5.3682,-5.3912,-5.422,-5.4611,-5.4318,-5.4827,-5.5709,-5.5411,-5.5613,-5.6062,-5.5845,-5.5198,-5.4281,-5.3823,-5.3187,-5.2313,-5.1252,-5.0176,-4.9373,-4.993,-4.9227,0.0,0.0,0.0,-5.2345,-5.5238,-5.7183,-5.8988,-6.1394,-6.2295,-6.2735,-6.3126,-6.2507,-6.2072,-6.2974,-6.3123,-6.311,-6.3238,-6.2534,-6.1673,-6.0939,-5.7854,-5.5334,-5.4696,-5.3899,-5.2782,-5.1366,-5.2426,-5.3174,-5.2555,-5.2865,-5.2307,-5.0304,-5.001,-4.8989,-4.6743,-4.6107,-4.6073,-4.6423,-4.6138,-4.7261,-4.997,-5.0388,-5.168,-5.39,-5.3626,-5.3686,-5.3919,-5.4199,-5.4626,-5.5365,-5.609,-5.7285,-5.8684,-5.9717,-6.0505,-6.1276,-6.1792,-6.2648,-6.3872,-6.5709,-6.6869,-6.7946,0.0,0.0,0.0,0.0,0.0,0.0,0.0,0.0,0.0,0.0,0.0,0.0,-5.1208,-5.1208,-5.1208,-5.1208,-5.1219,-5.119,-5.1133,-5.1172,-5.1248,-5.1317,-5.1401,0.0,-5.1414,-5.0493,-5.0454,-5.1336,-5.052,-5.1006,-5.2656,-5.4375,-5.5624,-5.6315,-5.4736,-5.4875,-5.6302,-5.5425,-5.6026,-5.7468,-5.6459,-5.6012,-5.5995,-5.5825,-5.5132,-5.4087,-5.3121,-5.2654,-5.233,-5.1252,-5.0478,-5.0222,-5.1677,-5.063,-4.9241,0.0,0.0,0.0,-5.3704,-5.6446,-5.9276,-5.8786,-6.0265,-6.1842,-6.1726,-6.0943,-6.0618,-6.2122,-6.2318,-6.2435,-6.3025,-6.3334,-6.2568,-5.9734,-5.8083,-5.6208,-5.3715,-5.2519,-5.184,-5.1647,-5.1748,-5.2023,-5.2674,-5.2427,-5.1889,-5.1242,-5.0632,-4.9492,-4.7733,-4.7595,-4.7462,-4.7157,-4.8546,-5.0065,-5.1654,-5.4051,-5.52,-5.5149,-5.5149,-5.4611,-5.3919,-5.4877,-5.5276,-5.5335,-5.6301,-5.7872,-5.988,-6.0036,-6.0586,-6.1498,-6.1905,-6.3234,-6.5095,-6.7277,-6.9301,-7.1226,0.0,0.0,0.0,0.0,0.0,0.0,0.0,0.0,0.0,0.0,0.0,0.0,0.0,-5.1152,-5.1163,-5.1214,-5.1703,-5.1802,-5.1249,-5.1745,-5.1896,-5.1434,-5.1408,-5.1406,-5.1402,-5.0545,-5.0545,-5.1402,-5.1094,-5.1834,-5.3578,-5.4764,-5.5778,-5.6614,-5.6475,-5.6776,-5.7283,-5.634,-5.6261,-5.677,-5.6319,-5.6089,-5.5981,-5.5884,-5.557,-5.4962,-5.4081,-5.3632,-5.3327,-5.2384,-5.1623,-5.1261,-5.2122,-5.2,-5.1892,-5.4134,-5.512,-5.5769,-5.6626,-5.7883,-5.9105,-5.9904,-6.0632,-6.1093,-6.0942,-6.0479,-6.0264,-6.0818,-6.1172,-6.1597,-6.2206,-6.1789,-6.0869,-5.9315,-5.6171,-5.3471,-5.2029,-5.1499,-5.0866,-4.9816,-5.1122,-5.1999,-5.1969,-5.2118,-5.166,-5.0301,-5.0005,-4.9102,-4.7456,-4.7377,-4.7822,-4.8686,-4.8835,-5.0155,-5.2819,-5.5043,-5.5979,-5.5681,-5.5381,-5.5185,-5.5056,-5.5217,-5.5854,-5.6865,-5.7209,-5.7915,-5.8834,-6.0006,-6.0864,-6.1528,-6.2157,-6.3792,-6.5996,-6.7882,-6.9829,-7.1748,0.0,0.0,0.0,0.0,0.0,0.0,0.0,0.0,-5.0981,-5.1005,0.0,0.0,0.0,0.0,-5.1127,-5.1202,-5.1964,-5.2124,-5.1287,-5.1787,-5.2051,-5.183,-5.1542,-5.1545,-5.1833,-5.0973,-5.0972,-5.1831,-5.1555,-5.2443,-5.4455,-5.5028,-5.5927,-5.7035,-5.7863,-5.8247,-5.8181,-5.7221,-5.7108,-5.7521,-5.7149,-5.6958,-5.6868,-5.6773,-5.6482,-5.5938,-5.5055,-5.4456,-5.3989,-5.3366,-5.2857,-5.2653,-5.3595,-5.421,-5.4882,-5.6311,-5.6978,-5.7396,-5.8204,-5.8753,-5.9374,-6.0443,-6.061,-6.0478,-6.0527,-6.0191,-5.9848,-6.0061,-6.0604,-6.1217,-6.1898,-6.1007,-5.9832,-5.8832,-5.5298,-5.2243,-5.0978,-5.0272,-4.9708,-4.8944,-5.0314,-5.142,-5.153,-5.1518,-5.0999,-4.978,-4.9494,-4.8961,-4.7829,-4.8055,-4.8905,-5.0506,-5.075,-5.1938,-5.396,-5.5743,-5.647,-5.5979,-5.5681,-5.5508,-5.5723,-5.5827,-5.6644,-5.7898,-5.8345,-5.877,-5.9212,-6.0526,-6.172,-6.284,-6.364,-6.5527,-6.7946,-6.9202,-7.0948,-7.281,0.0,0.0,0.0,0.0,0.0,0.0,0.0,0.0,-5.0995,-5.1005,0.0,0.0,0.0,0.0,0.0,-5.1229,-5.1979,-5.2124,-5.1388,-5.1291,-5.1687,-5.2668,-5.1874,-5.1792,-5.2667,-5.1882,-5.1882,-5.2737,-5.1938,-5.2797,-5.5313,-5.5313,-5.6216,-5.7816,-5.8637,-5.9053,-5.9033,-5.8117,-5.8657,-5.9993,-5.8994,-5.86,-5.8574,-5.8451,-5.7892,-5.6981,-5.6006,-5.5125,-5.4393,-5.4282,-5.4218,-5.4511,-5.6129,-5.7226,-5.7915,-5.7939,-5.8525,-5.8983,0.0,0.0,0.0,-6.0023,-5.9899,-5.9956,-6.0449,-5.9933,-5.9434,-5.9875,-6.0561,-6.1329,-6.2019,-6.1136,-5.9749,-5.8219,-5.5588,-5.2864,-5.0593,-4.9038,-4.8351,-4.9153,-4.9421,-5.0021,-5.1171,-5.0642,-5.0184,-4.9972,-4.9415,-4.8973,-4.8885,-4.9657,-5.0776,-5.2403,-5.4376,-5.5376,-5.507,-5.6371,-5.6669,-5.5918,-5.5948,-5.5913,-5.5723,-5.6721,-5.7483,-5.8201,-5.9518,-6.0445,-6.1156,-6.1716,-6.3348,-6.552,-6.6361,-6.8405,-7.0961,-7.1488,-7.2892,-7.4669,0.0,0.0,0.0,0.0,0.0,-5.0702,-5.0738,-5.0773,-5.0808,0.0,0.0,0.0,-5.1904,-5.2506,-5.2679,-5.2136,-5.286,-5.3029,-5.222,-5.222,-5.2367,-5.2687,-5.1865,-5.1792,-5.2693,-5.2443,-5.278,-5.3639,-5.4033,-5.458,-5.5313,-5.5942,-5.6489,-5.6957,-5.7115,-5.7914,-5.9084,-5.8734,-5.8787,-5.9141,-5.8862,-5.8723,-5.869,-5.8642,-5.9128,-5.9689,-5.8158,-5.8171,-5.8803,-5.8112,-5.7454,-5.7035,-5.7506,-5.7949,-5.8304,-5.8807,-5.9163,-5.9393,-5.9664,0.0,0.0,0.0,0.0,0.0,-5.8375,-5.871,-5.8951,-5.7866,-5.9654,-6.1353,-6.1382,-6.0062,-5.8603,-5.7786,-5.5103,-5.2389,-5.0284,-4.8946,-4.804,-4.7763,-4.8206,-4.8916,-4.9864,-4.9726,-4.9615,-4.9947,-4.9757,-4.9663,-4.9647,-5.0762,-5.178,-5.2574,-5.3965,-5.4629,-5.4388,-5.5008,-5.5064,-5.4552,-5.5327,-5.5812,-5.6093,-5.7334,-5.8548,-5.9874,-6.0265,-6.1316,-6.2744,-6.2486,-6.3641,-6.5663,-6.6338,-6.8632,-7.1696,-7.1969,-7.3342,-7.5042,0.0,0.0,-5.0521,-5.0563,-5.0891,-5.1104,-5.1183,-5.153,-5.1799,0.0,0.0,0.0,-5.2276,-5.3073,-5.3117,-5.1968,-5.2652,-5.2844,-5.206,-5.2046,-5.2258,-5.2695,-5.1836,-5.1953,-5.3203,-5.2886,-5.3302,-5.4537,-5.4693,-5.5123,-5.5825,-5.5977,-5.6402,-5.7104,-5.7414,-5.8297,-5.9615,-5.9854,-5.9918,-5.9925,-6.0205,-6.0295,-6.0265,-6.0654,-6.1544,-6.2354,-6.0612,-6.0718,-6.1597,-6.0766,-6.0123,-5.9714,-6.0098,-6.0042,-5.9935,-6.0388,-6.0519,-6.053,-6.057,-6.0545,-6.0561,-6.0704,0.0,0.0,-5.8514,-5.8867,-5.9062,-5.7566,-5.959,-6.1612,-6.1353,-5.987,-5.8642,-5.8391,-5.5104,-5.1861,-4.9807,-4.8812,-4.8055,-4.7453,-4.8102,-4.8881,-4.9662,-4.9853,-5.0128,-5.0338,-5.0429,-5.0653,-5.131,-5.1868,-5.2625,-5.3555,-5.4285,-5.4496,-5.4259,-5.4637,-5.4606,-5.4005,-5.5047,-5.5842,-5.6226,-5.7812,-5.9315,-6.0772,-6.1539,-6.2768,-6.4193,-6.43,-6.5638,-6.768,-6.8596,-7.0783,-7.3496,-7.3797,-7.4511,-7.5262,0.0,0.0,-5.05,-5.0563,-5.1275,-5.1834,-5.1875,-5.2704,-5.3282,0.0,-5.3531,-5.3464,-5.2756,-5.3406,-5.3204,-5.1528,-5.1997,-5.2068,-5.1343,-5.1328,-5.1675,-5.2538,-5.1748,-5.2099,-5.3828,-5.3281,-5.3747,-5.5287,-5.4697,-5.5201,-5.6723,-5.5889,-5.6352,-5.7986,-5.8694,-5.9498,-6.0348,-6.0993,-6.1357,-6.1585,-6.2233,-6.2528,-6.2627,-6.3478,-6.4229,-6.4608,-6.3042,-6.2852,-6.3271,-6.2483,-6.2235,-6.2393,-6.3092,-6.2781,-6.2151,-6.232,-6.2249,-6.1911,-6.1196,-6.0725,-6.0693,-6.142,-6.0806,0.0,-5.9736,-5.9731,-5.9462,-5.835,-6.0076,-6.1694,-6.1501,-5.9973,-5.8772,-5.9015,-5.5085,-5.1429,-4.961,-4.8866,-4.8413,-4.7949,-4.8648,-4.9408,-4.9977,-5.0594,-5.0983,-5.1048,-5.1145,-5.1718,-5.3078,-5.2845,-5.3277,-5.4569,-5.4845,-5.4757,-5.4282,-5.4634,-5.4483,-5.3793,-5.4896,-5.5621,-5.6137,-5.8171,-5.9874,-6.1291,-6.2919,-6.4361,-6.5606,-6.6683,-6.8457,-7.0596,-7.1899,-7.3753,-7.5713,-7.6214,-7.6121,-7.5442,-5.0153,-5.0344,-5.039,-5.05,-5.1212,-5.183,-5.1875,-5.2664,-5.3243,-5.3282,-5.4573,-5.5457,-5.5302,-5.5487,-5.4932,-5.3272,-5.2678,-5.2104,-5.1362,-5.1371,-5.1478,-5.1648,-5.1482,-5.1874,-5.293,-5.4141,-5.4961,-5.5311,-5.6465,-5.7231,-5.7543,-5.7372,-5.7835,-5.885,-5.8928,-5.949,-6.0282,-6.0321,-6.1149,-6.2439,-6.2482,-6.2895,-6.3535,-6.4348,-6.4773,-6.4809,-6.4354,-6.4286,-6.4239,-6.3245,-6.335,-6.3885,-6.4112,-6.3604,-6.304,-6.3892,-6.3107,-6.2105,-6.2583,-6.1666,-6.0737,-6.1437,-6.08,0.0,-5.9025,-5.9294,-5.9441,-5.8547,-5.9694,-6.0904,-6.0754,-5.8297,-5.6241,-5.6077,-5.3401,-5.1396,-5.1493,-4.9908,-4.8784,-4.9056,-4.88,-4.901,-4.9834,-5.0101,-5.0326,-5.0883,-5.1214,-5.1707,-5.2365,-5.2555,-5.2972,-5.3668,-5.4115,-5.4033,-5.3596,-5.3365,-5.2886,-5.2397,-5.3796,-5.483,-5.5478,-5.8279,-6.0603,-6.2707,-6.3984,-6.5442,-6.697,-6.8258,-7.0042,-7.2061,-7.2479,-7.4412,-7.6879,-7.7183,-7.6943,-7.6264,-5.0206,-5.0344,-5.039,-5.0478,-5.1212,-5.1966,-5.2451,-5.328,-5.4031,-5.4477,-5.575,-5.6497,-5.6089,-5.573,-5.5016,-5.3754,-5.253,-5.1663,-5.1323,-5.1313,-5.1367,-5.1382,-5.2186,-5.3064,-5.3984,-5.4844,-5.5937,-5.7265,-5.7218,-5.7629,-5.8441,-5.8465,-5.8922,-5.9775,-6.0137,-6.0534,-6.0965,-6.174,-6.2536,-6.3308,-6.3141,-6.3863,-6.5102,-6.5896,-6.6685,-6.7277,-6.6344,-6.5928,-6.5702,-6.468,-6.4566,-6.4993,-6.5456,-6.5033,-6.4449,-6.4999,-6.46,-6.3729,-6.2829,-6.1935,-6.1223,-6.1065,-6.0627,0.0,0.0,-5.9336,-5.9501,-5.8205,-5.9587,-6.0702,-5.9729,-5.7612,-5.592,-5.5483,-5.2971,-5.1142,-5.1563,-5.0559,-4.9658,-4.942,-4.9854,-5.0222,-5.0426,-5.0988,-5.121,-5.0966,-5.1041,-5.1401,-5.2139,-5.2333,-5.2631,-5.3164,-5.3553,-5.3552,-5.3233,-5.2877,-5.2427,-5.2032,-5.332,-5.4171,-5.479,-5.8068,-6.0758,-6.2866,-6.4992,-6.6877,-6.8513,-6.957,-7.1609,-7.4067,-7.3999,-7.5552,-7.7738,-7.7651,-7.7017,-7.5724,-5.0321,-5.0367,-5.0435,-5.05,-5.1254,-5.2162,-5.3087,-5.3954,-5.488,-5.5943,-5.6964,-5.7323,-5.6659,-5.5738,-5.4943,-5.4478,-5.2475,-5.1388,-5.1796,-5.1678,-5.152,-5.1405,-5.3169,-5.4306,-5.4531,-5.5546,-5.6835,-5.8437,-5.7692,-5.8033,-5.9339,-5.9368,-5.9898,-6.0893,-6.1573,-6.1928,-6.2074,-6.3441,-6.4078,-6.4178,-6.4222,-6.5178,-6.6632,-6.7444,-6.8519,-6.9471,-6.8043,-6.7383,-6.7088,-6.6319,-6.6155,-6.6369,-6.7233,-6.694,-6.6288,-6.6384,-6.6167,-6.5397,-6.3306,-6.2463,-6.1927,-6.118,-6.078,-6.0293,0.0,0.0,0.0,-5.8318,-5.9619,-6.0621,-5.9121,-5.7526,-5.6263,-5.5643,-5.3047,-5.1028,-5.0871,-5.0719,-5.0391,-4.9758,-5.066,-5.1195,-5.0757,-5.153,-5.1549,-5.0603,-5.0549,-5.088,-5.1597,-5.2045,-5.2321,-5.2692,-5.3114,-5.3321,-5.3086,-5.2788,-5.2427,-5.2094,-5.3149,-5.3953,-5.451,-5.8127,-6.0852,-6.2948,-6.5973,-6.8227,-6.9904,-7.0885,-7.299,-7.5578,-7.5492,-7.659,-7.817,-7.7834,-7.6441,-7.4244,-5.0436,-5.0367,-5.0435,-5.05,-5.1275,-5.2202,-5.3147,-5.4034,-5.5172,-5.6811,-5.7907,-5.8518,-5.8402,-5.7009,-5.6343,-5.7067,-5.3575,-5.1966,-5.3487,-5.2932,-5.2205,-5.1425,-5.3784,-5.4098,-5.189,-5.6376,-5.776,-5.5742,-5.8594,-6.0073,-6.0232,-6.0237,-6.1086,-6.2623,-6.2703,-6.3136,-6.3826,-6.4021,-6.448,-6.5192,-6.5887,-6.6678,-6.7521,-6.8277,-6.8661,-6.8794,-6.841,-6.8091,-6.7897,-6.7906,-6.8265,-6.8935,-6.9889,-6.9544,-6.8824,-6.902,-6.7448,-6.559,-6.5436,-6.4193,-6.2919,-6.2776,-6.2098,-6.1228,-6.0332,0.0,-6.0167,-5.987,0.0,-6.0089,-5.9899,0.0,0.0,-5.5122,-5.3335,-5.1451,-4.9637,-5.0017,-5.0473,-5.0526,-5.0158,-4.9823,-4.9722,-4.9626,-4.929,-4.8817,-4.9675,-5.0015,-4.9573,-5.1135,-5.1883,-5.1528,-5.2691,-5.3321,-5.3086,-5.2788,-5.2518,-5.2306,-5.3432,-5.4213,-5.494,-5.8889,-6.184,-6.395,-6.7151,-6.9288,-7.0711,-7.2461,-7.3938,-7.5106,-7.551,-7.6487,-7.7615,-7.7544,-7.4999,-7.1434,-5.1354,-5.0823,-5.0521,-5.0545,-5.0952,-5.1722,-5.3089,-5.492,-5.6386,-5.71,-5.854,-5.9459,-5.9459,-5.8396,-5.7884,-5.8309,-5.4928,-5.3502,-5.5269,-5.3693,-5.3006,-5.3639,-5.4713,-5.5263,-5.5176,-5.6825,-5.8116,-5.9009,-5.9491,-6.0468,-6.1907,-6.1896,-6.2544,-6.3701,-6.4184,-6.431,-6.4267,-6.5728,-6.5968,-6.5543,-6.7333,-6.8224,-6.859,-6.9808,-7.0173,-7.0071,-6.9913,-6.9424,-6.8885,-6.8884,-6.9088,-6.9475,-7.0839,-7.0692,-7.0009,-7.0087,-6.902,-6.7487,-6.6013,-6.4753,-6.3532,-6.248,-6.2271,-6.2137,-6.1239,-6.1429,-6.1484,-6.0533,0.0,0.0,0.0,0.0,0.0,0.0,-5.3548,-5.1899,-5.0403,-4.993,-4.9853,-5.0281,-5.0354,-5.0324,-4.9993,-4.8861,-4.8128,-4.8241,-4.8756,-4.9021,-4.8825,-5.0066,-5.0829,-5.0925,-5.1765,-5.2356,-5.2877,-5.2729,-5.2608,-5.2306,-5.3192,-5.3891,-5.4653,-5.8539,-6.1629,-6.4203,-6.7534,-6.9976,-7.1906,-7.35,-7.4585,-7.5082,-7.4377,-7.5018,-7.6155,-7.4576,-7.1926,-6.8842,-5.2609,-5.1506,-5.0721,-5.0913,-5.1085,-5.1769,-5.3469,-5.5552,-5.7077,-5.7541,-5.8612,-5.9584,-6.0267,-5.9241,-5.8765,-5.9565,-5.6495,-5.5295,-5.7102,-5.5249,-5.4562,-5.5591,-5.6348,-5.6978,-5.7522,-5.7845,-5.9095,-6.1346,-6.0618,-6.1327,-6.3359,-6.3355,-6.3927,-6.4921,-6.5574,-6.579,-6.5753,-6.7608,-6.7657,-6.6652,-6.8733,-6.9928,-7.0611,-7.1413,-7.1745,-7.1788,-7.171,-7.1178,-7.0563,-7.054,-7.0636,-7.1019,-7.2334,-7.2265,-7.1658,-7.1646,-7.0907,-6.9563,-6.7203,-6.5915,-6.487,-6.307,-6.2917,-6.2994,-6.2128,-6.2413,-6.2506,-6.1381,-6.1573,0.0,0.0,0.0,-5.7977,-5.5881,0.0,-5.2715,-5.1173,-5.018,-4.9671,-4.9763,-4.995,-4.9893,-4.9354,-4.789,-4.7087,-4.7212,-4.7521,-4.7738,-4.7777,-4.8852,-4.9774,-5.0406,-5.0961,-5.1723,-5.2698,-5.2698,-5.2698,-5.2577,-5.3438,-5.4114,-5.4728,-5.8752,-6.1894,-6.4524,-6.826,-7.109,-7.3154,-7.4753,-7.5094,-7.4531,-7.3241,-7.2579,-7.2176,-7.0545,-6.8193,-6.5547,-5.4196,-5.2356,-5.0989,-5.1662,-5.2043,-5.2825,-5.4491,-5.5606,-5.6823,-5.8441,-5.8017,-5.8527,-6.1011,-5.91,-5.8661,-6.12,-5.8306,-5.7065,-5.8903,-5.8153,-5.7309,-5.6606,-5.8914,-5.9109,-5.6684,-5.9846,-6.1193,-6.0429,-6.2091,-6.3344,-6.4258,-6.4258,-6.5151,-6.6717,-6.6761,-6.7682,-6.9224,-6.9341,-6.928,-6.9245,-7.0113,-7.19,-7.3923,-7.2935,-7.2948,-7.3504,-7.3562,-7.3446,-7.3278,-7.3273,-7.3803,0.0,-7.5315,-7.4992,-7.4281,-7.4358,-7.3165,-7.1434,-6.9659,-6.8559,-6.742,-6.5641,-6.4562,-6.3733,-6.2963,-6.2824,-6.2892,-6.2841,-6.2891,-6.2669,-6.1773,-6.0912,-5.9626,-5.7212,-5.5811,0.0,0.0,-5.0807,-5.0168,-4.9182,-4.8294,-4.757,-4.7095,-4.6404,-4.5801,-4.5352,-4.5677,-4.5973,-4.5981,-4.7319,-4.8516,-4.9553,-5.0516,-5.1544,-5.2698,-5.2698,-5.2966,-5.3409,-5.451,-5.5193,-5.5624,-6.0066,-6.3003,-6.4831,-6.9747,-7.2838,-7.4564,-7.6725,-7.573,-7.2753,-7.2538,-6.9228,-6.4686,-6.5732,-6.4022,-6.128,-5.5021,-5.4019,-5.3167,-5.2858,-5.2913,-5.3436,-5.4676,-5.604,-5.7306,-5.8431,-5.885,-5.9636,-6.1036,-6.0483,-6.0405,-6.1369,-5.9371,-5.8812,-6.0651,-5.8897,-5.8409,-5.9853,-5.967,-5.9948,-6.0807,-6.1403,-6.2127,-6.2965,-6.4137,-6.5188,-6.6039,-6.66,-6.746,-6.8511,-6.8502,-6.8847,-6.9425,-7.0035,-6.9901,-6.9497,-7.0805,-7.2857,-7.5015,-7.455,-7.4478,-7.4572,-7.4526,-7.4449,0.0,-7.4964,-7.532,-7.5831,-7.7078,-7.6518,-7.5374,-7.5421,-7.4163,-7.252,-7.1398,-7.0413,-6.931,-6.7566,-6.6864,-6.623,-6.484,-6.4564,-6.442,-6.394,-6.382,-6.3641,-6.2836,-6.1568,-6.0073,-5.808,-5.5925,-5.3725,0.0,-5.0093,-4.8879,-4.8033,-4.7538,-4.7066,-4.6372,-4.5801,-4.529,-4.4768,-4.5187,-4.5471,-4.5492,-4.6395,-4.7478,-4.8655,-4.9583,-5.0605,-5.1723,-5.2572,-5.3303,-5.3827,-5.4849,-5.5809,-5.6798,-6.1085,-6.4016,-6.5898,-6.987,-7.2441,-7.3772,-7.4077,-7.288,-7.0434,-6.7988,-6.4893,-6.197,-6.295,-6.1556,-5.9437,-5.5673,-5.5134,-5.4639,-5.4264,-5.4553,-5.4929,-5.5226,-5.672,-5.7946,-5.8452,-5.9029,-5.9839,-6.0963,-6.0919,-6.0948,-6.1306,-6.067,-6.0628,-6.15,-6.0612,-6.0637,-6.2009,-6.1329,-6.1687,-6.3403,-6.3193,-6.3798,-6.5219,-6.6086,-6.6945,-6.7796,-6.8351,-6.9061,-6.9844,-6.9841,-7.0035,-7.0347,-7.0917,-7.0831,-7.0475,-7.2104,-7.4051,-7.6013,-7.6221,-7.6376,-7.6475,0.0,-7.6094,-7.6436,-7.6867,-7.7087,-7.7302,-7.8615,-7.8007,-7.6916,-7.722,-7.6241,-7.4785,-7.3629,-7.2601,0.0,-6.976,-6.9065,-6.8324,-6.6636,-6.6514,-6.6438,-6.5413,-6.5206,-6.4977,-6.4193,-6.2959,-6.133,-5.9132,-5.7169,-5.4835,0.0,-4.9718,-4.8227,-4.7471,-4.7134,-4.662,-4.5873,-4.529,-4.4799,-4.4389,-4.4508,-4.475,-4.5161,-4.5609,-4.6685,-4.8566,-4.9524,-5.0605,-5.1754,-5.3214,-5.4162,-5.4559,-5.5646,-5.6825,-5.7947,-6.2552,-6.5638,-6.7447,-7.1483,-7.386,-7.4924,-7.3277,-7.1334,-6.8976,-6.4959,-6.1612,-5.916,-5.9474,-5.9327,-5.9058,-5.6261,-5.5777,-5.5465,-5.584,-5.6752,-5.7129,-5.6244,-5.7538,-5.8583,-5.8587,-5.8567,-5.9204,-6.0944,-6.0419,-6.0321,-6.125,-6.2152,-6.2381,-6.1666,-6.3203,-6.3828,-6.3116,-6.392,-6.4396,-6.4443,-6.5334,-6.617,-6.7034,-6.781,-6.8652,-6.9453,-6.9515,-6.9986,-7.0742,-7.0742,-7.1211,-7.1992,-7.2064,-7.2095,-7.2252,-7.395,-7.5545,-7.705,-7.7865,-7.861,-7.9099,-7.8147,-7.834,-7.9037,-7.8989,-7.8975,-7.9144,-7.9913,-7.9467,-7.8838,-7.9654,-7.9182,-7.8036,-7.6178,-7.4988,-7.3915,-7.2151,-7.1086,-6.998,-6.8341,-6.8655,-6.8855,-6.7309,-6.7042,-6.6834,-6.6001,-6.5109,-6.349,-6.0411,-5.919,-5.6998,-5.2321,-4.9835,-4.8261,-4.7471,-4.6929,-4.6301,-4.5541,-4.4949,-4.4419,-4.3988,-4.3566,-4.3847,-4.4911,-4.5144,-4.642,-4.9194,-5.0336,-5.1455,-5.2698,-5.457,-5.5485,-5.5296,-5.6924,-5.8122,-5.9255,-6.441,-6.7657,-6.9502,-7.417,-7.69,-7.7738,-7.3972,-7.0799,-6.789,-6.3471,-5.95,-5.6176,-5.5771,-5.7387,-6.0063,-5.743,-5.6752,-5.6644,-5.7367,-5.785,-5.8085,-5.7873,-5.8201,-5.8664,-5.922,-5.9377,-6.0015,-6.167,-6.1173,-6.135,-6.2897,-6.268,-6.2703,-6.326,-6.4364,-6.5232,-6.5717,-6.6556,-6.7335,-6.7992,-6.8287,-6.8541,-6.8747,-6.9611,-7.0139,-7.039,-7.1014,-7.1437,-7.1655,-7.1677,-7.1797,-7.2031,-7.2678,-7.3325,-7.3989,-7.5662,-7.695,-7.7946,0.0,-7.9874,-8.0901,-7.9308,-7.9235,-7.9879,-7.9816,-8.0304,-8.0923,-8.1105,-8.0531,-7.9851,-8.0048,-7.9384,-7.8308,-7.7131,-7.6526,-7.5838,-7.4129,-7.299,-7.1998,0.0,-7.0445,-7.0118,-6.9687,-6.9719,-6.9739,-6.9536,-6.7483,-6.4896,-6.2096,-5.7522,-5.3493,-5.1158,-4.997,-4.8794,-4.7537,-4.6929,-4.623,-4.5395,-4.4723,-4.4189,-4.3723,-4.3801,-4.4248,-4.5132,-4.6316,-4.7779,-4.9433,-5.1547,-5.2734,-5.2667,-5.493,-5.6062,-5.6225,-5.7469,-5.9,-6.0736,-6.522,-6.8404,-7.0396,-7.3448,-7.4594,-7.4135,-6.9761,-6.6154,-6.31,-5.9659,-5.7059,-5.5456,-5.6721,-5.8884,-6.1379,-5.8104,-5.7825,-5.8081,-5.8999,-5.9557,-5.9672,-5.9048,-5.9279,-5.9622,-6.008,-6.0487,-6.0949,-6.1443,-6.1858,-6.2287,-6.2931,-6.3303,-6.3765,-6.4355,-6.5639,-6.6645,-6.7165,-6.8054,-6.8963,-6.9848,-6.9926,-7.0147,-7.0523,-7.1021,-7.1264,-7.1281,-7.1788,-7.2014,-7.2026,-7.2404,-7.2575,-7.2617,-7.349,-7.4564,-7.5735,-7.6677,-7.796,0.0,-8.0209,-8.1017,-8.1757,-8.1519,-8.1151,-8.0937,-8.1658,-8.2006,-8.2186,-8.2189,-8.1794,-8.1272,-8.0895,-8.0292,-7.949,-7.8497,-7.7861,-7.7138,-7.5765,-7.4705,-7.368,-7.2529,-7.221,-7.1963,-7.1344,-7.1543,-7.1747,-7.143,-6.9986,-6.7502,-6.3406,-5.813,-5.3893,-5.2062,-5.1031,-4.9821,-4.8331,-4.7659,-4.6904,-4.6048,-4.5173,-4.4572,-4.4159,-4.4464,-4.5026,-4.5819,-4.7562,-4.9169,-5.0598,-5.3067,-5.4359,-5.4538,-5.6447,-5.7522,-5.7756,-5.8613,-6.0357,-6.2698,-6.6438,-6.9454,-7.1798,-7.3378,-7.3552,-7.2416,-6.7279,-6.3822,-6.128,-5.7473,-5.5738,-5.5586,-5.7839,-5.9741,-6.1525,-5.8689,-5.8753,-5.9168,-6.0277,-6.121,-6.1441,-6.0404,-6.0811,-6.1174,-6.1127,-6.1781,-6.2012,-6.1381,-6.2583,-6.3184,-6.2667,-6.4131,-6.5122,-6.5335,-6.7088,-6.8117,-6.8161,-6.9223,-7.0181,-7.0931,-7.0987,-7.1412,-7.2176,-7.2041,-7.1993,-7.1987,-7.1987,-7.1987,-7.2026,-7.2924,-7.342,-7.3672,-7.4435,-7.5746,-7.7302,-7.7511,-7.8948,-8.1064,-8.1983,-8.2293,-8.2377,-8.3989,-8.3385,-8.2095,-8.3667,-8.3706,-8.3111,-8.3095,-8.2961,-8.267,-8.1848,-8.1387,-8.0924,-7.9922,-7.8908,-7.7865,-7.6947,-7.6038,-7.4976,-7.3639,-7.3827,-7.3972,-7.2855,-7.3162,-7.3468,-7.2878,-7.2218,-7.0068,-6.4657,-6.0102,-5.6469,-5.4191,-5.2632,-5.1146,-4.956,-4.8789,0.0,-4.7355,-4.6072,-4.5278,-4.5223,-4.5556,-4.616,-4.6854,-4.8975,-5.0909,-5.2331,-5.4773,-5.627,-5.6892,-5.8409,-5.9145,-5.925,-5.9881,-6.17,-6.4517,-6.7352,-7.0167,-7.2701,-7.2935,-7.2501,-7.1195,-6.5667,-6.2317,-6.0344,-5.6343,-5.5306,-5.6485,-5.9035,-6.0472,-6.1704,-5.969,-5.8745,-5.8368,-6.0102,-6.1086,-6.2087,-6.3412,-6.3155,-6.2784,-6.2784,-6.2988,-6.3344,-6.3931,-6.3646,-6.3923,-6.5286,-6.5715,-6.6263,-6.7095,-6.8798,-6.9856,-7.0031,-7.1575,-7.2529,-7.2743,-7.2767,-7.2846,-7.3075,-7.2369,-7.2006,-7.1987,-7.1987,-7.1987,-7.2026,-7.2924,-7.4084,-7.5469,-7.5624,-7.6639,-7.8276,-7.9686,-8.0953,-8.2101,-8.3636,-8.4202,-8.4293,-8.5244,-8.4339,-8.294,-8.3951,-8.4223,-8.4005,-8.3319,-8.3048,-8.2786,-8.1925,-8.1504,-8.104,-8.0038,-7.9033,-7.8024,-7.695,-7.6109,-7.5389,-7.5119,-7.5163,-7.5432,-7.5921,-7.6135,-7.6197,-7.6216,-7.2927,-6.9409,-6.6934,-6.2326,-5.8542,-5.7079,-5.4516,-5.234,-5.1017,-5.0259,-4.9651,-4.9173,-4.7077,-4.5981,-4.6697,-4.6782,-4.734,-4.8481,-5.1357,-5.3331,0.0,-5.7005,-5.8076,0.0,-5.883,-5.9242,-5.819,-5.9821,-6.1847,-6.411,-6.5462,-6.7504,-7.0129,-6.9354,-6.8299,-6.6787,-6.323,-5.9553,-5.6252,-5.55,-5.6279,-5.8166,-6.0229,-6.2204,-6.4158,-6.1069,-6.0595,-6.0691,-6.2552,-6.3253,-6.4202,-6.6134,-6.6154,-6.5653,-6.4754,-6.4324,-6.41,-6.4166,-6.4981,-6.5698,-6.6105,-6.7019,-6.7929,-6.8897,-7.0244,-7.1233,-7.1784,-7.308,-7.4031,-7.4546,-7.4109,-7.4095,-7.4584,-7.3775,-7.3104,-7.269,-7.3158,-7.2885,-7.2065,-7.3381,-7.4922,-7.659,-7.703,0.0,-7.9203,-8.0899,-8.2101,-8.3061,-8.4727,-8.5091,-8.4844,-8.6086,-8.5665,-8.4621,-8.5432,-8.5404,-8.4883,-8.3979,-8.3656,-8.3311,-8.1964,-8.1465,-8.1156,-8.0577,-7.9723,-7.8903,-7.825,-7.7103,-7.6109,-7.6112,-7.5737,-7.5548,-7.6112,-7.6561,-7.6892,-7.7061,-7.3876,-7.0667,-6.8791,-6.5347,-6.1991,-5.9292,-5.7463,-5.5464,-5.2833,-5.2068,-5.1293,-5.0119,-4.8735,-4.7981,-4.812,-4.8473,-4.8881,-4.9512,-5.2087,-5.4035,0.0,0.0,0.0,-5.9628,0.0,-6.1995,-6.2858,-6.268,-6.416,-6.6948,-6.609,-6.7023,-6.9106,-6.7152,-6.5593,-6.4136,-6.034,-5.7337,-5.5239,-5.5486,-5.6622,-5.8601,-6.0694,-6.2765,-6.4874,-6.2593,-6.2813,-6.3482,-6.5427,-6.6122,-6.6995,-6.8541,-6.9117,-6.869,-6.6823,-6.6003,-6.541,-6.4871,-6.6613,-6.7523,-6.6845,-6.8273,-6.9567,-7.0464,-7.1412,-7.2354,-7.325,-7.4166,-7.5094,-7.6019,-7.5397,-7.5378,-7.6086,-7.5247,-7.4427,0.0,-7.4251,-7.3939,-7.289,-7.4449,0.0,0.0,0.0,-7.9285,-8.0381,-8.1903,-8.3224,-8.4473,-8.5769,-8.5976,-8.5671,-8.6792,-8.6777,-8.626,-8.6792,-8.6389,-8.5486,-8.457,-8.4104,-8.3561,-8.2003,-8.1414,-8.1269,-8.1047,-8.0336,-7.9627,-7.9433,-7.817,-7.695,-7.6761,-7.6119,-7.5661,-7.5799,-7.6403,-7.6963,-7.7061,-7.4905,-7.2492,-7.0788,-6.8311,-6.5259,-6.1545,-6.0159,-5.8345,-5.4832,-5.4025,-5.311,-5.1527,-5.1118,-5.0768,-5.0301,-5.0326,-5.0424,-5.0554,-5.279,-5.4554,-5.5668,-5.8363,-6.0482,-6.2136,0.0,-6.4904,-6.7083,-6.6058,-6.7118,-6.9771,-6.7399,-6.7161,-6.8453,-6.5767,-6.3701,-6.2005,-5.7995,-5.5962,-5.5478,-5.5797,-5.722,-5.9303,-6.1218,-6.3296,-6.5231,-6.4068,-6.4443,-6.5154,-6.7207,-6.8897,-7.0118,-7.0644,-7.153,-7.1216,-6.8699,-6.8326,-6.8354,-6.8413,-6.8625,-6.8778,-6.8746,-6.9616,-7.0565,-7.149,-7.2322,-7.3222,-7.4223,-7.5117,-7.6009,-7.6848,-7.6864,-7.6887,-7.6984,-7.6131,-7.5272,0.0,-7.4486,-7.4876,-7.5584,0.0,0.0,0.0,-7.9235,-8.0543,-8.2137,-8.3107,-8.4902,-8.7049,-8.7146,-8.7604,-8.815,-8.7468,-8.7142,-8.7078,-8.695,-8.6397,-8.5622,-8.4621,-8.3734,-8.2907,-8.189,-8.1435,-8.1246,-8.1047,-8.0269,-7.9474,-7.9347,-7.8591,-7.768,-7.6878,-7.6613,-7.65,-7.657,-7.6786,-7.6996,-7.6996,-7.5735,-7.4364,-7.3325,-7.0317,-6.7128,-6.4385,-6.1471,-5.8793,-5.6636,-5.586,-5.5272,-5.4711,-5.4606,-5.4462,-5.4055,-5.2269,-5.1475,-5.2032,-5.4516,-5.6229,-5.6801,-5.9864,-6.1547,-6.1862,-6.5122,-6.6577,-6.6056,-6.8469,-6.9732,-6.9911,-6.8218,-6.7433,-6.7342,-6.5271,-6.255,-5.9398,-5.7434,-5.6383,-5.6137,-5.6482,-5.8684,-6.1798,-6.2314,-6.4338,-6.6819,-6.7465,-6.777,-6.8334,-6.9725,0.0,0.0,0.0,-7.293,-7.2955,-7.2035,-7.1068,-7.0481,-7.0571,-7.1101,-7.1403,-7.1403,-7.2224,-7.2913,-7.3288,-7.4133,-7.4976,-7.592,-7.6754,-7.7623,-7.8525,-7.8564,-7.8311,-7.7831,-7.7504,-7.6653,-7.5332,-7.6354,0.0,0.0,0.0,-7.8201,-8.0078,-8.0895,-8.1972,-8.3197,-8.4558,-8.6034,-8.7401,-8.736,-8.7887,-8.8462,-8.7534,-8.7156,-8.7117,-8.6959,-8.671,-8.6205,-8.4665,-8.3933,-8.3322,-8.1859,-8.13,-8.1208,-8.0959,-8.0711,-8.042,-8.0113,-7.9466,-7.8818,-7.8328,-7.7413,-7.6688,-7.6685,-7.6407,-7.6131,-7.6131,-7.5056,-7.3966,-7.3378,-7.1284,-6.8598,-6.5237,-6.3374,-6.1085,-5.7466,-5.6607,-5.5943,-5.5001,-5.5041,-5.4935,-5.4749,-5.359,-5.3157,-5.3745,-5.4573,-5.5794,-5.7297,0.0,-6.1874,-6.291,-6.6831,-6.9349,-7.0339,-7.0874,-7.1515,-7.2116,-6.9014,-6.6765,-6.526,-6.422,-6.2291,-5.9656,-5.8136,-5.7148,-5.6765,-5.69,-5.8811,-6.1642,-6.2545,-6.4367,-6.64,-7.0979,0.0,-7.1522,0.0,-7.3357,-7.3684,-7.4522,-7.4951,-7.5198,-7.5118,-7.4362,-7.3445,-7.2539,-7.3041,-7.3419,-7.3405,-7.399,-7.4599,-7.5106,-7.5716,-7.6559,-7.7673,-7.83,-7.8988,-7.9934,-7.9909,-7.961,-7.9032,-7.911,-7.8394,-7.6965,0.0,0.0,0.0,-7.9074,-7.9798,-8.1836,-8.2969,-8.3942,-8.4819,-8.6282,-8.7525,-8.8501,-8.7954,-8.8248,-8.8802,-8.7585,-8.7113,-8.7044,-8.6845,-8.6816,-8.656,-8.4932,-8.4243,-8.3644,-8.207,-8.1593,-8.1516,-8.1362,-8.1349,-8.1294,-8.1106,-8.0646,-8.0075,-7.9471,-7.8364,-7.7332,-7.68,-7.6105,-7.5599,-7.5599,-7.4828,-7.4011,-7.328,-7.2034,-6.9821,-6.5955,-6.4603,-6.2504,-5.8458,-5.7454,-5.6612,-5.5562,-5.5603,-5.5703,-5.568,-5.5308,-5.5013,-5.4968,-5.5261,-5.6318,0.0,0.0,0.0,-6.5462,-6.9241,-7.2254,-7.4587,-7.414,-7.4082,-7.4225,-7.0002,-6.7086,-6.5222,-6.4402,-6.2825,-6.0856,-5.9204,-5.8217,-5.7663,-5.7483,-5.9039,-6.1523,-6.245,-6.4036,-6.5592,-7.4104,-7.3976,-7.4446,-7.7227,-7.7182,-7.6881,-7.7189,-7.8034,-7.8386,-7.765,-7.8386,-7.7797,-7.4522,-7.4218,-7.4286,-7.4286,-7.4353,-7.5106,-7.6777,-7.6894,-7.7648,-7.9403,-7.9467,-7.9895,-8.0766,-8.0791,-8.0793,-8.0786,-8.0846,-8.0454,-7.9639,0.0,-8.0146,-8.1011,-8.187,-8.2718,-8.3672,-8.5429,-8.6601,-8.7421,-8.829,-8.9711,-9.1077,-8.9272,-8.9086,-8.9547,-8.7673,-8.6943,-8.6884,-8.6674,-8.6644,-8.65,-8.5505,-8.4579,-8.3695,-8.2686,-8.2362,-8.2355,-8.2285,-8.216,-8.2026,-8.2096,-8.1987,-8.1456,-7.9772,-7.9389,-7.8856,-7.7064,-7.6105,-7.5599,-7.5599,-7.5628,-7.5165,-7.3607,-7.2726,-7.0857,-6.6927,-6.4777,-6.263,-5.9895,-5.8395,-5.7406,-5.703,-5.6954,-5.721,-5.7707,-5.7658,-5.6915,0.0,0.0,0.0,-6.0716,-6.2863,0.0,-6.9773,-7.2581,-7.5212,-7.7794,-7.8611,-7.7974,-7.5907,-7.1389,-6.8961,-6.8004,-6.625,-6.4444,-6.2702,-6.0791,-5.9606,-5.9009,-5.8381,-5.9727,-6.2091,-6.2091,-6.3116,-6.4575,-7.6192,-7.6293,-7.6574,-7.757,-7.7682,-7.7705,-7.7962,-7.8344,-7.8602,-7.8426,-7.8781,-7.8624,-7.7581,-7.7583,-7.7421,0.0,-7.7392,-7.7937,0.0,-7.912,-7.9991,-8.1065,-8.1726,-8.217,-8.2513,-8.3088,-8.2546,-8.0791,0.0,0.0,0.0,-8.1474,-8.2254,-8.3621,-8.3315,-8.4319,-8.625,-8.6211,-8.7344,-8.914,-8.8837,-8.975,-9.1116,-8.9272,-8.9086,-8.9547,-8.7744,-8.6923,-8.6737,-8.6687,-8.6539,-8.6274,-8.5863,-8.5224,-8.4391,-8.3528,-8.2798,-8.2381,-8.2978,-8.2676,-8.2194,-8.2127,-8.2127,-8.1785,-8.0605,-7.988,-7.9048,-7.7867,-7.695,-7.6338,-7.6338,-7.5513,-7.4468,-7.3305,-7.263,-7.1214,-6.8046,-6.609,-6.416,-6.1961,-6.0148,-5.8824,-5.8017,-5.8571,-5.9175,-5.9744,-5.9463,0.0,0.0,0.0,0.0,0.0,-6.5336,0.0,-7.0324,-7.3933,-7.6507,-7.8143,-7.9112,-7.7806,-7.4342,-7.095,-6.9091,-6.8369,-6.7029,-6.5723,-6.4265,-6.2655,-6.1477,-6.0623,-6.0012,-6.0486,-6.138,-6.2191,-6.2971,-6.3504,-7.8572,-7.8452,-7.8476,-7.8635,-7.8523,-7.8479,-7.8683,-7.9051,-7.9438,-7.9586,-7.966,-7.9778,-7.9804,-8.0222,0.0,-7.8515,-7.9232,-7.9854,-8.0126,-8.1038,-8.1968,-8.2784,-8.3367,-8.3675,-8.3765,-8.4264,0.0,-8.2245,-8.2873,-8.3178,-8.323,-8.3242,-8.4028,-8.5361,-8.5136,-8.6125,-8.7969,-8.8086,-8.9023,-9.0468,-9.0252,-9.0817,-9.1538,-8.9779,-8.9398,-8.9547,-8.7705,-8.6961,-8.6751,-8.6687,-8.6693,-8.6621,-8.6176,-8.612,-8.5935,-8.4394,-8.3581,-8.3235,-8.3797,-8.3599,-8.3182,-8.3149,-8.2885,-8.2347,-8.1129,-8.0106,-7.9236,-7.8668,-7.7755,-7.7031,-7.6761,-7.5932,-7.487,-7.3652,-7.3051,-7.1729,-6.9034,-6.7364,-6.5524,-6.2974,-6.1535,-6.0324,-5.9127,-5.9616,-6.0502,-6.1897,-6.1791,0.0,0.0,0.0,-6.3323,-6.4882,-6.8159,-7.0983,-7.3414,-7.6289,-7.8535,-8.0114,-7.9252,-7.7303,-7.4262,-7.0892,-6.9091,-6.8501,-6.7593,-6.6406,-6.5196,-6.3902,-6.2733,-6.1764,-6.1116,-6.1087,-6.1297,-6.1931,-6.241,-6.2467,-8.0972,-8.0454,-8.0182,0.0,-7.978,0.0,-7.9586,-8.0272,-8.0838,-8.1047,-8.1106,-8.1239,-8.1338,-8.216,-8.1799,-7.9609,0.0,0.0,0.0,-8.2677,-8.3557,-8.4437,-8.4515,-8.4553,-8.4604,-8.4643,-8.4723,-8.4785,-8.4841,-8.4909,-8.4909,-8.5092,-8.5573,-8.6318,-8.7265,-8.8125,-8.8984,-9.0547,-9.1289,-9.1445,-9.2218,-9.2473,-9.2248,-9.052,-8.9827,-8.9469,-8.7712,-8.704,-8.6954,-8.6842,-8.7157,-8.7511,-8.6582,-8.7225,-8.7886,-8.5283,-8.4627,-8.4806,-8.4767,-8.4763,-8.4763,-8.4901,-8.4105,-8.2885,-8.1272,-8.0213,-7.9501,-7.9501,-7.8634,-7.7683,-7.7029,-7.6766,-7.6192,-7.4648,-7.3905,-7.2608,-7.0132,-6.8802,-6.6872,-6.3606,-6.2887,-6.2053,-6.0536,-6.0536,-6.1673,-6.4145,-6.4419,0.0,0.0,0.0,-6.5799,-6.8049,-7.1196,-7.4596,-7.8247,-7.9242,-8.0967,-8.3224,-7.9288,-7.6766,-7.5534,-7.1413,-6.9255,-6.873,-6.7894,-6.6828,-6.5808,-6.4723,-6.3653,-6.2535,-6.185,-6.1665,-6.1605,-6.1634,-6.1556,-6.1613,0.0,0.0,-8.1748,-8.193,-8.1782,-8.1794,-8.2033,-8.2263,-8.2492,-8.2639,-8.2779,-8.2874,-8.3016,-8.3264,-8.3239,-8.2725,-8.296,-8.318,-8.3347,-8.4301,-8.4964,-8.5289,-8.5952,-8.6049,-8.5477,-8.6164,-8.6299,-8.576,-8.5777,-8.5793,-8.5807,-8.718,-8.7899,-8.8111,-8.9022,-8.9883,-9.0664,-9.039,-9.1094,-9.2265,-9.1775,-9.1591,-9.1467,-9.0325,-8.9486,-8.8802,-8.8266,-8.7953,-8.7886,-8.8403,-8.8538,-8.8489,-8.8128,-8.8252,-8.8179,-8.6192,-8.558,-8.558,-8.5819,-8.5389,-8.4927,-8.4959,-8.3803,-8.2317,-8.1215,-8.0799,-8.0581,-8.0486,-7.973,-7.8935,-7.878,-7.8173,-7.7341,-7.6278,-7.5686,-7.4895,-7.3658,-7.1646,-6.9758,-6.8327,-6.6842,-6.5095,-6.2965,-6.4339,-6.5731,-6.6478,-6.71,-6.8752,-7.1534,-7.0976,-7.1046,-7.2021,-7.4062,-7.6441,-7.9142,-8.0026,-8.166,-8.4179,-8.0287,-7.8099,-7.729,-7.3027,-7.0864,-7.0531,-6.8963,-6.7979,-6.7387,-6.5762,-6.4412,-6.3434,-6.2875,-6.2216,-6.149,-6.1527,-6.1496,-6.1284,-8.256,-8.2896,-8.3087,-8.252,-8.2412,-8.2499,-8.2749,-8.283,-8.3025,-8.3563,-8.337,-8.3403,-8.393,-8.4105,-8.4164,-8.4196,-8.4348,-8.4656,-8.5071,-8.5616,-8.6145,-8.6738,-8.6842,-8.6729,-8.6389,-8.6919,-8.7196,-8.7243,-8.7642,-8.7854,-8.7915,-8.8852,-8.9294,-8.9344,-9.0217,-9.0854,-9.1289,-9.1211,-9.1719,-9.2578,-9.2078,-9.1897,-9.178,-9.0842,-9.0199,-8.971,-8.9177,-8.8886,-8.8783,-8.9135,-8.9328,-8.9369,-8.8881,-8.92,-8.944,-8.7786,-8.7252,-8.7137,-8.6846,-8.6485,-8.6015,-8.5244,-8.4319,-8.3402,-8.2486,-8.2263,-8.2086,-8.1612,-8.0984,-8.0343,-7.9574,-7.8935,-7.8256,-7.7452,-7.6991,-7.6439,-7.5482,-7.4405,-7.2905,-7.0983,-7.0021,-6.867,-6.6334,-6.7347,-6.8433,-6.9392,-7.0161,0.0,-7.4335,-7.5108,-7.5018,-7.4182,-7.627,-7.8348,-8.0478,-8.1822,-8.3131,-8.4481,-8.0544,-7.8494,-7.7865,-7.3501,-7.1357,-7.0921,-6.9181,-6.8129,-6.7319,-6.5903,-6.45,-6.3416,-6.2984,-6.2201,-6.1381,-6.1377,-6.1284,-6.0952,-8.3763,-8.4105,-8.4303,-8.3217,-8.2922,-8.2937,-8.3193,-8.3236,-8.3468,-8.4203,-8.3712,-8.3677,-8.4481,-8.4857,-8.504,-8.504,-8.5357,-8.5891,-8.6626,-8.6781,-8.7279,-8.8219,-8.763,-8.7272,-8.7267,-8.7316,-8.7819,-8.8763,-8.9535,-8.9914,-8.9969,-9.0094,-9.0172,-9.0211,-9.1116,-9.1497,-9.1522,-9.2304,-9.2617,-9.2617,-9.2595,-9.2541,-9.234,-9.1523,-9.1106,-9.0908,-9.0151,-8.9837,-8.9701,-8.9686,-9.0002,-9.0312,-8.954,-9.0217,-9.0971,-8.9607,-8.9215,-8.9054,-8.802,-8.7665,-8.7224,-8.5565,-8.514,-8.4908,-8.4021,-8.377,-8.3518,-8.2663,-8.2237,-8.1563,-8.0174,-7.9621,-7.9171,-7.8618,-7.8157,-7.7587,-7.6781,-7.6733,-7.5678,-7.2753,-7.2857,-7.2182,-6.9844,-6.9988,-7.0731,-7.2038,-7.3142,-7.478,-7.6788,-7.831,-7.815,-7.5916,-7.8115,-8.0218,-8.1929,-8.3847,-8.4579,-8.4205,-8.0561,-7.849,-7.7773,-7.3713,-7.1552,-7.101,-6.9399,-6.8064,-6.6823,-6.5699,-6.4361,-6.3019,-6.2525,-6.1969,-6.1313,-6.1193,-6.0952,-6.0681,-8.5988,-8.5658,-8.5549,-8.6115,-8.5723,-8.5413,-8.5553,-8.5683,-8.5589,-8.5067,-8.5041,-8.5126,-8.5282,-8.6049,-8.6585,-8.6697,-8.7461,-8.7721,-8.7372,-8.8089,-8.8664,-8.8997,-8.8956,-8.8645,-8.8048,-8.8078,-8.8593,-8.9519,-8.9703,-8.982,-8.9855,-9.0637,-9.1015,-9.1054,-9.1968,-9.2411,-9.2424,-9.2535,-9.2617,-9.2617,-9.2616,-9.2147,-9.1481,-9.1265,-9.0745,-9.0167,-9.0618,-9.075,-9.0772,-9.13,-9.1476,-9.1427,-9.1252,-9.1338,-9.1462,-9.1183,-9.1195,-9.097,-8.9243,-8.8287,-8.7389,-8.5705,-8.5214,-8.4955,-8.4105,-8.3884,-8.3817,-8.3526,-8.2817,-8.2144,-8.1848,-8.1095,-8.0493,-8.0384,-7.9738,-7.9122,-7.8859,-7.8088,-7.7051,-7.5826,-7.558,-7.4555,-7.2098,-7.3152,-7.3536,-7.2583,-7.515,-7.691,-7.7133,-7.921,-8.0028,-7.9364,-8.0524,-8.1793,-8.3228,-8.439,-8.4292,-8.302,-8.074,-7.89,-7.7368,-7.4594,-7.3061,-7.2509,-7.0599,-6.9019,-6.7541,-6.5965,-6.4448,-6.2903,-6.2321,-6.185,-6.1494,-6.0923,-6.0681,-6.0681,-8.6349,-8.6159,-8.6116,-8.6703,-8.6543,-8.6367,-8.6517,-8.6663,-8.6606,-8.6274,-8.6039,-8.6056,-8.6518,-8.665,-8.7003,-8.7541,-8.8423,-8.8845,-8.8637,-8.87,-8.9054,-8.9754,-8.9395,-8.9062,-8.8787,-8.9411,-8.9895,-9.0352,-9.0891,-9.1169,-9.1171,-9.1649,-9.1827,-9.1886,-9.2342,-9.2319,-9.1936,-9.2395,-9.2338,-9.1953,-9.2422,-9.2344,-9.1992,-9.191,-9.1661,-9.1348,-9.1598,-9.1637,-9.1624,-9.1933,-9.2223,-9.2444,-9.2456,-9.2766,-9.3037,-9.256,-9.1786,-9.0818,-8.9514,-8.8558,-8.7655,-8.6352,-8.6017,-8.5875,-8.5461,-8.5357,-8.5175,-8.46,-8.4126,-8.3641,-8.3149,-8.2567,-8.2237,-8.2309,-8.1877,-8.1384,-8.0887,-8.033,-7.9425,-7.8067,-7.7345,-7.6162,-7.4392,-7.4899,-7.5227,-7.4976,-7.6841,-7.8207,-7.8675,-8.0247,-8.1105,-8.0871,-8.1776,-8.2538,-8.3126,-8.428,-8.4142,-8.2809,-8.075,-7.9037,-7.7527,-7.4929,-7.3285,-7.2591,-7.0812,-6.8799,-6.6796,-6.5779,-6.4166,-6.2204,-6.1969,-6.1494,-6.1044,-6.056,-6.0438,-6.0381,-8.6723,-8.6649,-8.6686,-8.7093,-8.7088,-8.708,-8.7146,-8.7248,-8.7235,-8.6906,-8.6644,-8.6708,-8.7171,-8.716,-8.7447,-8.818,-8.9065,-8.9646,-8.9803,-8.934,-8.9479,-9.0466,-8.9763,-8.9522,-8.9833,-9.0485,-9.0884,-9.1121,-9.1858,-9.2321,-9.2526,-9.2416,-9.2471,-9.2663,-9.2344,-9.1835,-9.1272,-9.1585,-9.1419,-9.1012,-9.1289,-9.1758,-9.2265,-9.2039,-9.2155,-9.25,-9.2575,-9.2557,-9.2549,-9.2657,-9.3037,-9.3449,-9.3502,-9.3929,-9.4302,-9.3691,-9.2402,-9.0933,-8.9872,-8.9135,-8.8413,-8.728,-8.6984,-8.692,-8.6675,-8.661,-8.6389,-8.5678,-8.5313,-8.4908,-8.4223,-8.3765,-8.3516,-8.3625,0.0,-8.3086,-8.2211,-8.1952,-8.127,-7.9702,-7.8741,-7.7737,-7.657,-7.6372,-7.6481,-7.6984,-7.7983,-7.8956,-7.9503,-8.0882,-8.1719,-8.211,-8.2721,-8.3061,-8.3111,-8.3992,-8.3639,-8.2095,-8.0406,-7.8735,-7.7197,-7.4768,-7.3181,-7.224,-7.0486,-6.8352,-6.5991,-6.5322,-6.3704,-6.1732,-6.1613,-6.1255,-6.0681,-6.0194,-6.0071,-5.9863,-8.8167,-8.7769,-8.7642,-8.8466,-8.8258,-8.7893,-8.7893,-8.7999,-8.7626,-8.6188,-8.6701,-8.6994,-8.645,-8.7832,-8.8835,-8.8911,-8.9679,-9.0225,-9.0444,-9.0406,-9.0607,-9.1095,-9.0535,-9.0605,-9.1511,-9.0895,-9.0933,-9.1828,-9.1967,-9.2438,-9.3219,-9.254,-9.2666,-9.3443,-9.1898,-9.1174,-9.1038,-8.9594,-8.9398,-8.9958,-8.8395,-8.9219,-9.1328,-9.0477,-9.1155,-9.2585,-9.3263,-9.3521,-9.357,-9.4192,-9.4465,-9.4496,-9.4419,-9.4458,-9.449,-9.4496,-9.3858,-9.2749,-9.1051,-9.0501,-9.0027,-8.8326,-8.7874,-8.7681,-8.6829,-8.661,-8.6544,-8.6451,-8.5766,-8.5159,-8.5034,-8.4339,-8.377,-8.368,0.0,0.0,-8.2246,-8.1877,-8.1385,-8.0429,-8.0116,-7.9538,-7.8411,-7.8283,-7.7932,-7.695,-7.8493,-7.9107,-7.8299,-8.0314,-8.213,-8.3487,-8.3528,-8.3627,-8.3704,-8.3741,-8.2576,-8.0075,-7.9399,-7.7875,-7.5484,-7.4003,-7.2867,-7.195,-6.9856,-6.7931,-6.6223,-6.4744,-6.3267,-6.1998,-6.1732,-6.1255,-6.056,-5.992,-5.9578,-5.9121,-8.8181,-8.7742,-8.7561,-8.8596,-8.8654,-8.8541,-8.8596,-8.8759,-8.8602,-8.8013,-8.7991,-8.8101,-8.8339,-8.8682,-8.9087,-8.971,-9.0105,-9.0378,-9.053,-9.0546,-9.0721,-9.1059,-9.0989,-9.1084,-9.1431,-9.1339,-9.145,-9.1786,-9.1912,-9.2471,-9.327,-9.2541,-9.2654,-9.35,-9.2347,-9.1586,-9.1077,-9.0508,-8.9844,-8.9249,-8.9583,-9.0031,-9.0586,-9.1322,-9.2322,-9.3341,-9.3622,-9.4028,-9.4481,-9.4707,-9.5123,-9.5574,-9.5514,-9.5904,-9.6135,-9.5066,-9.4132,-9.3201,-9.1915,-9.1113,-9.0229,-8.8538,-8.8112,-8.7879,-8.6931,-8.6713,-8.6662,-8.6636,-8.6764,-8.6865,-8.6837,-8.6443,-8.6152,-8.6122,0.0,-8.4729,-8.378,-8.3448,-8.2912,-8.1832,-8.1082,-8.0174,-7.897,-7.8741,-7.8493,-7.8008,-7.8716,-7.9221,-7.9339,-8.0483,-8.1544,-8.2439,-8.239,-8.2886,-8.3955,-8.307,-8.1562,-7.9391,-7.8622,-7.7298,-7.5518,-7.4003,-7.2835,-7.181,-7.0154,-6.7958,-6.5437,-6.4813,-6.3387,-6.1523,-6.1404,-6.0923,-6.0316,-5.9702,-5.8828,-5.791,-8.7997,-8.7785,-8.7683,-8.8517,-8.8745,-8.886,-8.8936,-8.9047,-8.9044,-8.8926,-8.8782,-8.8911,-8.9275,-8.9242,-8.9459,-9.0129,-9.0295,-9.0371,-9.0593,-9.0665,-9.0799,-9.0947,-9.1164,-9.1308,-9.1347,-9.15,-9.162,-9.1716,-9.2083,-9.2586,-9.3216,-9.2998,-9.3104,-9.3414,-9.2617,-9.1646,-9.0647,-9.0451,-8.972,-8.8743,-8.9665,-9.0169,-9.0502,-9.1718,-9.2846,-9.3879,-9.4402,-9.4939,-9.5459,-9.5654,-9.6108,-9.6576,-9.652,-9.6943,-9.7145,-9.5362,-9.445,-9.3739,-9.2482,-9.1643,-9.0824,-8.9366,-8.8761,-8.8312,-8.7414,-8.6979,-8.6737,-8.6713,-8.7359,-8.7913,-8.7886,-8.7775,-8.7726,-8.7966,-8.6858,-8.5769,-8.5012,-8.4519,-8.3783,-8.2613,-8.1791,-8.0786,-7.9499,-7.9278,-7.9068,-7.8597,-7.9009,-7.9727,-8.0586,-8.1204,-8.1873,-8.2347,-8.1804,-8.2099,-8.3407,-8.1989,-8.042,-7.8609,-7.7841,-7.6736,-7.5291,-7.3665,-7.2485,-7.1452,-6.9515,-6.7341,-6.5083,-6.4545,-6.315,-6.1433,-6.1313,-6.0681,-5.992,-5.9205,-5.7924,-5.6499,-8.7794,-8.8047,-8.8293,-8.8293,-8.8533,-8.8803,-8.8803,-8.8879,-8.8801,-8.8277,-8.8933,-8.9276,-8.8834,-8.9526,-9.0029,-9.0205,-9.0205,-9.0281,-9.0517,-9.0791,-9.0992,-9.0914,-9.11,-9.1248,-9.1402,-9.138,-9.1531,-9.1716,-9.2441,-9.2925,-9.3103,-9.3981,-9.4006,-9.3275,-9.2537,-9.1295,-8.9677,-8.8871,-8.8559,-8.8547,-8.7729,-8.893,-9.1201,-9.1285,-9.2344,-9.4062,-9.5787,-9.6347,-9.6425,-9.7245,-9.7494,-9.7496,-9.7418,-9.7457,-9.7145,-9.5431,-9.4894,-9.4496,-9.2676,-9.2229,-9.1977,-9.0979,-9.0042,-8.9166,-8.8306,-8.7429,-8.6785,-8.6737,-8.741,-8.8004,-8.7925,-8.787,-8.8055,-8.8776,-8.7281,-8.5926,-8.5743,-8.4742,-8.3612,-8.2437,-8.2263,-8.1642,-8.0034,-8.018,-7.9755,-7.842,-7.9494,-8.0622,-8.1607,-8.2605,-8.339,-8.3756,-8.1909,-8.1261,-8.1826,-8.0508,-7.9051,-7.7588,-7.7114,-7.6032,-7.4406,-7.3012,-7.1733,-7.0424,-6.7641,-6.6052,-6.5407,-6.3384,-6.2381,-6.1998,-6.1433,-6.056,-5.955,-5.855,-5.702,-5.5149,-8.7563,-8.7693,-8.7757,-8.7921,-8.8232,-8.8473,-8.8473,-8.865,-8.8804,-8.8636,-8.8897,-8.9152,-8.9238,-8.9725,-9.0029,-9.0205,-9.0427,-9.0597,-9.0755,-9.0876,-9.0949,-9.0989,-9.11,-9.121,-9.1248,-9.1303,-9.1701,-9.2388,-9.2711,-9.3253,-9.3955,-9.4305,-9.4031,-9.3331,-9.3741,-9.3006,-9.1432,-9.1257,-9.0521,-8.9469,-8.9871,-9.0472,-9.135,-9.2585,-9.4132,-9.5703,-9.6217,-9.6777,-9.7323,-9.7518,-9.7581,-9.7554,-9.7533,-9.7526,-9.7262,-9.6135,-9.5367,-9.4661,-9.3432,-9.2693,-9.2031,-9.1043,-9.0574,-9.0146,-8.9271,-8.8817,-8.8554,-8.853,-8.9152,-8.9665,-8.961,-8.9523,-8.9509,-8.958,-8.8528,-8.7389,-8.6584,-8.6036,-8.5323,-8.4181,-8.3966,-8.3476,-8.2282,-8.22,-8.1718,-8.0406,-8.0587,-8.0975,-8.1549,-8.1374,-8.1291,-8.1551,-8.0084,-7.9297,-7.9162,-7.8784,-7.7892,-7.6768,-7.5918,-7.4938,-7.3902,-7.2517,-7.1328,-7.0149,-6.802,-6.6361,-6.5053,-6.3624,-6.2529,-6.1613,-6.0802,-5.9664,-5.8283,-5.7535,-5.5366,-5.2747,-8.7807,-8.7653,-8.7674,-8.8109,-8.8207,-8.8195,-8.8195,-8.8533,-8.8803,-8.886,-8.8992,-8.9211,-8.9489,-8.9741,-8.9982,-9.0212,-9.0482,-9.0684,-9.0799,-9.0874,-9.0982,-9.11,-9.1175,-9.121,-9.1248,-9.1236,-9.176,-9.2718,-9.3153,-9.3659,-9.4276,-9.5066,-9.4834,-9.3768,-9.4712,-9.4229,-9.2692,-9.3094,-9.2104,-9.0415,-9.2002,-9.2249,-9.1925,-9.4029,-9.5475,-9.6441,-9.6769,-9.7245,-9.7753,-9.8065,-9.8143,-9.8135,-9.8119,-9.7845,-9.737,-9.6485,-9.5602,-9.4744,-9.3795,-9.2938,-9.2143,-9.151,-9.1083,-9.0713,-9.0128,-8.9676,-8.9337,-8.929,-8.9914,-9.0455,-9.0344,-9.0226,-9.0185,-9.0432,-8.9263,-8.8194,-8.7844,-8.7375,-8.6736,-8.5895,-8.5716,-8.5046,-8.3541,-8.3744,-8.3604,-8.2544,-8.2353,-8.2434,-8.2846,-8.2097,-8.1695,-8.1698,-7.9782,-7.859,-7.8407,-7.7638,-7.6812,-7.596,-7.5097,-7.4306,-7.3285,-7.2122,-7.0917,-6.9724,-6.7843,-6.6183,-6.4934,-6.3446,-6.247,-6.1703,-6.0485,-5.9078,-5.7729,-5.6609,-5.4262,-5.1609,-8.8378,-8.7961,-8.78,-8.8686,-8.8322,-8.7947,-8.8021,-8.8451,-8.8766,-8.8936,-8.9102,-8.928,-8.9692,-8.9741,-8.9887,-9.0136,-9.0367,-9.053,-9.0681,-9.0838,-9.1024,-9.1175,-9.1175,-9.1175,-9.1287,-9.1248,-9.1741,-9.291,-9.3637,-9.4119,-9.4346,-9.6077,-9.6007,-9.4447,-9.5422,-9.5001,-9.3542,-9.45,-9.3516,-9.1537,-9.4013,-9.4106,-9.299,-9.5456,-9.6425,-9.6634,-9.7413,-9.7689,-9.7831,-9.8729,-9.9002,-9.8994,-9.8938,-9.8305,-9.7436,-9.6636,-9.5756,-9.481,-9.3959,-9.3048,-9.2293,-9.2243,-9.1624,-9.0985,-9.0926,-9.0284,-8.9698,-8.9547,-9.0182,-9.0675,-9.0516,-9.0273,-9.0384,-9.1159,-8.9685,-8.8613,-8.922,-8.8561,-8.7851,-8.7383,-8.7193,-8.6327,-8.4339,-8.4934,-8.5222,-8.4629,-8.4404,-8.4492,-8.4892,-8.3941,-8.3296,-8.3223,-8.0152,-7.8694,-7.899,-7.6991,-7.5805,-7.5228,-7.4704,-7.38,-7.2762,-7.1906,-7.0694,-6.9232,-6.7212,-6.5819,-6.4934,-6.3267,-6.2321,-6.1851,-6.0291,-5.8774,-5.7382,-5.5866,-5.3573,-5.1434,-8.8618,-8.825,-8.8099,-8.8906,-8.8256,-8.785,-8.8479,-8.8355,-8.8256,-8.8554,-8.8613,-8.8842,-8.9295,-8.9541,-8.9692,-8.9887,-9.0236,-9.0454,-9.0558,-9.0679,-9.0798,-9.0799,-9.0877,-9.1028,-9.1056,-9.1171,-9.2011,-9.3654,-9.3875,-9.4396,-9.5185,-9.6328,-9.5961,-9.4403,-9.6018,-9.5763,-9.4278,-9.5256,-9.497,-9.3881,-9.4635,-9.5089,-9.5459,-9.608,-9.6777,-9.7448,-9.7628,-9.7694,-9.7823,-9.8721,-9.8986,-9.8929,-9.8986,-9.8344,-9.7572,-9.7358,-9.6207,-9.4976,-9.4769,-9.3587,-9.2444,-9.2299,-9.2129,-9.1981,-9.1899,-9.1682,-9.1439,-9.1369,-9.145,-9.1488,-9.1222,-9.1129,-9.111,-9.1098,-9.0646,-9.007,-8.9412,-8.9019,-8.8504,-8.7589,-8.7429,-8.7213,-8.6682,-8.6128,-8.57,-8.5447,-8.4844,-8.4532,-8.476,-8.261,-8.1733,-8.2421,-7.9057,-7.7319,-7.7638,-7.6435,-7.5484,-7.5,-7.4003,-7.3077,-7.2122,-7.1029,-7.0161,-6.9294,-6.7011,-6.5849,-6.5289,-6.3119,-6.1674,-6.0853,-5.952,-5.7631,-5.5551,-5.4951,-5.3075,-5.1286,-8.9386,-8.8947,-8.8728,-8.9532,-8.8856,-8.8273,-8.8679,-8.8441,-8.8195,-8.8436,-8.8592,-8.8766,-8.914,-8.9318,-8.9489,-8.9692,-8.999,-9.0266,-9.0345,-9.0486,-9.0574,-9.06,-9.0641,-9.0761,-9.0838,-9.1336,-9.2367,-9.3924,-9.4309,-9.496,-9.594,-9.6452,-9.628,-9.5545,-9.6474,-9.6426,-9.5697,-9.6243,-9.5699,-9.4652,-9.5652,-9.5858,-9.5611,-9.6519,-9.719,-9.7714,-9.8143,-9.8861,-9.9629,-10.0102,-9.9923,-9.9563,-9.9619,-9.8713,-9.7641,-9.7632,-9.6412,-9.5036,-9.4997,-9.3788,-9.25,-9.2417,-9.2341,-9.2284,-9.2228,-9.2151,-9.2066,-9.1912,-9.1863,-9.1759,-9.1531,-9.1438,-9.127,-9.1026,-9.0915,-9.0606,-9.0023,-8.9863,-8.9544,-8.8949,-8.8783,-8.8597,-8.8393,-8.6868,-8.6025,-8.6354,-8.5345,-8.4864,-8.5338,-8.3227,-8.2435,-8.3329,-7.9826,-7.789,-7.7754,-7.6154,-7.4902,-7.4105,-7.3266,-7.2136,-7.085,-6.9983,-6.9077,-6.8104,-6.6484,-6.548,-6.4838,-6.2883,-6.1616,-6.0735,-5.9119,-5.733,-5.5594,-5.4743,-5.4093,-5.3795,-9.0114,-8.9788,-8.9496,-9.03,-8.9451,-8.8797,-8.8908,-8.8488,-8.8232,-8.8376,-8.8533,-8.8803,-8.9104,-8.9194,-8.928,-8.9541,-8.9805,-8.9952,-9.0113,-9.0238,-9.0371,-9.0389,-9.0394,-9.0474,-9.0638,-9.1638,-9.2718,-9.3782,-9.4593,-9.5476,-9.6459,-9.6467,-9.6598,-9.6753,-9.6744,-9.6822,-9.6908,-9.7015,-9.6201,-9.5064,-9.6659,-9.6449,-9.543,-9.7084,-9.7749,-9.7948,-9.8885,-10.0219,-10.1599,-10.1404,-10.0993,-10.0485,-10.022,-9.9087,-9.7909,-9.7728,-9.6587,-9.53,-9.5065,-9.3895,-9.2676,-9.2539,-9.2417,-9.2313,-9.2208,-9.221,-9.2151,-9.1936,-9.1888,-9.189,-9.1823,-9.167,-9.1544,-9.1449,-9.1299,-9.114,-9.1097,-9.1094,-9.0933,-9.0694,-9.0236,-8.9839,-8.9475,-8.7575,-8.6566,-8.7057,-8.5981,-8.5545,-8.6076,-8.4523,-8.3928,-8.4569,-8.1071,-7.8932,-7.8366,-7.5968,-7.4306,-7.3181,-7.2228,-7.1035,-6.9651,-6.8846,-6.7981,-6.6827,-6.581,-6.5049,-6.4327,-6.2733,-6.1556,-6.0792,-5.8838,-5.7355,-5.6024,-5.4928,-5.5547,-5.6837,-9.045,-9.0175,-9.0112,-9.099,-8.9532,-8.8566,-8.944,-8.833,-8.76,-8.801,-8.8072,-8.8279,-8.8823,-8.9081,-8.928,-8.9386,-8.9578,-8.9679,-8.9642,-8.9915,-9.0011,-8.9887,-8.9982,-9.0121,-9.0295,-9.1728,-9.2793,-9.3486,-9.4483,-9.5403,-9.6248,-9.6348,-9.6448,-9.6525,-9.6529,-9.6537,-9.6564,-9.6761,-9.6725,-9.6604,-9.7037,-9.7147,-9.7149,-9.8227,-9.8675,-9.8846,-9.9783,-10.0811,-10.1508,-10.0695,-10.0915,-10.1196,-9.9659,-9.9028,-9.869,-9.7909,-9.7003,-9.6066,-9.5286,-9.4349,-9.3451,-9.2685,-9.2481,-9.2451,-9.2308,-9.2247,-9.2151,-9.1936,-9.1888,-9.2044,-9.2466,-9.2518,-9.2685,-9.3249,-9.3254,-9.3141,-9.3023,-9.2981,-9.2588,-9.1648,-9.0616,-8.9887,-8.9591,-8.8783,-8.7912,-8.7171,-8.7079,-8.6796,-8.6151,-8.5483,-8.4978,-8.4606,-8.1305,-7.9042,-7.804,-7.5771,-7.3902,-7.2582,-7.0768,-6.9841,-6.9651,-6.8437,-6.7567,-6.6827,-6.581,-6.5049,-6.4382,-6.246,-6.0993,-5.977,-5.8088,-5.6613,-5.52,-5.4998,-5.5861,-5.7277,-9.0668,-9.0684,-9.0769,-9.1133,-9.0044,-8.9224,-8.9661,-8.8471,-8.7665,-8.7947,-8.8072,-8.8316,-8.8748,-8.9478,-8.9754,-8.9356,-8.9876,-9.0018,-8.9503,-8.9629,-8.9629,-8.9566,-8.9642,-8.9919,-9.0521,-9.1833,-9.286,-9.3594,-9.4777,-9.5595,-9.6059,-9.6171,-9.6243,-9.632,-9.6425,-9.6463,-9.6509,-9.6641,-9.6792,-9.6898,-9.7031,-9.7471,-9.8141,-9.8556,-9.9111,-9.9739,-10.0712,-10.1599,-10.2302,-10.1898,-10.141,-10.0691,-9.9985,-9.9047,-9.8188,-9.7806,-9.7089,-9.6315,-9.5919,-9.4855,-9.3732,-9.3334,-9.2841,-9.2451,-9.238,-9.261,-9.2675,-9.2053,-9.2251,-9.2572,-9.2697,-9.3065,-9.3427,-9.3636,-9.3639,-9.3409,-9.2794,-9.2638,-9.2168,-9.1114,-9.0524,-9.0113,-8.9741,-8.9118,-8.8463,-8.7852,-8.7533,-8.744,-8.7478,-8.6288,-8.5485,-8.5262,-8.1741,-7.9182,-7.804,-7.5539,-7.35,-7.1861,-7.0086,-6.8984,-6.861,-6.7135,-6.6195,-6.575,-6.5075,-6.4614,-6.4099,-6.245,-6.1075,-5.9883,-5.8436,-5.7197,-5.6049,-5.6366,-5.7425,-5.8825]}]]